[[{"header":{"parameterUnit":"m.s-1","parameterCategory":1,"la1":30.6,"la2":28.766,"lo1":-90.7593,"lo2":-88.6598,"dy":0.0162,"dx":0.0183,"nx":116,"ny":114,"refTime":"2023-04-08T12:00:00:Z","depth":0,"parameterNumber":2,"parameterNumberName":"U-component_of_WINDS"},"data":[0.0,0.0,0.0,0.0,0.0,0.0,0.0,0.0,0.0,0.0,0.0,0.0,0.0,0.0,0.0,0.0,0.0,0.0,0.0,0.0,0.0,0.0,0.0,0.0,0.0,0.0,0.0,0.0,0.0,0.0,0.0,0.0,0.0,0.0,0.0,0.0,0.0,0.0,0.0,0.0,0.0,0.0,0.0,0.0,0.0,0.0,0.0,0.0,0.0,0.0,0.0,0.0,0.0,0.0,0.0,0.0,0.0,0.0,0.0,0.0,0.0,0.0,0.0,0.0,0.0,0.0,0.0,0.0,0.0,0.0,0.0,0.0,0.0,0.0,0.0,0.0,0.0,0.0,0.0,0.0,0.0,0.0,0.0,0.0,0.0,0.0,0.0,0.0,0.0,0.0,0.0,0.0,0.0,0.0,0.0,0.0,0.0,0.0,0.0,0.0,0.0,0.0,0.0,0.0,0.0,0.0,0.0,0.0,0.0,0.0,0.0,0.0,0.0,0.0,0.0,0.0,0.0,0.0,0.0,0.0,0.0,0.0,0.0,0.0,0.0,0.0,0.0,0.0,0.0,0.0,0.0,0.0,0.0,0.0,0.0,0.0,0.0,0.0,0.0,0.0,0.0,0.0,0.0,0.0,0.0,0.0,0.0,0.0,0.0,0.0,0.0,0.0,0.0,0.0,0.0,0.0,0.0,0.0,0.0,0.0,0.0,0.0,0.0,0.0,0.0,0.0,0.0,0.0,0.0,0.0,0.0,0.0,0.0,0.0,0.0,0.0,0.0,0.0,0.0,0.0,0.0,0.0,0.0,0.0,0.0,0.0,0.0,0.0,0.0,0.0,0.0,0.0,0.0,0.0,0.0,0.0,0.0,0.0,0.0,0.0,0.0,0.0,0.0,0.0,0.0,0.0,0.0,0.0,0.0,0.0,0.0,0.0,0.0,0.0,0.0,0.0,0.0,0.0,0.0,0.0,0.0,0.0,0.0,0.0,0.0,0.0,0.0,0.0,0.0,0.0,0.0,0.0,0.0,0.0,0.0,0.0,0.0,0.0,0.0,0.0,0.0,0.0,0.0,0.0,0.0,0.0,0.0,0.0,0.0,0.0,0.0,0.0,0.0,0.0,0.0,0.0,0.0,0.0,0.0,0.0,0.0,0.0,0.0,0.0,0.0,0.0,0.0,0.0,0.0,0.0,0.0,0.0,0.0,0.0,0.0,0.0,0.0,0.0,0.0,0.0,0.0,0.0,0.0,0.0,0.0,0.0,0.0,0.0,0.0,0.0,0.0,0.0,0.0,0.0,0.0,0.0,0.0,0.0,0.0,0.0,0.0,0.0,0.0,0.0,0.0,0.0,0.0,0.0,0.0,0.0,0.0,0.0,0.0,0.0,0.0,0.0,0.0,0.0,0.0,0.0,0.0,0.0,0.0,0.0,0.0,0.0,0.0,0.0,0.0,0.0,0.0,0.0,0.0,0.0,0.0,0.0,0.0,0.0,0.0,0.0,0.0,0.0,0.0,0.0,0.0,0.0,0.0,0.0,0.0,0.0,0.0,0.0,0.0,0.0,0.0,0.0,0.0,0.0,0.0,0.0,0.0,0.0,0.0,0.0,0.0,0.0,0.0,0.0,0.0,0.0,0.0,0.0,0.0,0.0,0.0,0.0,0.0,0.0,0.0,0.0,0.0,0.0,0.0,0.0,0.0,0.0,0.0,0.0,0.0,0.0,0.0,0.0,0.0,0.0,0.0,0.0,0.0,0.0,0.0,0.0,0.0,0.0,0.0,0.0,0.0,0.0,0.0,0.0,0.0,0.0,0.0,0.0,0.0,0.0,0.0,0.0,0.0,0.0,0.0,0.0,0.0,0.0,0.0,0.0,0.0,0.0,0.0,0.0,0.0,0.0,0.0,0.0,0.0,0.0,0.0,0.0,0.0,0.0,0.0,0.0,0.0,0.0,0.0,0.0,0.0,0.0,0.0,0.0,0.0,0.0,0.0,0.0,0.0,0.0,0.0,0.0,0.0,0.0,0.0,0.0,0.0,0.0,0.0,0.0,0.0,0.0,0.0,0.0,0.0,0.0,0.0,0.0,0.0,0.0,0.0,0.0,0.0,0.0,0.0,0.0,0.0,0.0,0.0,0.0,0.0,0.0,0.0,0.0,0.0,0.0,0.0,0.0,0.0,0.0,0.0,0.0,0.0,0.0,0.0,0.0,0.0,0.0,0.0,0.0,0.0,0.0,0.0,0.0,0.0,0.0,0.0,0.0,0.0,0.0,0.0,0.0,0.0,0.0,0.0,0.0,0.0,0.0,0.0,0.0,0.0,0.0,0.0,0.0,0.0,0.0,0.0,0.0,0.0,0.0,0.0,0.0,0.0,0.0,0.0,0.0,0.0,0.0,0.0,0.0,0.0,0.0,0.0,0.0,0.0,0.0,0.0,0.0,0.0,0.0,0.0,0.0,0.0,0.0,0.0,0.0,0.0,0.0,0.0,0.0,0.0,0.0,0.0,0.0,0.0,0.0,0.0,0.0,0.0,0.0,0.0,0.0,0.0,0.0,0.0,0.0,0.0,0.0,0.0,0.0,0.0,0.0,0.0,0.0,0.0,0.0,0.0,0.0,0.0,0.0,0.0,0.0,0.0,0.0,0.0,0.0,0.0,0.0,0.0,0.0,0.0,0.0,0.0,0.0,0.0,0.0,0.0,0.0,0.0,0.0,0.0,0.0,0.0,0.0,0.0,0.0,0.0,0.0,0.0,0.0,0.0,0.0,0.0,0.0,0.0,0.0,0.0,0.0,0.0,0.0,0.0,0.0,0.0,0.0,0.0,0.0,0.0,0.0,0.0,0.0,0.0,0.0,0.0,0.0,0.0,0.0,0.0,0.0,0.0,0.0,0.0,0.0,0.0,0.0,0.0,0.0,0.0,0.0,0.0,0.0,0.0,0.0,0.0,0.0,0.0,0.0,0.0,0.0,0.0,0.0,0.0,0.0,0.0,0.0,0.0,0.0,0.0,0.0,0.0,0.0,0.0,0.0,0.0,0.0,0.0,0.0,0.0,0.0,0.0,0.0,0.0,0.0,0.0,0.0,0.0,0.0,0.0,0.0,0.0,0.0,0.0,0.0,0.0,0.0,0.0,0.0,0.0,0.0,0.0,0.0,0.0,0.0,0.0,0.0,0.0,0.0,0.0,0.0,0.0,0.0,0.0,0.0,0.0,0.0,0.0,0.0,0.0,0.0,0.0,0.0,0.0,0.0,0.0,0.0,0.0,0.0,0.0,0.0,0.0,0.0,0.0,0.0,0.0,0.0,0.0,0.0,0.0,0.0,0.0,0.0,0.0,0.0,0.0,0.0,0.0,0.0,0.0,0.0,0.0,0.0,0.0,0.0,0.0,0.0,0.0,0.0,0.0,0.0,0.0,0.0,0.0,0.0,0.0,0.0,0.0,0.0,0.0,0.0,0.0,0.0,0.0,0.0,0.0,0.0,0.0,0.0,0.0,0.0,0.0,0.0,0.0,0.0,0.0,0.0,0.0,0.0,0.0,0.0,0.0,0.0,0.0,0.0,0.0,0.0,0.0,0.0,0.0,0.0,0.0,0.0,0.0,0.0,0.0,0.0,0.0,0.0,0.0,0.0,0.0,0.0,0.0,0.0,0.0,0.0,0.0,0.0,0.0,0.0,0.0,0.0,0.0,0.0,0.0,0.0,0.0,0.0,0.0,0.0,0.0,0.0,0.0,0.0,0.0,0.0,0.0,0.0,0.0,0.0,0.0,0.0,0.0,0.0,0.0,0.0,0.0,0.0,0.0,0.0,0.0,0.0,0.0,0.0,0.0,0.0,0.0,0.0,0.0,0.0,0.0,0.0,0.0,0.0,0.0,0.0,0.0,0.0,0.0,0.0,0.0,0.0,0.0,0.0,0.0,0.0,0.0,0.0,0.0,0.0,0.0,0.0,0.0,0.0,0.0,0.0,0.0,0.0,0.0,0.0,0.0,0.0,0.0,0.0,0.0,0.0,0.0,0.0,0.0,0.0,0.0,0.0,0.0,0.0,0.0,0.0,0.0,0.0,0.0,0.0,0.0,0.0,0.0,0.0,0.0,0.0,0.0,0.0,0.0,0.0,0.0,0.0,0.0,0.0,0.0,0.0,0.0,0.0,0.0,0.0,0.0,0.0,0.0,0.0,0.0,0.0,0.0,0.0,0.0,0.0,0.0,0.0,0.0,0.0,0.0,0.0,0.0,0.0,0.0,0.0,0.0,0.0,0.0,0.0,0.0,0.0,0.0,0.0,0.0,0.0,0.0,0.0,0.0,0.0,0.0,0.0,0.0,0.0,0.0,0.0,0.0,0.0,0.0,0.0,0.0,0.0,0.0,0.0,0.0,0.0,0.0,0.0,0.0,0.0,0.0,0.0,0.0,0.0,0.0,0.0,0.0,0.0,0.0,0.0,0.0,0.0,0.0,0.0,0.0,0.0,0.0,0.0,0.0,0.0,0.0,0.0,0.0,0.0,0.0,0.0,0.0,0.0,0.0,0.0,0.0,0.0,0.0,0.0,0.0,0.0,0.0,0.0,0.0,0.0,0.0,0.0,0.0,0.0,0.0,0.0,0.0,0.0,0.0,0.0,0.0,0.0,0.0,0.0,0.0,0.0,0.0,0.0,0.0,0.0,0.0,0.0,0.0,0.0,0.0,0.0,0.0,0.0,0.0,0.0,0.0,0.0,0.0,0.0,0.0,0.0,0.0,0.0,0.0,0.0,0.0,0.0,0.0,0.0,0.0,0.0,0.0,0.0,0.0,0.0,0.0,0.0,0.0,0.0,0.0,0.0,0.0,0.0,0.0,0.0,0.0,0.0,0.0,0.0,0.0,0.0,0.0,0.0,0.0,0.0,0.0,0.0,0.0,0.0,0.0,0.0,0.0,0.0,0.0,0.0,0.0,0.0,0.0,0.0,0.0,0.0,0.0,0.0,0.0,0.0,0.0,0.0,0.0,0.0,0.0,0.0,0.0,0.0,0.0,0.0,0.0,0.0,0.0,0.0,0.0,0.0,0.0,0.0,0.0,0.0,0.0,0.0,0.0,0.0,0.0,0.0,0.0,0.0,0.0,0.0,0.0,0.0,0.0,0.0,0.0,0.0,0.0,0.0,0.0,0.0,0.0,0.0,0.0,0.0,0.0,0.0,0.0,0.0,0.0,0.0,0.0,0.0,0.0,0.0,0.0,0.0,0.0,0.0,0.0,0.0,0.0,0.0,0.0,0.0,0.0,0.0,0.0,0.0,0.0,0.0,0.0,0.0,0.0,0.0,0.0,0.0,0.0,0.0,0.0,0.0,0.0,0.0,0.0,0.0,0.0,0.0,0.0,0.0,0.0,0.0,0.0,0.0,0.0,0.0,0.0,0.0,0.0,0.0,0.0,0.0,0.0,0.0,0.0,0.0,0.0,0.0,0.0,0.0,0.0,0.0,0.0,0.0,0.0,0.0,0.0,0.0,0.0,0.0,0.0,0.0,0.0,0.0,0.0,0.0,0.0,0.0,0.0,0.0,0.0,0.0,0.0,0.0,0.0,0.0,0.0,0.0,0.0,0.0,0.0,0.0,0.0,0.0,0.0,0.0,0.0,0.0,0.0,0.0,0.0,0.0,0.0,0.0,0.0,0.0,0.0,0.0,0.0,0.0,0.0,0.0,0.0,0.0,0.0,0.0,0.0,0.0,0.0,0.0,0.0,0.0,0.0,0.0,0.0,0.0,0.0,0.0,0.0,0.0,0.0,0.0,0.0,0.0,0.0,0.0,0.0,0.0,0.0,0.0,0.0,0.0,0.0,0.0,0.0,0.0,0.0,0.0,0.0,0.0,0.0,0.0,0.0,0.0,0.0,0.0,0.0,0.0,0.0,0.0,0.0,0.0,0.0,0.0,0.0,0.0,0.0,0.0,0.0,0.0,0.0,0.0,0.0,0.0,0.0,0.0,0.0,0.0,0.0,0.0,0.0,0.0,0.0,0.0,0.0,0.0,0.0,0.0,0.0,0.0,0.0,0.0,0.0,0.0,0.0,0.0,0.0,0.0,0.0,0.0,0.0,0.0,0.0,0.0,0.0,0.0,1.5025,1.4991,0.0,0.0,0.0,0.0,0.0,0.0,0.0,0.0,0.0,0.0,0.0,0.0,0.0,0.0,0.0,0.0,0.0,0.0,0.0,0.0,0.0,0.0,0.0,0.0,0.0,0.0,0.0,0.0,0.0,0.0,0.0,0.0,0.0,0.0,0.0,0.0,0.0,0.6863,0.6863,0.6918,0.7082,0.7729,0.8344,0.8939,0.0,0.0,0.0,0.0,0.0,0.0,0.0,0.0,0.0,0.0,0.0,0.0,0.0,0.0,0.0,0.0,0.0,0.0,0.0,0.0,0.0,0.0,0.0,0.0,0.0,0.0,0.0,0.0,0.0,0.0,0.0,0.0,0.0,0.0,0.0,0.0,0.0,0.0,0.0,0.0,0.0,0.0,0.0,0.0,0.0,0.0,0.0,0.0,0.0,0.0,0.0,0.0,0.0,0.0,0.0,0.0,0.0,0.0,0.0,0.0,0.0,0.0,0.0,0.0,0.0,0.0,0.0,0.0,0.0,0.0,1.5182,1.5194,0.0,0.0,0.0,0.0,0.0,0.0,0.0,0.0,0.0,0.0,0.0,0.0,0.0,0.0,0.0,0.0,0.0,0.0,0.0,0.0,0.0,0.0,0.0,0.7687,0.7569,0.7414,0.7156,0.6995,0.0,0.0,0.0,0.0,0.0,0.0,0.6229,0.6186,0.6228,0.6339,0.6386,0.6473,0.6602,0.6834,0.7283,0.79,0.8487,0.0,0.0,0.0,0.0,0.0,0.0,0.0,0.0,0.0,0.0,0.0,0.0,0.0,0.0,0.0,0.0,0.0,0.0,0.0,0.0,0.0,0.0,0.0,0.0,0.0,0.0,0.0,0.0,0.0,0.0,0.0,0.0,0.0,0.0,0.0,0.0,0.0,0.0,0.0,0.0,0.0,0.0,0.0,0.0,0.0,0.0,0.0,0.0,0.0,0.0,0.0,0.0,0.0,0.0,0.0,0.0,0.0,0.0,0.0,0.0,0.0,0.0,0.0,1.4341,1.4679,1.5235,1.5326,1.5455,1.5692,1.565,1.5676,1.5781,1.5654,0.0,0.0,0.0,0.0,0.0,0.0,0.0,0.0,0.0,0.0,0.0,0.0,0.0,0.0,0.0,0.0,0.0,0.0,0.0,0.0,0.0,0.7048,0.6974,0.707,0.6719,0.655,0.6645,0.0,0.0,0.0,0.0,0.0,0.5525,0.5353,0.5293,0.5303,0.5522,0.5674,0.5757,0.6154,0.64,0.6578,0.7361,0.7691,0.7691,0.0,0.0,0.0,0.0,0.0,0.0,0.0,0.0,0.0,0.0,0.0,0.0,0.0,0.0,0.0,0.0,0.0,0.0,0.0,0.0,0.0,0.0,0.0,0.0,0.0,0.0,0.0,0.0,0.0,0.0,0.0,0.0,0.0,0.0,0.0,0.0,0.0,0.0,0.0,0.0,0.0,0.9017,0.9431,0.0,0.0,0.0,0.0,0.0,0.0,0.0,0.0,0.0,0.0,0.0,0.0,0.0,1.3101,1.362,1.384,1.4202,1.4721,1.4898,1.5262,1.5824,1.6156,1.6212,1.6055,1.6389,0.0,1.5742,1.6235,0.0,0.0,0.0,0.0,0.0,0.0,0.0,0.0,0.0,0.0,0.0,0.0,0.0,0.0,0.0,0.0,0.0,0.0,0.0,0.0,0.0,0.628,0.6105,0.6195,0.5953,0.5809,0.5862,0.5664,0.0,0.0,0.0,0.5198,0.5234,0.5146,0.5186,0.5388,0.5564,0.5717,0.577,0.5943,0.6044,0.6104,0.645,0.6863,0.7328,0.7328,0.0,0.0,0.0,0.0,0.0,0.0,0.0,0.0,0.0,0.0,0.0,0.0,0.0,0.0,0.0,0.0,0.0,0.0,0.0,0.0,0.0,0.0,0.0,0.0,0.0,0.0,0.0,0.0,0.0,0.0,0.0,0.0,0.0,0.0,0.0,0.0,0.0,0.0,0.0,0.8742,0.9043,0.9391,0.9698,0.9933,0.0,0.0,0.0,0.0,0.0,0.0,0.0,0.0,0.0,1.2966,1.3355,1.3843,1.4383,1.4446,1.4693,1.5031,1.5117,1.5468,1.6015,1.6381,1.6629,1.6744,1.7095,1.7044,1.6648,1.6522,1.6563,1.6656,0.0,0.0,0.0,0.0,1.6454,1.6571,0.0,0.0,0.0,0.0,0.0,0.0,0.0,0.0,0.0,0.0,0.0,0.0,0.5911,0.5637,0.5489,0.557,0.5412,0.5318,0.5346,0.5153,0.5046,0.5046,0.4949,0.4922,0.4977,0.5003,0.5153,0.5457,0.5557,0.5667,0.5768,0.5768,0.5795,0.5814,0.5927,0.6297,0.6864,0.6862,0.6909,0.6962,0.0,0.0,0.0,0.0,0.0,0.0,0.0,0.0,0.0,0.0,0.0,0.0,0.0,0.0,0.0,0.0,0.0,0.0,0.0,0.0,0.0,0.0,0.0,0.0,0.0,0.0,0.0,0.0,0.0,0.0,0.0,0.0,0.0,0.0,0.0,0.0,0.0,0.9034,0.921,0.9571,1.0074,1.0436,0.0,0.0,0.0,0.0,0.0,0.0,1.2044,1.2426,1.2957,1.3585,1.4056,1.4583,1.5219,1.5219,1.5323,1.5521,1.5521,1.584,1.6431,1.6812,1.7127,1.7454,1.7767,1.7776,1.753,1.6939,1.6819,1.7021,1.6944,1.689,1.6894,1.6967,1.709,1.7199,0.0,0.0,0.0,0.0,0.0,0.0,0.0,0.0,0.0,0.0,0.0,0.5133,0.5147,0.5237,0.5365,0.5494,0.5389,0.5346,0.5475,0.5136,0.4911,0.4911,0.4722,0.4632,0.4636,0.4753,0.4888,0.5042,0.5107,0.5248,0.5421,0.5421,0.5483,0.5618,0.5943,0.605,0.5951,0.5968,0.6121,0.6333,0.6139,0.0,0.0,0.0,0.0,0.0,0.0,0.0,0.0,0.0,0.0,0.0,0.0,0.0,0.0,0.0,0.0,0.0,0.0,0.0,0.0,0.0,0.0,0.0,0.0,0.0,0.0,0.0,0.0,0.0,0.0,0.0,0.0,0.0,0.0,0.0,0.0,0.0,0.0,1.0213,1.0451,0.0,0.0,0.0,0.0,1.2499,1.2547,1.2637,1.2742,1.2946,1.3495,1.4427,1.4664,1.5208,1.6122,1.6122,1.6252,1.6415,1.6415,1.6745,1.7358,1.7759,1.8011,1.8153,1.8287,1.8237,1.8037,1.7631,1.7308,1.7159,1.7584,1.7603,1.7409,1.7727,1.7689,1.7472,0.0,0.0,0.0,0.0,0.0,0.0,0.0,0.0,0.491,0.4911,0.4907,0.4921,0.4956,0.4964,0.4999,0.5034,0.5089,0.5093,0.5063,0.4879,0.478,0.478,0.4649,0.465,0.4741,0.4859,0.4998,0.5118,0.5021,0.504,0.5127,0.5008,0.4977,0.5028,0.5149,0.5168,0.5164,0.5921,0.6217,0.6228,0.6056,0.6087,0.0,0.0,0.0,0.0,0.0,0.0,0.0,0.0,0.0,0.0,0.0,0.0,0.0,0.0,0.0,0.0,0.0,0.0,0.0,0.0,0.0,0.0,0.0,0.0,0.0,0.0,0.0,0.0,0.0,0.0,0.0,0.0,0.0,0.0,0.0,0.0,0.0,1.1045,1.1341,0.0,1.2355,1.2762,1.3062,1.322,1.336,1.3449,1.3514,1.393,1.4487,1.5053,1.5498,1.5994,1.6585,1.6585,1.6613,1.6689,1.6981,1.7202,1.7417,1.8085,1.8409,1.8471,1.8748,1.8817,1.8699,1.8268,1.7872,1.7553,1.7723,1.7834,1.787,1.7963,1.8013,1.801,0.0,0.0,0.0,0.0,0.0,0.0,0.0,0.0,0.4596,0.4656,0.4708,0.475,0.4821,0.4847,0.4842,0.4813,0.492,0.4932,0.4817,0.4757,0.4724,0.4724,0.4749,0.4786,0.4879,0.5002,0.5083,0.5096,0.4987,0.4943,0.4937,0.481,0.476,0.4754,0.4777,0.4787,0.4847,0.5626,0.5923,0.586,0.5704,0.5763,0.5881,0.0,0.0,0.0,0.0,0.0,0.0,0.0,0.0,0.0,0.0,0.0,0.0,0.0,0.0,0.0,0.0,0.0,0.0,0.0,0.0,0.0,0.0,0.0,0.0,0.0,0.0,0.0,0.0,0.0,0.0,0.0,0.0,0.0,0.0,1.0582,1.1091,1.1886,1.2363,1.283,1.3353,1.3802,1.4055,1.4055,1.4196,1.4335,1.4481,1.4913,1.5423,1.5989,1.6393,1.6803,1.719,1.719,1.7293,1.7444,1.7707,1.7968,1.815,1.8682,1.8974,1.9038,1.9184,1.9226,1.9204,1.8807,1.846,1.8234,1.8006,1.8014,1.8153,1.8282,1.8401,1.8483,0.0,0.0,0.0,0.0,0.0,0.0,0.0,0.4473,0.4321,0.4402,0.4516,0.463,0.47,0.4892,0.4937,0.4817,0.492,0.4932,0.4817,0.4809,0.4809,0.4813,0.4924,0.4999,0.5007,0.513,0.5099,0.4907,0.4964,0.4911,0.4791,0.4764,0.4804,0.4878,0.4946,0.4979,0.4986,0.5025,0.5112,0.516,0.5045,0.5352,0.5871,0.0,0.0,0.0,0.0,0.0,0.0,0.0,0.0,0.0,0.0,0.0,0.0,0.0,0.0,0.0,0.0,0.0,0.0,0.0,0.0,0.0,0.0,0.0,0.0,0.0,0.0,0.0,0.0,0.0,0.0,0.0,0.0,0.0,1.0772,1.1376,1.2051,1.2681,1.3461,1.4078,1.4391,1.4808,1.5039,1.5039,1.5039,1.5231,1.5624,1.5841,1.6364,1.7183,1.7356,1.7615,1.801,1.801,1.8247,1.871,1.871,1.9033,1.9594,1.9632,1.9737,1.9881,1.9618,1.9521,1.9488,1.9226,1.9129,1.9068,1.8442,1.8227,1.8261,1.8653,1.881,1.8832,0.0,0.0,0.0,0.0,0.0,0.0,0.4913,0.4638,0.4507,0.4661,0.4633,0.463,0.47,0.4892,0.4937,0.4817,0.492,0.4932,0.4817,0.4809,0.4838,0.4932,0.4983,0.5035,0.5138,0.5033,0.4966,0.4964,0.4666,0.4479,0.4427,0.424,0.4172,0.4261,0.4279,0.431,0.4357,0.4374,0.4533,0.4778,0.4923,0.5157,0.5396,0.0,0.0,0.0,0.0,0.0,0.0,0.0,0.0,0.0,0.0,0.0,0.0,0.0,0.0,0.0,0.0,0.0,0.0,0.0,0.0,0.0,0.0,0.0,0.0,0.0,0.0,0.0,0.0,0.0,0.0,0.0,1.1351,1.1903,1.186,1.2201,1.2889,1.403,1.4439,1.4829,1.5369,1.5594,1.5748,1.5748,1.603,1.6264,1.6394,1.7091,1.7539,1.7554,1.7919,1.8231,1.8523,1.8513,1.871,1.9133,1.9467,1.9711,1.9884,2.0185,2.0262,2.0113,2.0048,1.9919,1.9774,1.9499,1.9402,1.9348,1.8842,1.867,1.8691,1.8663,1.8722,1.8799,0.0,0.0,0.0,0.0,0.0,0.0,0.5189,0.4908,0.4753,0.4977,0.4941,0.4929,0.5069,0.5242,0.5244,0.4993,0.5099,0.506,0.4817,0.4846,0.4916,0.4995,0.5047,0.5153,0.5272,0.5054,0.4925,0.4925,0.4508,0.4231,0.414,0.3987,0.3972,0.4004,0.4055,0.4099,0.4134,0.4158,0.4317,0.4535,0.4696,0.49,0.5163,0.524,0.5362,0.5542,0.5752,0.5835,0.5888,0.6105,0.0,0.0,0.0,0.0,0.0,0.0,0.0,0.0,0.0,0.0,0.0,0.0,0.0,0.0,0.0,0.0,0.0,0.0,0.0,0.0,0.0,0.0,0.0,0.0,1.1958,1.2712,1.3175,1.3435,1.3974,1.4882,1.5287,1.5665,1.6089,1.6369,1.656,1.656,1.6976,1.7301,1.7509,1.8007,1.8335,1.8389,1.8831,1.9053,1.9072,1.9283,1.9514,1.9862,2.0111,2.0298,2.04,2.0626,2.0576,2.0361,2.0361,2.0221,2.0032,1.9854,1.9736,1.9633,0.0,0.0,0.0,0.0,1.8815,1.8992,0.0,0.0,0.0,0.0,0.0,0.0,0.5561,0.5281,0.5122,0.5383,0.5374,0.5432,0.5613,0.5722,0.5639,0.5274,0.5345,0.5261,0.488,0.4979,0.5033,0.5028,0.5142,0.5276,0.5422,0.5121,0.4922,0.4791,0.4436,0.4143,0.39,0.398,0.4009,0.4028,0.4137,0.4221,0.4232,0.4292,0.4349,0.4398,0.4406,0.4675,0.512,0.5404,0.5495,0.5564,0.5835,0.5926,0.5964,0.6155,0.0,0.0,0.0,0.0,0.0,0.0,0.0,0.0,0.0,0.0,0.0,0.0,0.0,0.0,0.0,0.0,0.0,0.0,0.0,0.0,0.0,0.0,0.0,0.0,1.2587,1.3508,1.4485,1.4946,1.5228,1.5495,1.6092,1.6514,1.6677,1.7136,1.7443,1.7443,1.7877,1.8302,1.8633,1.876,0.0,0.0,0.0,2.0019,1.9793,2.0217,2.0518,2.071,2.071,2.0786,2.0942,2.0942,2.0823,2.0637,2.0637,2.0507,2.0253,2.0253,2.0113,1.9881,1.9333,1.914,1.9086,1.8907,1.9011,1.9228,0.0,0.0,0.0,0.0,0.0,0.0,0.6169,0.5982,0.5941,0.6163,0.5866,0.5691,0.5892,0.5756,0.561,0.5536,0.5555,0.5496,0.5304,0.53,0.5274,0.5159,0.5296,0.5394,0.548,0.5057,0.482,0.4791,0.4243,0.3993,0.3988,0.3999,0.4055,0.415,0.4174,0.4243,0.4294,0.4354,0.4387,0.4403,0.4447,0.4658,0.4984,0.5346,0.5564,0.5714,0.6085,0.619,0.6161,0.6172,0.6522,0.6953,0.6996,0.7302,0.0,0.0,0.0,0.0,0.0,0.0,0.0,0.0,0.0,0.0,0.0,0.0,0.0,0.0,0.0,0.0,0.0,0.0,0.0,1.2986,1.401,1.4908,1.5407,1.6169,1.6593,1.6376,1.6889,1.727,1.7304,1.7923,1.827,1.827,1.8704,1.9008,1.9086,1.9788,2.0187,2.0098,2.0557,2.0871,2.0982,2.1066,2.1201,2.1392,2.1392,0.0,2.1211,2.1211,2.1071,2.0834,2.0834,2.0705,2.0539,2.0539,2.0361,2.0091,1.9618,1.9279,1.9107,1.9064,1.9079,1.9116,0.0,0.0,0.0,0.0,0.0,0.0,0.6912,0.6634,0.6532,0.6778,0.6484,0.6338,0.6564,0.6487,0.6337,0.6212,0.5962,0.5735,0.5613,0.5669,0.5629,0.5492,0.5622,0.568,0.5643,0.5257,0.5097,0.521,0.4537,0.4244,0.4336,0.4176,0.4126,0.4218,0.4281,0.4324,0.4357,0.4414,0.4458,0.4488,0.4553,0.4635,0.4841,0.5371,0.5608,0.5712,0.6284,0.6464,0.6378,0.6366,0.671,0.7134,0.7114,0.7499,0.7943,0.0,0.0,0.0,0.0,0.0,0.0,0.0,0.0,0.0,0.0,0.0,0.0,0.0,0.0,1.1768,1.2138,0.0,1.3411,1.4008,1.4959,1.5798,1.6366,1.711,1.7496,1.7266,1.7657,1.8046,1.8267,1.8831,1.9151,1.9151,1.9825,2.0176,2.0062,2.0764,2.1058,2.0796,2.1259,2.1489,2.1441,2.1684,2.1778,2.1793,2.1674,2.1556,2.1448,2.133,2.1251,2.1093,2.1093,2.0953,2.0727,2.0647,2.0529,2.0361,2.0124,1.9811,1.9488,1.937,1.929,1.9269,0.0,0.0,0.0,0.0,0.0,0.0,0.0,0.7275,0.711,0.7346,0.7172,0.712,0.7365,0.7372,0.7241,0.6967,0.6567,0.625,0.6076,0.6137,0.6133,0.6009,0.6108,0.6078,0.5923,0.5607,0.551,0.5634,0.4971,0.469,0.4826,0.4553,0.4394,0.4356,0.4456,0.4472,0.442,0.4477,0.4564,0.4611,0.4622,0.4693,0.4872,0.5395,0.5621,0.5712,0.6446,0.6656,0.6587,0.6577,0.6938,0.7351,0.7363,0.777,0.8199,0.8035,0.8021,0.0,0.0,0.0,0.0,0.0,0.0,0.0,0.0,1.1145,1.1383,1.141,1.1946,1.2581,1.308,1.3692,1.4364,1.5021,1.584,1.6628,1.7353,1.7951,1.8367,1.8345,1.8525,1.8824,1.9185,1.9761,2.0076,2.0076,2.0939,2.1353,2.1131,2.1608,2.1771,2.1503,2.1927,2.2083,2.1809,2.2193,2.2277,2.2082,2.1846,2.1739,2.1685,2.1448,2.134,2.134,2.1338,2.1168,2.0963,2.0766,2.0669,2.0669,2.0615,2.0367,2.0,1.9725,1.9607,1.9542,0.0,0.0,0.0,0.0,0.0,0.0,0.0,0.0,0.7834,0.7973,0.7864,0.7864,0.8056,0.7981,0.7814,0.7534,0.7459,0.7314,0.7052,0.6893,0.6793,0.6772,0.6749,0.658,0.6324,0.6067,0.5843,0.5689,0.5301,0.5149,0.5224,0.5198,0.5039,0.482,0.4832,0.4698,0.4477,0.4572,0.4602,0.4613,0.4668,0.4878,0.5168,0.5554,0.5662,0.5712,0.6446,0.6615,0.6568,0.6857,0.7178,0.7541,0.7892,0.8185,0.8361,0.8367,0.8505,0.8695,0.8698,0.9232,0.9954,1.0625,1.0934,1.1213,0.0,1.1837,1.2036,1.2135,1.2877,1.3572,1.3777,1.4856,1.5887,1.623,1.7197,1.7934,1.8242,1.8828,1.9397,1.9789,1.9717,1.9671,1.9716,2.058,2.1118,2.1118,2.1611,2.1914,2.1894,2.233,2.2493,2.221,2.2648,2.2804,2.2557,2.2643,2.2525,2.2245,2.2224,2.2137,2.1963,2.1685,2.1577,2.1566,2.1362,2.1265,2.1262,2.0963,2.0867,2.0845,2.068,2.0572,2.0496,2.0221,1.9994,1.9838,0.0,0.0,0.0,0.0,0.0,0.0,0.0,0.0,0.0,0.866,0.852,0.8528,0.8813,0.876,0.8535,0.8106,0.8056,0.7958,0.7673,0.7693,0.7674,0.7541,0.7394,0.7241,0.7108,0.6808,0.6656,0.6686,0.6357,0.6136,0.6039,0.58,0.5553,0.5314,0.5356,0.5286,0.5212,0.5281,0.5312,0.5312,0.5344,0.5403,0.5542,0.5905,0.5958,0.5926,0.6496,0.6781,0.0,0.7003,0.7406,0.7894,0.8056,0.8291,0.8536,0.8666,0.8768,0.8971,0.9465,1.014,1.0785,1.1225,1.1511,1.1791,1.2033,1.2574,1.3064,1.3088,1.3836,1.4589,1.5044,1.574,1.653,1.7306,1.7996,1.8666,1.9298,2.0025,2.0603,2.1072,2.1317,2.1305,2.1031,2.1634,2.2045,2.2045,2.2546,2.2757,2.2567,2.3062,2.3225,2.2936,2.2985,2.2955,2.2902,2.2751,2.2632,2.2535,2.2353,2.2235,2.2169,2.1933,2.1749,2.1609,2.1373,2.1316,2.1305,2.1168,2.1125,2.1114,2.1057,2.0928,2.0737,2.05,2.0388,2.0302,0.0,0.0,0.0,0.0,0.0,0.0,0.0,0.0,0.0,0.0,0.9058,0.9119,0.9483,0.9518,0.9352,0.8882,0.8775,0.8672,0.8492,0.8495,0.8472,0.8369,0.8189,0.803,0.7912,0.766,0.7613,0.7736,0.7407,0.7165,0.7035,0.6654,0.6333,0.6087,0.6044,0.5973,0.589,0.5837,0.5789,0.5825,0.5934,0.5997,0.6033,0.6437,0.65,0.6455,0.6661,0.6864,0.7049,0.7224,0.7598,0.8007,0.8138,0.8342,0.8596,0.887,0.9112,0.9507,1.0315,1.0952,1.1423,1.1728,1.206,1.2435,1.275,1.3352,1.3918,1.4083,1.4783,1.552,1.6113,1.6677,1.7299,1.8233,1.88,1.9455,2.029,2.0963,2.1575,2.2047,2.2498,2.2683,2.237,2.2637,2.2821,2.2821,2.3281,2.3529,2.3304,2.3668,2.3787,2.3504,2.3332,2.3137,2.3008,2.2869,2.2751,2.2675,2.2514,2.2428,2.2374,2.218,2.19,2.1609,2.1448,2.134,2.1316,2.1316,2.1316,2.1316,2.1316,2.1168,2.0985,2.0863,2.0712,2.0604,0.0,0.0,0.0,0.0,0.0,0.0,0.0,0.0,0.0,0.0,0.0,0.0,0.0,1.025,1.024,0.9969,0.9723,0.9578,0.9641,0.9287,0.9127,0.9245,0.9134,0.8921,0.8666,0.8672,0.8636,0.8551,0.8218,0.8078,0.8161,0.7815,0.7541,0.734,0.6994,0.6686,0.6362,0.597,0.5789,0.5825,0.6224,0.6533,0.6808,0.7143,0.7335,0.7397,0.7025,0.6867,0.6906,0.749,0.7708,0.7787,0.8258,0.8388,0.8508,0.8944,0.9701,1.0512,1.1182,1.1586,1.1847,1.2196,1.2642,1.3171,1.3877,1.4152,1.4484,1.5118,1.5762,1.6309,1.6785,1.7673,1.8499,1.8995,1.9768,2.0538,2.1094,2.1565,2.2037,2.2498,2.3061,2.3383,2.3383,2.3383,2.3383,2.3383,2.3797,2.4062,2.4062,2.4097,2.3989,2.3787,2.3776,2.3504,2.3008,2.2998,2.2879,2.2686,2.2675,2.2675,2.2665,2.2428,2.202,2.162,2.1609,2.148,2.1316,2.1316,2.1316,2.1316,2.1316,2.1316,2.1305,2.1295,2.1003,2.0604,0.0,0.0,0.0,0.0,0.0,0.0,0.0,0.0,0.0,0.0,0.0,0.0,0.0,0.0,0.0,0.0,1.0191,1.0104,1.005,0.9949,0.9907,0.9909,0.9764,0.9683,0.9687,0.9387,0.9315,0.9455,0.9127,0.8939,0.8939,0.8803,0.8549,0.813,0.8024,0.78,0.7534,0.7389,0.7314,0.7258,0.7402,0.7442,0.7389,0.7431,0.7411,0.737,0.0,0.7332,0.7421,0.7644,0.7852,0.8066,0.8313,0.8546,0.888,0.9716,1.056,1.1253,1.159,1.1972,1.2422,1.3081,1.3479,1.3884,1.4548,1.5143,1.561,1.5843,1.6597,1.7293,1.7459,1.8151,1.8981,1.9923,2.0398,2.0998,2.2007,2.259,2.2969,2.3097,2.3567,2.3843,2.3843,2.3843,2.3843,2.3843,2.4026,2.4118,2.4118,2.4118,2.4075,2.3989,2.3873,2.3711,2.3515,2.3159,2.2965,2.2879,2.2762,2.2686,2.2675,2.2396,2.2116,2.1857,2.1696,2.1491,2.1316,2.1316,2.1316,2.1316,2.1316,2.1316,2.1316,2.1316,2.1219,2.1079,0.0,0.0,0.0,0.0,0.0,0.0,0.0,0.0,0.0,0.0,0.0,0.0,0.0,0.0,0.0,0.0,0.0,1.0541,1.0517,1.0474,1.0398,1.0351,1.0256,1.0244,1.0305,1.0073,1.0055,1.0299,0.9999,0.9815,0.975,0.9648,0.9377,0.9027,0.8887,0.8717,0.8576,0.8433,0.8358,0.8323,0.8384,0.8326,0.8181,0.8174,0.8067,0.0,0.8017,0.8079,0.808,0.7854,0.8038,0.8383,0.8506,0.8961,0.9594,1.0419,1.114,1.1762,1.2254,1.2671,1.317,1.3963,1.437,1.4766,1.5293,1.6,1.6534,1.6644,1.7333,1.7982,1.8157,1.8743,1.9548,2.0553,2.1055,2.166,2.2632,2.3137,2.3475,2.3613,2.3935,2.4118,2.4118,2.4118,2.4118,2.4118,2.4118,2.4118,2.4118,2.4118,2.4118,2.4118,2.3957,2.3884,2.3797,2.3451,2.317,2.3008,2.2891,2.2772,2.2675,2.2525,2.2331,2.2105,2.1857,2.162,2.1394,2.1308,2.1316,2.1316,2.1316,2.1316,2.1316,2.1316,2.1316,2.1316,0.0,0.0,0.0,0.0,0.0,0.0,0.0,0.0,0.0,0.0,0.0,0.0,0.0,0.0,0.0,0.0,0.0,0.0,1.1089,1.0854,1.069,1.0623,1.0617,1.0595,1.0531,1.0711,1.0845,1.1016,1.0804,1.0688,1.0617,1.0293,1.0114,1.0022,0.9648,0.9475,0.9446,0.9105,0.8967,0.8985,0.9171,0.9176,0.9049,0.932,0.9244,0.8994,0.8988,0.8964,0.8793,0.8183,0.8279,0.8697,0.8826,0.959,1.0543,1.1035,1.1494,1.2118,1.318,1.3698,1.4136,1.4873,1.5313,1.5719,1.6167,1.6721,1.7222,1.7482,1.7906,1.8379,1.8818,1.9491,2.0167,2.0827,2.1721,2.2509,2.2973,2.3272,2.3613,2.4072,2.4118,2.4118,2.4118,2.4118,2.4118,2.4118,2.4118,2.4118,2.4118,2.4118,2.4118,2.4118,2.4118,2.4,2.3808,2.3797,2.3515,2.3019,2.3008,2.289,2.2708,2.2686,2.2557,2.2278,2.2094,2.1846,2.1558,2.1373,2.1316,2.1316,2.1316,2.1316,2.1316,2.1316,2.1316,2.1316,0.0,0.0,0.0,0.0,0.0,0.0,0.0,0.0,0.0,0.0,0.0,0.0,0.0,0.0,0.0,0.0,0.0,0.0,1.1175,1.105,1.0977,1.0974,1.096,1.0946,1.0947,1.0797,1.0834,1.1003,1.0837,1.0807,1.0917,1.0905,1.0843,1.0656,1.0557,1.0425,1.0223,1.0122,1.0065,1.0029,1.0057,0.9863,0.9524,0.9494,0.9274,0.8982,0.894,0.8916,0.8903,0.8816,0.9068,0.9494,0.9927,1.046,1.1106,1.2026,1.2625,1.3166,1.4004,1.4471,1.4922,1.5685,1.6211,1.6703,1.7276,1.767,1.7932,1.8009,1.8273,1.8642,1.9033,1.9704,2.0518,2.156,2.2199,2.283,2.3494,2.3774,2.3981,2.4072,2.4118,2.4118,2.4118,2.4118,2.4118,2.4118,2.4118,2.4118,2.4118,2.4118,2.4118,2.4118,2.4118,2.4086,2.4021,2.3884,2.3646,2.3311,2.3094,2.2976,2.2912,2.2772,2.2557,2.2278,2.2083,2.1836,2.1558,2.1373,2.1316,2.1316,2.1316,2.1316,2.1316,2.1316,2.1316,2.1316,0.0,0.0,0.0,0.0,0.0,0.0,0.0,0.0,0.0,0.0,0.0,0.0,0.0,0.0,0.0,0.0,0.0,0.0,0.0,1.1163,1.1116,1.1107,1.1097,1.1071,1.1015,1.0912,1.0924,1.1028,1.0985,1.0987,1.1012,1.1072,1.0991,1.0801,1.0801,1.0717,1.0586,1.0681,1.0692,0.0,0.0,1.0496,1.0249,1.0129,0.9951,0.9784,0.9764,0.9818,0.9997,1.0213,1.0163,1.0194,1.1007,1.1497,1.1987,1.3,1.3559,1.4055,1.4938,1.5493,1.6011,1.6719,1.727,1.7662,1.7905,1.826,1.8488,1.8397,1.8671,1.9014,1.9429,2.0026,2.0749,2.169,2.241,2.3021,2.3558,2.3892,2.4118,2.4118,2.4204,2.4226,2.4118,2.4204,2.4226,2.4118,2.4118,2.4118,2.4118,2.4118,2.4118,2.4118,2.4118,2.4118,2.4118,2.3978,2.3784,2.3548,2.3418,2.3246,2.2998,2.2858,2.2718,2.2471,2.2234,2.1997,2.1749,2.1523,2.1373,2.1316,2.1316,2.1316,2.1316,2.1316,2.1316,2.1316,0.0,0.0,0.0,0.0,0.0,0.0,0.0,0.0,0.0,0.0,1.1554,0.0,0.0,0.0,0.0,0.0,0.0,0.0,0.0,0.0,1.12,1.1121,1.1098,1.1036,1.0923,1.1006,1.1094,1.112,1.1214,1.1191,1.1104,1.1128,1.1045,1.0884,1.0884,1.0884,1.0899,1.1065,1.1157,1.1157,1.1157,1.111,1.1049,0.0,1.0861,1.0793,1.0845,1.1024,1.1344,1.176,1.1397,1.094,1.2023,1.2575,1.304,1.4087,1.4544,1.4982,1.6037,1.6728,1.7297,1.7814,1.8339,1.8672,1.8441,1.8738,1.9024,1.8828,1.9074,1.9431,1.9836,2.0292,2.0836,2.1589,2.2449,2.3183,2.3542,2.392,2.4167,2.4199,2.4337,2.4334,2.4129,2.4301,2.4334,2.4129,2.4118,2.4118,2.4118,2.4118,2.4118,2.4118,2.4118,2.4118,2.4118,2.4118,2.4011,2.384,2.3808,2.3582,2.3094,2.303,2.289,2.2718,2.2449,2.2212,2.2039,2.1769,2.1584,2.144,2.1448,2.1478,2.1478,2.1478,2.1478,2.1478,0.0,0.0,0.0,0.0,0.0,0.0,0.0,0.0,0.0,0.0,1.2373,1.1993,0.0,0.0,0.0,0.0,0.0,0.0,0.0,0.0,0.0,1.1196,1.1125,1.1084,1.106,1.0975,1.1036,1.1255,1.1391,1.1516,1.1657,1.1831,1.1896,1.1864,1.1864,1.1864,1.1873,1.1898,1.1915,1.1915,1.1915,1.1716,1.1411,1.1379,1.1152,0.0,1.098,1.1159,1.143,1.2186,1.2316,1.2268,1.2904,1.3356,1.3897,1.5328,1.5883,1.6374,1.7785,1.8287,1.8478,1.8601,1.9274,1.9799,1.9426,1.9715,1.9959,1.9743,1.9474,1.9432,1.9817,2.0286,2.0936,2.2026,2.2818,2.3641,2.4451,2.4442,2.4426,2.4659,2.4369,2.4161,2.4118,2.4151,2.4161,2.4118,2.4118,2.4118,2.4118,2.4118,2.4118,2.4118,2.4118,2.4118,2.4118,2.4118,2.4097,2.4054,2.3884,2.3743,2.3657,2.318,2.2987,2.2922,2.2482,2.2267,2.2234,2.2218,2.2173,2.2159,2.2324,2.2366,2.2366,2.2366,2.2366,2.2366,0.0,0.0,0.0,0.0,0.0,0.0,0.0,1.3904,1.4141,1.3992,1.3684,1.3277,1.2821,1.2783,1.2686,0.0,0.0,0.0,0.0,0.0,0.0,1.1419,1.1367,1.13,1.1151,1.1051,1.1121,1.1344,0.0,1.1493,1.1713,1.1801,1.1845,1.1845,1.1845,1.1845,1.1854,1.1922,1.1938,1.1946,1.2071,1.2055,1.1972,1.1972,1.1903,0.0,1.2131,1.2286,1.2457,1.3319,1.3681,1.3872,1.426,1.4696,1.5295,1.6565,1.7052,1.7417,1.8418,1.9123,1.955,1.955,2.0258,2.0827,2.0236,2.0209,2.0262,2.0236,1.9991,1.9955,2.0565,2.0976,2.1497,2.2277,2.3044,2.3749,2.4328,2.4641,2.4868,2.4992,2.4828,2.4616,2.4485,2.4353,2.4247,2.4118,2.4118,2.4118,2.4118,2.4118,2.4118,2.4118,2.4118,2.4118,2.4118,2.4118,2.4118,2.4107,2.4,2.3916,2.3787,2.3784,2.3632,2.3381,2.34,2.3285,2.3041,2.3006,2.2962,2.2857,2.2812,2.2802,2.2779,2.2653,2.2608,2.2608,0.0,0.0,0.0,0.0,0.0,0.0,0.0,1.4626,1.4863,1.4782,1.4833,1.463,1.4013,1.3713,1.3413,0.0,0.0,0.0,0.0,0.0,0.0,0.0,0.0,0.0,1.1296,0.0,0.0,1.1486,1.1477,0.0,0.0,0.0,0.0,0.0,1.1755,1.1755,1.1773,1.1869,1.194,0.0,0.0,1.2321,1.2448,0.0,0.0,0.0,0.0,1.3358,1.3545,1.4426,1.5004,1.5381,1.586,1.6155,1.653,1.7634,1.807,1.8408,1.9264,2.003,2.0586,2.059,2.1185,2.1611,2.102,2.0724,2.0608,2.0762,2.056,2.0594,2.1242,2.1551,2.1882,2.2465,2.3193,2.3821,2.422,2.4845,2.5272,2.5317,2.5228,2.504,2.484,2.4592,2.4312,2.4129,2.4118,2.4118,2.4118,2.4118,2.4118,2.4118,2.4118,2.4118,2.4118,2.4118,2.4153,2.4245,2.4245,2.4239,2.4179,2.4496,2.4408,2.3984,2.4321,2.4221,2.3767,2.3848,2.3741,2.3617,2.3404,2.3341,2.3318,2.3121,2.2976,2.293,0.0,0.0,0.0,0.0,0.0,0.0,0.0,1.5047,1.5354,1.5107,1.5275,1.5403,1.5305,1.4449,1.3739,0.0,0.0,0.0,0.0,0.0,0.0,0.0,0.0,0.0,0.0,0.0,0.0,1.1761,1.1925,0.0,0.0,0.0,0.0,0.0,0.0,1.2327,1.2327,1.2346,0.0,0.0,0.0,0.0,0.0,0.0,0.0,0.0,0.0,1.3492,1.3925,1.5104,1.5843,1.6492,1.7659,1.7424,1.7017,1.8467,1.9034,1.9543,2.1254,2.161,2.1544,2.1799,2.19,2.1934,2.182,2.1581,2.1455,2.1625,2.1311,2.103,2.1094,2.13,2.1735,2.2634,2.3253,2.3998,2.5112,2.5394,2.5565,2.5799,2.5252,2.4851,2.4772,2.4404,2.414,2.4118,2.4118,2.4118,2.4118,2.4118,2.4118,2.4118,2.4118,2.4118,2.4118,2.4118,2.4291,2.4738,2.4738,2.5001,2.5434,2.5252,2.5001,2.4683,2.4576,2.4324,2.4104,2.4256,2.432,2.4315,2.4407,2.4465,2.4465,2.4441,2.4285,2.404,0.0,0.0,0.0,0.0,0.0,0.0,1.5053,1.5411,1.5642,1.5547,1.5796,1.5931,1.576,1.5516,1.5035,1.4289,0.0,0.0,0.0,0.0,0.0,0.0,0.0,0.0,0.0,0.0,1.191,1.2274,1.2149,0.0,0.0,0.0,0.0,0.0,0.0,1.2409,1.2409,1.2409,0.0,0.0,0.0,0.0,0.0,0.0,0.0,0.0,0.0,0.0,1.4852,1.5725,1.6342,1.6857,1.7515,1.7775,1.8096,1.9209,1.9724,2.0143,2.1276,2.1815,2.213,2.2488,2.2705,2.2771,2.2743,2.2321,2.1964,2.2121,2.1784,2.1548,2.1773,2.2023,2.2345,2.2907,2.3409,2.4023,2.4824,2.5196,2.5612,2.6017,2.5721,2.54,2.5263,2.4829,2.4382,2.4118,2.4118,2.4118,2.4118,2.4118,2.4118,2.4118,2.4382,2.4509,2.4509,2.484,2.5103,2.5286,2.5286,2.5377,2.5605,2.5775,2.5736,2.548,2.5522,2.5394,2.5134,2.5056,2.4979,2.4998,2.4861,2.4836,2.4812,2.4644,2.4523,2.4427,0.0,0.0,0.0,0.0,0.0,1.5366,1.5299,1.5573,1.5808,1.5808,1.6166,1.6344,1.6172,1.6464,1.6329,1.5407,1.5084,0.0,0.0,0.0,0.0,0.0,0.0,0.0,0.0,0.0,1.2384,1.2727,1.2467,1.2412,0.0,0.0,1.2409,1.2409,0.0,0.0,0.0,0.0,0.0,0.0,0.0,0.0,0.0,0.0,0.0,0.0,0.0,0.0,0.0,0.0,0.0,1.7323,1.7687,1.8284,1.9003,1.9618,2.017,2.0755,2.1492,2.2127,2.2686,2.3065,2.319,2.3185,2.3255,2.2757,2.2322,2.2481,2.2155,2.196,2.2259,2.2453,2.2683,2.3022,2.343,2.3897,2.4499,2.5053,2.5584,2.6158,2.6015,2.5883,2.581,2.5195,2.46,2.4153,2.4245,2.4291,2.4291,2.4474,2.4474,2.4291,2.4783,2.5058,2.5058,2.5423,2.5651,2.5788,2.5788,2.5879,2.6027,2.6345,2.634,2.6124,2.6162,2.6073,2.5764,2.5499,2.5391,2.5379,2.5198,2.5114,2.5102,2.4897,2.4776,2.4704,0.0,0.0,0.0,0.0,0.0,0.0,1.5322,1.5573,1.5808,1.5808,1.6315,1.67,1.67,1.7221,1.7357,1.682,1.5986,0.0,0.0,0.0,0.0,0.0,0.0,0.0,0.0,0.0,1.2988,1.2998,1.2935,1.2881,1.2881,1.2555,1.2409,1.2409,0.0,0.0,0.0,0.0,0.0,0.0,0.0,0.0,1.459,0.0,0.0,0.0,0.0,0.0,0.0,0.0,0.0,0.0,0.0,1.9214,1.9508,1.9601,2.04,2.1465,2.2367,2.2916,2.3348,2.3545,2.3268,2.2957,2.3149,2.276,2.2469,2.2667,2.2478,2.2296,2.2296,2.2296,2.2478,2.2997,2.3273,2.3692,2.4475,2.5053,2.5584,2.6158,2.6015,2.6018,2.6265,2.5377,2.46,2.4153,2.4509,2.4772,2.4772,2.5286,2.5332,2.4818,2.5332,2.5605,2.5605,2.5605,2.5833,2.63,2.63,2.6527,2.6981,2.6981,2.6837,2.6584,2.6295,2.6073,2.5764,2.5499,2.5391,2.5391,2.5391,2.5391,2.5391,2.5391,2.5222,2.5005,0.0,0.0,0.0,0.0,0.0,0.0,0.0,1.5828,1.5998,1.5832,1.6339,1.67,1.67,1.7235,1.7516,1.7357,1.6743,0.0,0.0,0.0,0.0,0.0,0.0,0.0,0.0,0.0,1.353,1.3472,1.3454,1.3455,1.3427,1.3344,1.3289,1.3279,1.3103,1.3071,0.0,0.0,0.0,0.0,0.0,1.4888,1.5275,0.0,0.0,0.0,0.0,0.0,0.0,0.0,0.0,0.0,0.0,0.0,0.0,1.9768,2.0533,2.1548,2.2331,2.2758,2.3157,2.3742,2.3627,2.3435,2.3579,2.3233,2.2855,2.2705,2.2478,2.2296,2.2296,2.2296,2.2478,2.2997,2.3155,2.3514,2.4492,2.4728,2.5174,2.6109,2.6169,2.6206,2.6288,2.5696,2.5286,2.516,2.524,2.5332,2.5332,2.5788,2.5833,2.5377,2.5833,2.6061,2.6061,2.6391,2.6618,2.68,2.68,2.6845,2.6981,2.6981,2.6933,2.6849,2.6584,2.6307,2.6029,2.5764,2.556,2.5391,2.5391,2.5391,2.5391,2.5391,2.5343,2.527,0.0,0.0,0.0,0.0,0.0,0.0,0.0,1.6104,1.6234,1.5998,1.6462,1.6814,1.67,1.7235,1.7608,1.7608,1.7291,0.0,0.0,0.0,0.0,0.0,0.0,0.0,0.0,1.4281,1.4126,1.4184,1.3964,1.3912,1.3994,1.3882,1.3798,1.3826,1.3628,1.3623,0.0,0.0,0.0,0.0,1.5255,1.5561,1.5946,0.0,0.0,0.0,0.0,0.0,0.0,0.0,0.0,0.0,0.0,0.0,0.0,0.0,2.0799,2.1528,2.2047,2.2565,2.3095,2.3542,2.3551,2.3401,2.3375,2.3179,2.2864,2.2598,2.2417,2.2296,2.2296,2.2296,2.2478,2.2997,2.3082,2.3457,2.448,2.4583,2.4981,2.6054,2.6432,2.6482,2.63,2.6027,2.5788,2.5605,2.5742,2.5879,2.5879,2.63,2.6436,2.6163,2.6391,2.6573,2.6573,2.6845,2.6981,2.6981,2.6981,2.6981,2.6981,2.6981,2.6981,2.6969,2.6704,2.6439,0.0,2.5897,2.5632,2.5391,2.5391,2.5391,2.5391,2.5391,2.5391,2.5391,0.0,0.0,0.0,0.0,0.0,0.0,0.0,1.6372,1.6518,1.6272,1.6744,1.7039,1.6775,1.7286,1.7635,1.7635,0.0,0.0,0.0,0.0,0.0,0.0,0.0,0.0,0.0,1.4847,1.4799,1.5016,1.4512,1.4389,1.4618,1.4287,1.4127,1.4127,1.4106,1.4305,0.0,0.0,0.0,0.0,1.6016,1.6283,0.0,0.0,0.0,0.0,0.0,0.0,0.0,0.0,0.0,0.0,0.0,0.0,0.0,0.0,0.0,0.0,0.0,2.2369,2.3097,2.3121,2.3082,2.301,2.2744,2.2695,0.0,2.2357,2.2296,2.2296,2.2296,2.232,2.249,2.3036,2.3118,2.3493,2.448,2.4656,2.5077,2.6134,2.6668,2.6845,2.6391,2.6345,2.6163,2.5742,2.6118,2.6345,2.6345,2.6755,2.6981,2.6981,2.6981,2.6981,2.6981,2.6981,2.6981,2.6981,2.6981,2.6981,2.6981,2.6981,2.6981,2.6969,2.6728,2.6451,2.6194,2.5909,2.5644,2.5391,2.5391,2.5391,2.5391,2.5391,2.5391,2.5391,0.0,0.0,0.0,0.0,0.0,0.0,0.0,0.0,0.0,0.0,1.7023,1.7374,1.7324,1.7673,1.7911,0.0,0.0,0.0,0.0,0.0,0.0,0.0,0.0,0.0,0.0,1.5634,1.5498,1.5308,1.5581,1.5737,1.5793,1.5477,1.5304,1.5293,1.5148,1.5341,0.0,0.0,0.0,0.0,1.6367,1.6449,0.0,0.0,0.0,0.0,1.7474,1.7857,0.0,0.0,0.0,0.0,0.0,0.0,0.0,0.0,2.0773,2.1268,2.1462,0.0,2.2828,2.3034,2.3082,2.301,0.0,2.2695,2.2611,2.2357,2.2296,2.2296,2.2296,2.2465,2.2707,2.3072,2.3393,2.3848,2.4499,2.5325,2.5969,2.6439,2.6789,2.6936,2.6845,2.6845,2.68,2.6664,2.6755,2.6845,2.6845,2.6936,2.6981,2.6981,2.6981,2.6981,2.6981,2.6981,2.6981,2.6981,2.6981,2.6981,2.6981,2.6981,2.6981,2.6981,2.6921,2.662,2.6218,2.6114,2.5813,2.5391,2.5391,2.5391,2.5391,2.5391,2.5391,2.5391,0.0,0.0,0.0,0.0,0.0,0.0,0.0,0.0,0.0,0.0,0.0,1.7637,1.7498,1.7904,0.0,0.0,0.0,0.0,0.0,0.0,0.0,0.0,0.0,1.6573,1.6255,1.6157,1.6046,1.5946,1.6121,1.6258,1.6343,1.6157,1.6069,1.6069,1.5934,1.6073,0.0,0.0,0.0,1.6714,1.6714,0.0,0.0,0.0,0.0,0.0,1.7851,1.8134,0.0,1.8935,1.92,1.9352,0.0,0.0,0.0,0.0,2.1061,2.1643,2.194,2.2166,2.2393,2.2659,2.2719,2.2683,2.2538,2.2514,2.2478,2.2332,2.2393,2.2478,2.2478,2.2695,2.2997,2.3345,2.3619,2.4077,2.4849,2.5656,2.6283,2.656,2.6825,2.6981,2.6981,2.6981,2.6981,2.6981,2.6981,2.6981,2.6981,2.6981,2.6981,2.6981,2.6981,2.6981,2.6981,2.6981,2.6981,2.6981,2.6981,2.6981,2.6981,2.6981,2.6981,2.6981,2.6981,2.6725,2.6218,2.6218,2.5861,2.5391,2.5391,2.5391,2.5391,2.5391,2.5391,2.5391,0.0,0.0,0.0,0.0,0.0,0.0,0.0,0.0,0.0,0.0,0.0,0.0,0.0,0.0,0.0,0.0,0.0,0.0,0.0,0.0,0.0,0.0,0.0,1.7141,1.6829,1.6615,1.659,1.6824,1.6582,1.6558,1.677,1.6711,1.6688,1.6654,1.659,1.6596,0.0,0.0,1.6803,1.7079,1.7079,0.0,0.0,0.0,0.0,0.0,0.0,0.0,0.0,1.9062,1.9424,1.9679,1.9679,0.0,0.0,0.0,0.0,0.0,2.2523,2.232,2.2068,2.2335,2.2334,2.2308,2.2345,2.2357,2.2369,2.2405,2.2636,2.2858,2.2858,2.3113,2.3438,2.3847,2.3985,2.4391,2.5379,2.5933,2.6343,2.662,2.6885,2.703,2.6994,2.7018,2.703,2.6994,2.6981,2.6981,2.6981,2.6981,2.6981,2.6981,2.6981,2.6981,2.6981,2.6981,2.6981,2.6981,2.6981,2.6981,2.6981,2.6981,2.6981,2.6981,2.6981,2.6725,2.6218,2.6262,2.6003,2.5519,2.5604,2.5604,2.5604,2.5604,2.5604,2.5604,0.0,0.0,0.0,0.0,0.0,0.0,0.0,0.0,0.0,0.0,0.0,0.0,0.0,0.0,0.0,0.0,0.0,0.0,0.0,0.0,0.0,1.8292,1.7808,1.7497,1.7467,1.7431,1.7518,1.7793,1.7677,1.7781,1.8014,1.7728,1.7488,1.7248,1.7026,1.7079,1.7332,0.0,1.7361,1.742,1.742,0.0,0.0,0.0,0.0,0.0,0.0,0.0,0.0,1.9758,1.9979,2.0011,2.0011,0.0,0.0,0.0,0.0,0.0,2.2472,2.2542,2.2549,2.2769,2.2558,2.2357,2.2574,2.2635,2.2695,2.2913,2.3267,2.3561,2.3561,2.3943,2.4313,2.44,2.4807,2.5367,2.5969,2.6331,2.6632,2.6897,2.7162,2.7235,2.7006,2.7232,2.7222,2.7006,2.6981,2.6981,2.6981,2.6981,2.6981,2.6981,2.6981,2.6981,2.6981,2.6981,2.6981,2.6981,2.6981,2.6981,2.6981,2.6981,2.6981,2.6981,2.6981,2.6725,2.6218,2.6626,2.6469,2.6018,2.6443,2.6583,2.6583,2.6583,2.6583,2.6583,0.0,0.0,0.0,0.0,0.0,0.0,0.0,0.0,0.0,0.0,0.0,0.0,0.0,0.0,0.0,0.0,0.0,0.0,0.0,0.0,0.0,1.871,1.8618,1.8393,1.8032,1.8207,1.8364,1.8479,1.8594,1.8611,1.8564,1.8226,1.7929,1.7667,1.7548,1.7493,1.7508,1.7508,1.7608,1.7755,0.0,0.0,0.0,0.0,0.0,0.0,0.0,0.0,0.0,0.0,2.0234,2.0361,2.0361,0.0,0.0,0.0,0.0,0.0,2.3111,2.309,2.3042,2.3614,2.3254,2.2764,2.2697,2.2804,2.3014,2.3367,2.378,2.4226,2.4448,2.4954,2.5392,2.5694,2.5875,2.6178,2.6717,2.6811,2.6909,2.7162,2.7473,2.7582,2.7461,2.7391,2.7377,2.7256,2.7066,2.6981,2.6981,2.6981,2.6981,2.6981,2.6981,2.7118,2.7377,2.7377,2.7254,2.6981,2.6981,2.6981,2.7027,2.7254,2.7377,2.7377,2.7661,2.7487,2.6965,2.7184,2.6946,2.6486,2.6698,2.6796,2.6796,2.6796,2.6796,2.6838,0.0,0.0,0.0,0.0,0.0,0.0,0.0,0.0,0.0,0.0,0.0,0.0,0.0,0.0,0.0,0.0,0.0,0.0,0.0,0.0,1.9104,1.9104,1.9431,1.9324,1.8742,1.8887,1.9066,1.9189,1.9333,1.9302,1.9087,1.8779,1.8508,1.8331,1.8269,1.8093,1.7939,1.7939,1.8057,1.8306,0.0,0.0,0.0,0.0,0.0,0.0,0.0,0.0,0.0,0.0,0.0,0.0,0.0,0.0,0.0,2.2203,2.2627,2.3131,2.3678,2.359,2.355,2.4304,2.3934,2.3328,2.3184,2.3391,2.3716,2.4051,2.4621,2.512,2.5468,2.5982,2.6505,2.694,2.6926,2.7016,2.7501,2.7497,2.754,2.7808,2.8065,2.8211,2.8138,2.7955,2.7762,2.7609,2.7457,2.7299,2.7163,2.7299,2.7344,2.7344,2.7344,2.7525,2.7875,2.7875,2.7694,2.7344,2.7344,2.7344,2.7344,2.7739,2.7875,2.792,2.8339,2.8182,2.7711,2.7735,2.746,2.7055,2.7105,2.7122,2.7122,2.7122,2.7122,2.7177,0.0,0.0,0.0,0.0,0.0,0.0,0.0,0.0,0.0,0.0,0.0,0.0,0.0,0.0,0.0,0.0,0.0,0.0,0.0,0.0,1.9744,1.9744,2.0062,2.0069,1.9723,1.9423,1.9546,2.012,1.9822,1.9776,2.0011,1.9732,1.9592,1.9567,1.9313,1.9186,1.916,1.916,1.9191,1.9221,1.9221,0.0,0.0,0.0,0.0,0.0,0.0,0.0,0.0,0.0,0.0,0.0,0.0,0.0,2.2525,2.2846,2.316,2.344,2.3713,2.3768,2.3874,2.4378,2.4173,2.396,2.4429,2.4811,2.513,2.541,2.5974,2.6453,2.6494,2.6976,2.7434,2.76,2.7813,2.8106,2.8366,2.8645,2.8866,2.9145,2.9424,2.9487,2.9234,2.9196,2.8884,2.8207,2.8309,2.8158,2.7694,2.8113,2.8384,2.8384,2.8384,2.8384,2.8429,2.8429,2.8429,2.8384,2.8384,2.8384,2.8384,2.8429,2.8429,2.8429,2.8474,2.8309,2.8061,2.8176,2.8065,2.7852,2.8045,2.8108,2.8108,2.8108,2.8108,2.8094,0.0,0.0,0.0,0.0,0.0,0.0,0.0,0.0,0.0,0.0,0.0,0.0,0.0,0.0,0.0,0.0,0.0,0.0,0.0,1.9779,2.0046,2.0046,2.0358,2.067,2.0978,2.0449,2.0469,2.1074,2.0894,2.0747,2.0651,2.0342,2.0005,1.9692,1.959,1.945,1.9315,1.9315,1.9407,1.9602,1.9602,1.9724,0.0,0.0,0.0,0.0,0.0,0.0,0.0,0.0,2.174,2.1782,2.2258,2.2595,2.2887,2.3206,2.3545,2.3818,2.4067,2.4123,2.4273,2.4927,2.5147,2.5191,2.502,2.526,2.5581,2.6107,2.6739,2.7336,2.8,2.8294,2.8542,2.8763,2.8655,2.8698,2.9119,2.9154,2.925,2.953,2.9797,2.9924,2.9822,2.9505,2.9158,2.8917,2.8638,2.8429,2.8204,2.8384,2.8474,2.8474,2.8474,2.8655,2.8912,2.8912,2.9105,2.9375,2.879,2.8474,2.852,2.879,2.8912,2.897,2.924,2.9217,2.8973,2.8802,2.8555,2.8307,2.8214,2.8179,2.8179,2.8179,2.8179,2.8179,0.0,0.0,0.0,0.0,0.0,0.0,0.0,0.0,0.0,0.0,0.0,0.0,0.0,0.0,0.0,0.0,0.0,0.0,1.9298,1.9859,2.021,2.021,2.0627,2.1176,2.1841,2.1314,2.1299,2.191,2.1835,2.1667,2.1356,2.1,2.058,2.0146,2.0146,2.0042,1.9892,1.9984,2.0169,2.0367,2.049,2.0631,0.0,0.0,0.0,0.0,0.0,0.0,0.0,0.0,2.2174,2.2346,2.2783,2.3093,2.3403,2.3713,2.4071,2.4321,2.4468,2.4545,2.4748,2.5491,2.5914,2.6095,2.6012,2.6216,2.657,2.7,2.7554,2.8205,2.8998,2.9179,2.9272,2.9579,2.9353,2.9288,2.9774,2.9814,2.9868,3.0152,3.0437,3.0566,3.0488,3.0049,2.968,2.9405,2.9105,2.888,2.8745,2.8835,2.8925,2.8925,2.8925,2.9105,2.9407,2.9407,2.9599,2.9869,2.924,2.8925,2.8925,2.9285,2.9407,2.9451,2.9779,2.9806,2.9593,2.9299,2.8951,2.8577,2.8312,2.8179,2.8179,2.8179,2.8179,2.8234,0.0,0.0,0.0,0.0,0.0,0.0,0.0,0.0,0.0,0.0,0.0,0.0,0.0,0.0,0.0,0.0,0.0,0.0,1.9298,1.9859,2.021,2.021,2.0839,2.1511,2.2199,2.1869,2.2025,2.2612,2.253,2.2353,2.2098,2.1789,2.1435,2.1109,2.1109,2.1109,2.1141,2.1457,2.1614,2.1646,2.1978,2.2104,0.0,0.0,0.0,0.0,0.0,0.0,0.0,0.0,2.2346,2.2718,2.34,2.3845,2.4161,2.4443,2.4724,2.497,2.4933,2.5049,2.5376,2.594,2.627,2.6627,2.7509,2.7978,2.8192,2.8192,2.8631,2.9095,2.9432,2.9486,2.9579,2.9873,2.9913,3.002,3.036,3.0654,3.0902,3.1183,3.1476,3.1591,3.1249,3.0955,3.0478,2.9671,2.9803,2.9689,2.9227,2.9644,2.9913,2.9913,2.9913,2.9913,2.9913,2.9913,2.9913,2.9913,2.9913,2.9913,2.9913,2.9913,2.9913,2.9913,2.9913,2.9913,2.9887,2.9606,2.9138,2.8577,2.8312,2.8234,2.8234,2.8234,2.8234,2.8317,0.0,0.0,0.0,0.0,0.0,0.0,0.0,0.0,0.0,0.0,0.0,0.0,0.0,0.0,0.0,0.0,0.0,0.0,1.9298,1.9859,2.021,2.021,2.0839,2.1511,2.2199,2.2735,2.2901,2.2612,2.279,2.2823,2.2725,2.2628,2.2443,2.2153,2.2153,2.2028,2.1803,2.1929,2.1947,2.1961,2.2041,2.2104,2.2104,0.0,0.0,0.0,0.0,0.0,0.0,0.0,0.0,0.0,2.4178,2.4535,2.4841,2.4897,2.5149,2.5351,2.5284,2.5625,2.6084,2.6315,2.6777,2.7418,2.8315,2.8377,2.8366,2.8995,2.9481,2.9917,3.0216,3.0537,3.0773,3.087,3.0884,3.0994,3.1343,3.1467,3.1587,3.1859,3.1969,3.1996,3.19,3.1336,3.089,3.0659,3.0479,3.0303,3.0169,3.0616,3.0884,3.0884,3.0884,3.0884,3.0884,3.0884,3.0884,3.0884,3.0884,3.0526,2.9913,2.9913,2.9913,2.9913,3.0272,3.0392,3.0423,3.0478,3.0127,2.956,2.9506,2.934,2.9104,2.9104,2.9242,2.9492,0.0,0.0,0.0,0.0,0.0,0.0,0.0,0.0,0.0,0.0,0.0,0.0,0.0,0.0,0.0,0.0,0.0,0.0,0.0,1.9999,2.0269,2.04,2.0897,2.1511,2.2199,2.2988,2.3209,2.2797,2.3077,2.3224,2.3224,2.3061,2.293,2.2794,2.2794,2.2612,2.2332,2.2458,2.2405,2.2324,2.2574,2.2699,2.2699,0.0,0.0,0.0,0.0,0.0,0.0,0.0,0.0,0.0,2.489,2.5236,2.5471,2.533,2.5613,2.5937,2.5873,2.6293,2.6808,2.7133,2.7703,2.8385,2.9464,2.9486,2.9462,3.0087,3.0444,3.0663,3.0842,3.1106,3.1315,3.1315,3.1315,3.1385,3.1581,3.1707,3.1861,3.2012,3.2151,3.2179,3.2053,3.1631,3.1329,3.1173,3.098,3.0884,3.0884,3.1151,3.1315,3.1315,3.1315,3.1315,3.1315,3.1315,3.1315,3.1315,3.1315,3.1017,3.0437,3.0437,3.0437,3.0482,3.075,3.0884,3.0856,3.0905,3.0617,3.0154,3.0042,2.9874,2.9705,2.9705,2.9916,3.0239,0.0,0.0,0.0,0.0,0.0,0.0,0.0,0.0,0.0,0.0,0.0,0.0,0.0,0.0,0.0,0.0,0.0,0.0,0.0,0.0,2.0384,2.0678,2.1086,2.1569,2.2199,2.2784,2.3106,2.3106,2.3339,2.3526,2.363,2.3257,2.314,2.3248,2.3248,2.3079,2.2801,2.306,2.3047,2.2837,2.3401,2.3635,2.3666,2.3991,0.0,0.0,0.0,0.0,0.0,0.0,0.0,0.0,2.5568,2.5889,2.6078,2.5805,2.6169,2.6633,2.6599,2.7026,2.7607,2.8214,2.8795,2.9579,3.0702,3.1041,3.1167,3.1301,3.1357,3.1416,3.1416,3.146,3.1491,3.1463,3.1449,3.1449,3.1449,3.1702,3.1884,3.1884,3.2092,3.2162,3.1912,3.1839,3.1668,3.1388,3.136,3.136,3.136,3.1404,3.1449,3.1449,3.1449,3.1449,3.1449,3.1449,3.1449,3.1449,3.1449,3.1449,3.1418,3.1315,3.1315,3.136,3.136,3.1404,3.1435,3.1153,3.0858,3.0549,3.031,3.0184,3.0156,3.0156,3.0367,3.0763,0.0,0.0,0.0,0.0,0.0,0.0,0.0,0.0,0.0,0.0,0.0,0.0,0.0,0.0,0.0,0.0,0.0,0.0,0.0,0.0,2.0562,2.0678,2.1525,2.2037,2.2214,2.2784,2.3106,2.3106,2.3158,2.3446,2.3988,2.3891,2.4021,2.4268,2.4268,2.4243,2.4163,2.3961,2.4004,2.4167,2.4035,2.3976,2.4007,2.4069,2.4115,0.0,0.0,0.0,0.0,0.0,0.0,0.0,2.5974,2.6253,2.6545,2.6469,2.6698,2.7049,2.7296,2.7992,2.863,2.8608,2.9653,3.0823,3.1337,3.2101,3.252,3.1814,3.2008,3.2247,3.2247,3.2561,3.2743,3.2497,3.2498,3.2498,3.2498,3.2556,3.2555,3.2555,3.2627,3.2642,3.2614,3.2199,3.1948,3.1832,3.1877,3.1877,3.1877,3.2232,3.2498,3.2498,3.2498,3.2498,3.2498,3.2498,3.2498,3.2498,3.2498,3.2498,3.2454,3.164,3.1507,3.1877,3.1877,3.2099,3.2498,3.2425,3.2208,3.1903,3.1845,3.1656,3.1395,3.1395,3.1641,3.1932,0.0,0.0,0.0,0.0,0.0,0.0,0.0,0.0,0.0,0.0,0.0,0.0,0.0,0.0,0.0,0.0,0.0,0.0,0.0,0.0,2.069,2.094,2.1745,2.2214,2.2214,2.2784,2.3168,2.3324,2.3324,2.36,2.4118,2.4281,2.4597,2.5104,2.5238,2.5225,2.5058,2.4711,2.4581,2.4589,2.4408,2.4332,2.4363,2.4518,2.4672,2.4826,0.0,0.0,0.0,0.0,0.0,0.0,0.0,0.0,2.7181,2.7173,2.7276,2.7496,2.7979,2.8552,2.9151,2.9795,3.0688,3.1541,3.2062,3.2717,3.311,3.2758,3.2892,3.3073,3.3073,3.3254,3.3333,3.3056,3.2997,3.2939,3.2837,3.2822,3.2822,3.2822,3.2822,3.2822,3.2822,3.2542,3.2365,3.2365,3.2365,3.2365,3.2365,3.2645,3.2822,3.2822,3.2822,3.2822,3.2822,3.2822,3.2822,3.2822,3.2822,3.2822,3.2778,3.2276,3.2143,3.2365,3.2365,3.2542,3.2822,3.2822,3.2573,3.228,3.228,3.2178,3.2032,3.2032,3.2237,3.2558,0.0,0.0,0.0,0.0,0.0,0.0,0.0,0.0,0.0,0.0,0.0,0.0,0.0,0.0,0.0,0.0,0.0,0.0,0.0,0.0,0.0,2.1332,2.1921,2.2304,2.2363,2.2893,2.3358,2.3712,2.3712,2.3884,2.4281,2.4573,2.503,2.5693,2.5977,2.5977,2.5753,2.5417,2.5144,2.4918,2.4891,2.4873,2.4888,2.5165,2.5441,2.5672,0.0,0.0,2.6745,2.7156,0.0,0.0,0.0,0.0,2.7814,2.7866,2.7876,2.8033,2.8702,2.9109,2.9718,3.1069,3.1677,3.2103,3.2676,3.3056,3.3362,3.3625,3.3727,3.3771,3.3771,3.3771,3.364,3.326,3.3201,3.3084,3.2866,3.2822,3.2822,3.2822,3.2822,3.2822,3.2822,3.2822,3.2822,3.2822,3.2822,3.2822,3.2822,3.2822,3.2822,3.2822,3.2822,3.2822,3.2822,3.2822,3.2822,3.2822,3.2822,3.2822,3.2822,3.2822,3.2822,3.2822,3.2822,3.2822,3.2822,3.2822,3.2661,3.2368,3.2368,3.2368,3.2368,3.2368,3.2544,3.2822,0.0,0.0,0.0,0.0,0.0,0.0,0.0,0.0,0.0,0.0,2.0899,0.0,0.0,0.0,0.0,0.0,0.0,0.0,0.0,0.0,0.0,2.1974,2.2338,2.2687,2.2975,2.3323,2.3688,2.4022,2.4022,2.4357,2.4961,2.4994,2.5391,2.6045,2.6078,2.6282,2.6539,2.6116,2.6131,2.6327,2.6037,2.5884,2.5884,2.5945,2.5992,2.6055,2.6368,0.0,2.7156,2.752,2.7883,0.0,0.0,0.0,2.8262,2.8574,2.8663,2.8785,2.9412,3.0236,3.1067,3.1649,3.2144,3.249,3.2749,3.3232,3.364,3.3684,3.3903,3.4154,3.4154,3.4154,3.3903,3.3304,3.3201,3.3084,3.2866,3.2822,3.2822,3.2822,3.2822,3.2822,3.2822,3.2822,3.2822,3.2822,3.2822,3.2822,3.2822,3.2822,3.2822,3.2822,3.2822,3.2822,3.2822,3.2822,3.2822,3.2822,3.2822,3.2822,3.2822,3.2822,3.2822,3.2822,3.2822,3.2822,3.2822,3.2822,3.2793,3.2749,3.2749,3.2749,3.2749,3.2749,3.2778,3.2822,0.0,0.0,0.0,0.0,0.0,0.0,0.0,0.0,0.0,0.0,0.0,2.0899,0.0,0.0,0.0,0.0,0.0,0.0,0.0,0.0,0.0,2.2116,2.2408,2.2758,2.3094,2.3444,2.3856,2.4394,2.4579,2.5029,2.5735,2.5906,2.6151,2.6432,2.6633,2.6934,2.7235,2.6885,2.6906,2.7164,2.6623,2.6374,2.6364,2.618,2.6321,2.6691,2.6827,2.7418,2.813,2.8249,2.8553,2.8856,2.8856,0.0,0.0,0.0,2.9089,2.9249,3.0107,3.0738,3.1345,3.1865,3.2474,3.2946,3.3212,3.3516,3.3812,3.3812,3.3998,3.4271,3.4461,3.449,3.4285,3.3581,3.3464,3.3334,3.2837,3.2822,3.2822,3.2822,3.2822,3.2822,3.2822,3.2822,3.2822,3.2822,3.2822,3.2822,3.2822,3.2822,3.2822,3.2822,3.2822,3.2822,3.2822,3.2822,3.2822,3.2822,3.2822,3.2822,3.2822,3.2822,3.2822,3.2822,3.2822,3.2822,3.2822,3.2822,3.2822,3.2822,3.2822,3.2822,3.2822,3.2822,3.2822,3.2822,0.0,0.0,0.0,0.0,0.0,0.0,0.0,0.0,0.0,0.0,0.0,0.0,0.0,0.0,0.0,0.0,0.0,0.0,0.0,0.0,0.0,2.2343,2.259,2.2854,2.3193,2.3546,2.4067,2.4731,2.5046,2.566,2.6472,2.6713,2.695,2.7227,2.7299,2.7582,2.7963,2.7621,2.7605,2.7781,2.725,2.7,2.6977,2.6741,2.6932,0.0,0.0,2.8067,2.8802,2.8888,2.9093,2.9316,2.9316,2.9119,0.0,0.0,0.0,2.9796,3.0727,3.1182,3.1543,3.2144,3.2673,3.3214,3.3533,3.3762,3.3948,3.3888,3.4109,3.4306,3.4417,3.4534,3.4402,3.3786,3.3611,3.3407,3.2851,3.2822,3.2822,3.2822,3.2822,3.2822,3.2822,3.2822,3.2822,3.2822,3.2822,3.2822,3.2822,3.2822,3.2822,3.2822,3.2822,3.2822,3.2822,3.2822,3.2822,3.2822,3.2822,3.2822,3.2822,3.2822,3.2822,3.2822,3.2822,3.2822,3.2822,3.2822,3.2822,3.2822,3.2822,3.2822,3.2808,3.294,3.2984,3.2984,0.0,0.0,0.0,0.0,0.0,0.0,0.0,0.0,0.0,0.0,0.0,0.0,0.0,0.0,2.2044,2.2295,2.2097,2.2096,2.2434,2.2787,2.2965,2.2965,2.2981,0.0,2.3475,2.3882,2.441,2.5062,2.5404,2.6124,2.7158,2.7174,2.7719,2.8673,2.7962,2.8078,2.8724,2.8395,2.8228,2.8154,2.812,2.8126,2.8089,2.8103,2.812,2.8171,2.8548,2.8751,2.8869,2.9179,2.9299,2.9316,2.9316,2.9283,2.9283,0.0,0.0,0.0,3.1234,3.17,3.2075,3.2714,3.2846,3.2964,3.3469,3.3842,3.406,3.3933,3.4142,3.4259,3.3819,3.399,3.4139,3.3742,3.3421,3.3114,3.2822,3.2822,3.2822,3.2822,3.2822,3.2822,3.2822,3.2822,3.2822,3.2822,3.2822,3.2822,3.2822,3.2822,3.2822,3.2822,3.2822,3.2822,3.2822,3.2822,3.2822,3.2822,3.2822,3.2822,3.2822,3.2822,3.2822,3.2822,3.2822,3.2822,3.2822,3.2822,3.2822,3.2822,3.2822,3.2822,3.2866,3.3293,3.347,3.3514,0.0,0.0,0.0,0.0,0.0,0.0,0.0,0.0,0.0,0.0,0.0,0.0,0.0,2.2628,2.2628,2.2708,2.2814,2.2955,2.3086,2.3373,2.3585,2.3585,2.3585,2.3861,2.4447,2.4607,2.5024,2.5734,2.6064,2.6569,2.7189,2.7404,2.8113,2.9177,2.8642,2.8709,2.9177,2.9077,2.8958,2.8898,2.866,2.8586,2.8577,2.8289,2.8357,2.8597,2.8766,2.8922,2.9145,2.9265,2.9316,2.9316,2.9316,2.9316,2.9367,2.9607,2.9868,3.0218,3.0983,3.1568,3.2103,3.2592,3.3194,3.3695,3.3854,3.4084,3.4216,3.4165,3.4375,3.4487,3.4307,3.4049,3.3757,3.3421,3.3274,3.3084,3.2866,3.2822,3.2896,3.3205,3.3249,3.3382,3.3646,3.369,3.369,3.369,3.369,3.369,3.369,3.369,3.369,3.369,3.3426,3.3117,3.2822,3.2822,3.2822,3.2822,3.2822,3.2822,3.2822,3.2822,3.2822,3.2822,3.2822,3.2822,3.2822,3.2822,3.2984,3.3249,3.3249,3.3426,3.3734,3.391,3.3954,3.3954,0.0,0.0,0.0,0.0,0.0,0.0,0.0,0.0,0.0,0.0,0.0,0.0,0.0,0.0,2.3249,2.3249,2.3436,2.3585,2.3585,2.3789,2.3893,2.3893,2.4036,2.4317,2.4825,2.506,2.5512,2.6097,2.6449,2.6913,2.7539,2.7773,2.8472,2.9546,2.9278,2.9329,2.9546,2.9411,2.934,2.9299,2.9059,2.9042,2.9128,2.8871,2.9008,2.9333,2.9333,2.9487,2.9693,2.9693,2.9693,2.9693,2.9693,2.9607,2.959,2.9967,3.0089,3.0257,3.1137,3.1588,3.1994,3.2645,3.3214,3.3692,3.4018,3.4167,3.4265,3.4267,3.4399,3.4489,3.4479,3.4157,3.3813,3.3709,3.3591,3.3457,3.3279,3.3249,3.3382,3.369,3.3734,3.3866,3.4174,3.4218,3.4218,3.4218,3.4218,3.4218,3.4218,3.4218,3.4218,3.4218,3.391,3.3602,3.3249,3.3249,3.3249,3.3249,3.3249,3.3249,3.3249,3.3249,3.3249,3.3249,3.3249,3.3161,3.3029,3.3029,3.3293,3.3734,3.3734,3.391,3.4218,3.4393,3.4437,3.4452,0.0,0.0,0.0,0.0,0.0,0.0,0.0,0.0,0.0,0.0,0.0,0.0,0.0,0.0,0.0,2.3954,2.3954,2.3954,2.3954,2.3954,2.3954,2.3954,2.4341,2.4551,2.4568,2.5251,2.5794,2.6122,2.6463,2.7156,2.8169,2.8186,2.8785,2.9864,2.9881,2.9881,2.9864,2.9487,2.9333,2.9333,2.9333,2.9573,2.9915,2.9915,3.0138,3.0395,3.0395,3.0395,3.0395,3.0395,3.0395,3.0395,3.0395,3.0189,2.9984,3.0292,3.0412,3.0652,0.0,0.0,0.0,3.289,3.2892,3.289,3.388,3.4099,3.4134,3.4267,3.4314,3.4309,3.4229,3.4202,3.4309,3.4601,3.4387,3.4218,3.4218,3.4218,3.4218,3.4218,3.4218,3.4218,3.4261,3.4261,3.4261,3.4261,3.4261,3.4261,3.4261,3.4261,3.4218,3.4218,3.4218,3.4218,3.4218,3.4218,3.4218,3.4218,3.4218,3.4218,3.4218,3.4218,3.4218,3.4218,3.4218,3.3954,3.3558,3.3514,3.3778,3.4218,3.4218,3.4218,3.4305,3.4744,3.4934,3.5025,0.0,0.0,0.0,0.0,0.0,0.0,2.5297,0.0,0.0,0.0,0.0,0.0,0.0,0.0,2.533,2.533,2.533,2.533,2.533,2.533,2.533,2.533,2.5461,2.5647,2.5931,2.6152,2.6449,2.6828,2.6931,2.7251,2.7775,2.8066,2.8511,2.9093,2.935,2.947,2.9487,2.9658,2.9744,2.9744,2.9744,2.995,3.0241,3.0241,3.0309,3.0395,3.0395,3.0395,3.0395,3.0395,3.0395,3.0395,3.0395,3.0327,3.0275,3.0361,3.06,3.0891,3.1199,0.0,0.0,0.0,0.0,0.0,3.3681,3.3965,3.4089,3.4132,3.4302,3.4507,3.4725,3.4788,3.4914,3.5259,3.4674,3.4218,3.4218,3.4218,3.4305,3.4656,3.47,3.4831,3.5181,3.5225,3.5225,3.5225,3.5225,3.5225,3.5225,3.5225,3.505,3.47,3.47,3.4525,3.4218,3.4218,3.4218,3.4218,3.4218,3.4218,3.4218,3.4218,3.4218,3.4218,3.4218,3.4305,3.4481,3.413,3.4261,3.47,3.47,3.4919,3.5225,3.5355,3.5557,3.5794,0.0,0.0,0.0,0.0,0.0,2.5686,2.5879,2.5914,0.0,0.0,0.0,0.0,0.0,0.0,0.0,2.6153,2.6136,2.6068,2.5914,2.5914,2.5914,2.5914,2.605,2.6268,2.6473,2.6645,2.688,2.7103,2.7103,2.7261,2.7604,2.7843,2.8237,2.8817,2.8991,2.9179,2.9333,2.9556,2.9744,2.9898,2.9898,3.0206,3.0652,3.084,3.0994,3.1131,3.1319,3.1371,3.1371,3.1371,3.1268,3.1079,3.096,3.0806,3.0634,3.0634,3.084,3.1046,3.12,3.1559,3.2022,3.2552,0.0,0.0,3.36,3.3824,3.3989,3.4099,3.4399,3.4635,3.4794,3.4971,3.5104,3.514,3.4823,3.4573,3.4772,3.4787,3.4875,3.5137,3.5181,3.5312,3.5573,3.5617,3.5617,3.5617,3.5617,3.5617,3.5617,3.5617,3.5486,3.5181,3.5181,3.505,3.4787,3.4787,3.4787,3.4787,3.4787,3.4787,3.4787,3.4787,3.4787,3.4787,3.4787,3.4919,3.5181,3.4919,3.4962,3.5181,3.5181,3.5355,3.5633,3.5748,3.5923,3.6145,0.0,0.0,2.5549,2.5896,2.5965,2.5999,2.6085,2.6102,2.6102,0.0,0.0,0.0,0.0,0.0,0.0,0.0,2.6679,2.6525,2.6119,2.6102,2.6068,2.6033,2.6371,2.6589,2.6589,2.6932,2.7103,2.7103,2.7103,2.7244,2.7552,2.7586,2.7997,2.8749,2.88,2.8974,2.9316,2.9367,2.959,2.995,2.995,3.0429,3.1183,3.1543,3.1867,3.2208,3.257,3.2689,3.2689,3.2689,3.2467,3.2105,3.1835,3.1474,3.12,3.1148,3.1113,3.12,3.1526,3.1629,3.1835,3.2537,3.2724,0.0,3.358,3.3696,3.3798,3.407,3.4363,3.4563,3.457,3.4869,3.5029,3.4656,3.4875,3.5183,3.5506,3.5558,3.5617,3.5617,3.5617,3.5617,3.5617,3.5617,3.5617,3.5617,3.5617,3.5617,3.5617,3.5617,3.5617,3.5617,3.5617,3.5617,3.5617,3.5617,3.5617,3.5617,3.5617,3.5617,3.5617,3.5617,3.5617,3.5617,3.5617,3.5617,3.5617,3.5661,3.5661,3.5617,3.5617,3.5605,3.5713,3.6031,3.625,3.6393,0.0,2.5617,2.5943,2.6319,2.6388,2.6576,2.7193,2.7278,2.7398,2.7706,2.7809,2.7895,2.7963,0.0,0.0,0.0,2.786,2.7689,2.7313,2.7278,2.7158,2.6867,2.6949,2.6983,2.6983,2.7069,2.7103,2.7103,2.7103,2.7137,2.7193,2.7467,2.786,2.8323,2.8663,2.8974,2.9333,2.9641,3.0001,3.0292,3.0292,3.0925,3.1883,3.1952,3.2244,3.2587,3.2655,3.2689,3.2689,3.2689,3.2638,3.257,3.252,3.2415,3.2296,3.1969,3.1883,3.1832,3.1663,3.1782,3.2124,3.257,3.2966,0.0,3.3706,3.3741,3.3724,3.3798,3.3858,3.3944,3.4243,3.4547,3.4875,3.5104,3.5432,3.5538,3.5183,3.5399,3.5617,3.5617,3.5617,3.5617,3.5617,3.5617,3.5617,3.5617,3.5617,3.5617,3.5617,3.5617,3.5617,3.5617,3.5617,3.5617,3.5617,3.5617,3.5617,3.5617,3.5617,3.5617,3.5617,3.5617,3.5617,3.5617,3.5617,3.5617,3.5617,3.6025,3.5922,3.5617,3.5617,3.5748,3.6062,3.6507,3.7027,3.7634,2.592,2.608,2.6336,2.6743,2.6919,2.7176,2.7552,2.7775,2.8032,2.8457,2.8819,2.9111,2.9282,2.9299,0.0,0.0,0.0,0.0,0.0,2.8015,2.7723,2.7364,2.7347,2.7261,2.7103,2.7103,2.7103,2.7103,2.7103,2.7103,2.712,2.7432,2.7902,2.8486,2.8884,2.9362,2.9874,3.0291,3.0641,3.0922,3.0789,3.125,3.2123,3.233,3.2638,3.3035,3.3186,3.3254,3.3254,3.3254,3.3135,3.3017,3.3017,3.288,3.2655,3.2467,3.2415,3.2364,3.2176,3.2261,3.2501,3.2878,3.3155,0.0,0.0,3.3784,3.3767,3.3767,3.3918,3.4043,3.3936,3.4229,3.4505,3.4486,3.4924,3.5171,3.4892,3.5183,3.5307,3.5092,3.5033,3.5033,3.5033,3.5033,3.5113,3.5287,3.5478,3.5617,3.5617,3.5617,3.5617,3.5617,3.5617,3.5617,3.5617,3.5617,3.5617,3.5617,3.5617,3.5617,3.5617,3.5617,3.5617,3.5617,3.5835,3.5922,3.5965,3.6443,3.653,3.6297,3.6297,3.648,3.6864,3.7264,3.7761,3.8297,2.6439,2.6542,2.676,2.7137,2.7415,2.7655,2.7809,2.8152,2.858,2.9042,2.9693,3.0224,3.0481,3.0532,3.0361,3.0037,0.0,0.0,0.0,2.8582,2.8237,2.7843,2.7758,2.7586,2.7326,2.7326,2.7326,2.7326,2.7326,2.7339,2.7417,2.771,2.8192,2.892,2.9252,2.9816,3.0535,3.0926,3.1283,3.1623,3.1496,3.1822,3.2368,3.2692,3.3069,3.3426,3.3696,3.3799,3.3799,3.3799,3.3631,3.3412,3.3412,3.3169,3.2895,3.2809,3.2829,3.2812,3.2707,3.2777,3.2878,3.3223,3.336,3.346,0.0,0.0,0.0,3.3799,3.4076,3.4167,3.3766,3.4048,3.4222,3.3886,3.4339,3.473,3.465,3.4859,3.496,3.4773,3.4762,3.472,3.4636,3.4551,3.462,3.4863,3.5208,3.5367,3.5367,3.5367,3.5399,3.5462,3.5478,3.551,3.5617,3.5617,3.5617,3.5617,3.5617,3.5617,3.5617,3.5704,3.5748,3.5748,3.6226,3.6443,3.6486,3.6946,3.7152,3.7218,3.7132,3.732,3.7639,3.8108,3.85,3.891,2.6542,2.6794,2.7154,2.7484,2.7569,2.7843,2.8545,2.8956,2.9436,3.0121,3.0583,3.0909,3.0943,3.0936,3.0759,3.0372,3.0287,2.9968,2.9278,2.9187,2.9025,2.8697,2.8306,2.81,2.8066,2.8066,2.8066,2.8066,2.8066,2.8223,2.8518,2.8553,2.8969,2.9673,2.9708,3.0183,3.0943,3.13,3.1691,3.2098,3.2773,3.3089,3.3164,3.3214,3.3443,3.3748,3.3782,3.3799,3.3799,3.3799,3.3765,3.373,3.373,3.3713,3.3611,3.3306,3.324,3.3172,3.2812,3.2966,3.3257,3.3292,3.3528,3.3748,3.3799,0.0,3.3799,3.3799,0.0,3.3867,3.3791,0.0,0.0,3.4338,3.4696,3.4829,3.4418,3.4367,3.4702,3.5524,3.5647,3.5521,3.5142,3.4762,3.4525,3.4557,3.4604,3.462,3.462,3.462,3.4763,3.5038,3.5054,3.5256,3.5617,3.5617,3.5617,3.5617,3.5617,3.5617,3.5617,3.6025,3.6226,3.6242,3.6746,3.6903,3.6946,3.7378,3.7734,3.801,3.76,3.7656,3.8019,3.8831,3.9396,3.9822,2.6897,2.6983,2.7223,2.7535,2.7792,2.8203,2.8974,2.9778,3.0498,3.1011,3.1422,3.1641,3.1648,3.1657,3.1474,3.1054,3.1033,3.084,3.0338,3.0293,0.0,2.9453,2.9042,2.8751,2.8545,2.8306,2.8186,2.8186,2.8406,2.8546,2.872,2.9119,2.9616,3.0112,3.0578,3.107,3.161,3.2227,3.2715,3.3131,3.3696,3.4071,3.4227,3.3796,3.3857,3.4162,3.4162,3.4299,3.4505,3.4505,3.4505,3.4505,3.4505,3.4505,3.447,3.4337,3.4132,3.3888,3.3717,3.3631,3.3597,3.3597,3.3679,3.3799,3.3799,3.3799,3.3799,3.3799,0.0,0.0,0.0,0.0,0.0,0.0,3.4385,3.4586,3.4392,3.4557,3.4694,3.4576,3.4743,3.4793,3.4594,3.4596,3.4516,3.4223,3.4398,3.4509,3.4509,3.4509,3.4573,3.4716,3.4879,3.507,3.5256,3.5478,3.5617,3.5617,3.5878,3.6025,3.6009,3.6486,3.6703,3.6746,3.7162,3.7334,3.7378,3.7808,3.8244,3.8634,3.8663,3.8879,3.9188,3.9564,3.996,4.0311,2.7088,2.7166,2.733,2.7706,2.8083,2.8648,2.9487,3.0498,3.1302,3.1679,3.2136,3.2414,3.2426,3.2367,3.2189,3.1827,3.1766,3.1639,3.1318,3.1253,3.0992,3.0395,2.9984,2.9607,2.9248,2.8854,2.8729,2.8808,2.8942,2.9112,2.932,2.9857,3.0341,3.0773,3.1404,3.1898,3.2353,3.3049,3.3615,3.402,3.454,3.4975,3.5241,3.4515,3.4284,3.4402,3.4505,3.4727,3.5023,3.5023,3.5023,3.5023,3.5023,3.5023,3.5023,3.5023,3.4779,3.4556,3.4556,3.4282,3.3953,3.3953,3.3867,3.3799,3.3799,3.3799,3.3799,3.3799,3.3799,0.0,0.0,0.0,3.3799,3.3799,0.0,3.4196,3.4094,3.4372,3.4431,3.411,3.4163,3.4229,3.4171,3.4327,3.4245,3.3736,3.4055,3.4205,3.408,3.4175,3.4271,3.4366,3.4578,3.48,3.499,3.5433,3.5695,3.5807,3.6269,3.6486,3.653,3.6946,3.7162,3.7205,3.7593,3.7859,3.796,3.8322,3.8785,3.9248,3.9522,3.9847,4.0145,4.0145,4.0361,4.0583,2.7041,2.7356,2.7706,2.81,2.8494,2.9128,3.019,3.1046,3.1679,3.2037,3.2713,3.3142,3.3158,3.306,3.2828,3.2511,3.2463,3.2325,3.1984,3.1959,3.1845,3.1542,3.1165,3.0772,3.0344,3.0035,2.9996,3.0329,2.9961,3.0145,3.0843,3.0843,3.1255,3.1932,3.1968,3.2408,3.3177,3.358,3.4018,3.4458,3.5229,3.5776,3.6068,3.5269,3.4751,3.4436,3.4852,3.5006,3.5023,3.5023,3.5023,0.0,0.0,3.5023,3.5023,3.5023,3.5006,3.4989,3.4989,3.4676,3.4368,3.4368,3.4111,3.3799,3.3799,3.3799,3.3799,3.3799,3.3799,3.3799,3.3799,0.0,0.0,0.0,3.3816,0.0,0.0,3.336,3.3734,3.4847,3.4592,3.4317,3.4295,3.3957,3.3523,3.3087,3.3411,3.3444,3.308,3.3374,3.3667,3.4016,3.4032,3.4324,3.499,3.5478,3.5886,3.6286,3.673,3.6989,3.6989,3.7421,3.7576,3.7636,3.8066,3.8503,3.8862,3.8845,3.9289,3.9957,3.9974,4.0241,4.0566,4.0566,4.0566,4.0583,2.7462,2.7982,2.8457,2.8563,2.8732,2.9248,3.06,3.1456,3.2153,3.2743,3.3234,3.3498,3.347,3.3603,3.3565,3.321,3.321,3.3188,3.3104,3.3147,3.301,3.2724,3.233,3.1936,3.1524,3.096,3.0806,3.1181,3.1016,3.119,3.1706,3.192,3.2158,3.2404,3.268,3.3067,3.3599,3.4037,3.4587,3.5247,3.6054,3.6487,3.6502,3.5698,3.5467,3.5587,3.5393,3.5498,3.572,3.572,3.572,3.572,3.572,3.572,3.572,3.572,3.5532,3.5326,0.0,0.0,3.4817,3.4817,3.4676,3.459,3.459,3.459,3.459,3.459,3.4385,3.4196,0.0,0.0,0.0,0.0,0.0,3.3856,0.0,3.3602,3.3344,3.3446,3.4013,3.4326,3.4306,3.4183,3.3907,3.3513,3.3588,3.3495,3.3001,3.3621,3.3904,3.375,3.4464,3.5101,3.5574,3.5946,3.6385,3.6773,3.7205,3.7421,3.7404,3.7851,3.8066,3.8083,3.8511,3.8742,3.894,3.9179,3.9573,3.9991,3.9991,4.0258,4.0583,4.0583,4.0583,4.0583,2.7657,2.8163,2.8639,2.8785,2.9111,2.9778,3.1011,3.181,3.2527,3.3297,3.3659,3.3928,3.4123,3.4322,3.4324,3.4074,3.424,3.4311,3.4281,3.4415,3.4311,3.3905,3.3669,3.3203,3.2552,3.1919,3.1649,3.1774,3.1716,3.1824,3.207,3.2421,3.268,3.2845,3.3214,3.3651,3.4055,3.4605,3.521,3.587,3.6676,3.7091,3.7131,3.6472,3.6238,3.6166,3.5828,3.5874,3.6097,3.6097,3.6097,3.6097,3.6097,3.6097,3.6097,3.6097,3.5909,3.572,3.572,3.5446,0.0,3.5172,3.5109,0.0,3.5023,3.5023,3.5023,3.5023,3.4779,0.0,0.0,0.0,0.0,0.0,0.0,0.0,0.0,3.3492,3.2973,3.2738,3.3486,3.3979,3.3949,3.4063,3.3936,3.3548,3.3625,3.3512,3.308,3.3759,3.4062,3.3821,3.4653,3.5378,3.5898,3.6273,3.6723,3.7205,3.7636,3.7851,3.7851,3.8152,3.8366,3.8503,3.8803,3.9059,3.9333,3.9573,3.9899,4.0224,4.0224,4.0378,4.0583,4.0583,4.0583,4.0583,2.7653,2.8076,2.8433,2.8873,2.9778,3.0737,3.1543,3.2205,3.2886,3.3657,3.3956,3.4414,3.5058,3.5104,3.507,3.507,3.5483,3.5662,3.541,3.5808,3.5754,3.5138,3.5109,3.4539,3.3446,3.3017,3.2597,3.2227,3.2174,3.2145,3.2108,3.2494,3.2863,3.3232,3.3635,3.4055,3.4477,3.5284,3.587,3.6329,3.7098,3.7647,3.8014,3.7602,3.6934,3.6276,3.6161,3.6137,3.6097,3.6097,3.6097,3.6097,3.6097,3.6097,3.6097,3.6114,3.6114,3.6131,3.6148,3.5874,3.5583,3.5583,3.5344,0.0,0.0,0.0,3.5052,0.0,0.0,0.0,0.0,0.0,0.0,0.0,0.0,0.0,3.3358,3.2966,3.268,3.268,3.3014,3.3257,3.3275,3.3563,3.3579,3.3184,3.3499,3.3508,3.3083,3.3816,3.4213,3.4189,3.4609,3.5196,3.594,3.6417,3.6955,3.7619,3.8109,3.828,3.828,3.8297,3.852,3.8922,3.8957,3.9341,3.9991,4.0008,4.0275,4.0583,4.0583,4.0583,4.0583,4.0583,4.0583,4.0583,2.8856,2.9379,3.0071,3.0754,3.1115,3.156,3.2315,3.2764,3.3396,3.4309,3.467,3.4989,3.5456,3.5887,3.6193,3.6193,3.6395,3.6649,3.6903,3.686,3.6769,3.6621,3.6354,3.5806,3.495,3.4282,3.3905,3.3811,3.3285,3.309,3.3334,3.3426,3.356,3.3635,3.4073,3.4477,3.4863,3.5412,3.6163,3.7154,3.7629,3.8069,3.8396,3.8,3.7741,3.7462,3.6769,3.6339,3.6097,3.6097,3.6097,3.6097,3.6097,3.6097,3.6148,3.6405,3.6491,3.6559,3.685,3.685,3.6765,3.6765,3.6713,3.6559,0.0,0.0,0.0,0.0,0.0,0.0,0.0,0.0,0.0,3.5181,0.0,0.0,3.3425,3.2967,3.2597,3.2297,3.234,3.2535,3.2846,3.2912,3.2944,3.2816,3.3191,3.3225,3.281,3.3804,3.4345,3.426,3.4947,3.5825,3.686,3.7002,3.7419,3.8109,3.8237,3.828,3.8297,3.8588,3.882,3.894,3.9461,3.982,4.0008,4.0327,4.0498,4.0583,4.0583,4.0583,4.0583,4.0583,4.0583,4.0583,2.9267,3.017,3.1165,3.1955,3.2185,3.245,3.2875,3.3192,3.3729,3.4736,3.5132,3.5579,3.6206,3.659,3.6919,3.716,3.7416,3.7726,3.8047,3.8143,3.81,3.7938,3.7587,3.7022,3.6268,3.5515,3.499,3.4647,3.4236,3.3964,3.3837,3.4008,3.3982,3.3835,3.4386,3.4771,3.5046,3.598,3.686,3.7723,3.8087,3.849,0.0,3.8617,3.8525,3.8446,3.7961,3.7287,3.6621,3.6621,3.6602,3.6577,3.6577,3.6577,3.6628,3.6816,3.6885,3.6919,3.7159,3.721,3.721,3.721,3.721,3.7159,3.6895,3.6885,3.6782,0.0,3.6148,3.5892,0.0,0.0,3.4757,3.5033,3.5028,3.47,3.3884,3.3299,3.2806,3.2403,3.2208,3.2132,3.2212,3.252,3.2689,3.2689,3.2932,3.3009,3.2957,3.3723,3.4286,3.4598,3.5191,3.6063,3.7193,3.721,3.7587,3.828,3.828,3.8366,3.8554,3.882,3.9094,3.9375,3.9803,4.0076,4.0292,4.0498,4.0583,4.0583,4.0583,4.0583,4.0583,4.0583,4.0583,4.0583,2.9565,3.083,3.2004,3.267,3.3102,3.3355,3.3374,3.3541,3.4032,3.511,3.5499,3.6018,3.7019,3.721,3.7456,3.8019,3.8473,3.8839,3.8981,3.9369,3.9402,3.9077,3.8605,3.8041,3.7364,3.6617,3.5913,3.5155,3.5084,3.4678,3.3963,3.4245,3.4202,3.3853,3.4625,3.5083,3.5321,3.6768,3.7611,3.8053,3.849,3.8893,3.9205,3.9259,3.9295,3.9277,3.9277,3.8528,3.7451,3.7451,3.7431,3.7376,3.7376,3.7335,3.7293,3.7345,3.732,3.7296,3.7347,3.7364,3.7364,3.7364,3.7364,3.7347,3.7296,3.7279,3.7176,3.6782,3.6662,3.6382,0.0,0.0,3.5032,3.4613,3.4848,3.4936,3.455,3.3885,3.33,3.2825,3.2404,0.0,3.1647,3.2195,3.2572,3.2572,3.2587,3.2758,3.31,3.3528,3.4111,3.492,3.5258,3.6011,3.7193,3.721,3.7621,3.8366,3.8366,3.8614,3.8991,3.9042,3.9375,3.9991,4.0042,4.0292,4.0583,4.0583,4.0583,4.0583,4.0583,4.0583,4.0629,4.0674,4.0674,4.0674,3.1396,3.2363,3.3043,3.3112,3.365,3.4165,3.4311,3.4172,3.4496,3.5854,3.6011,3.6304,3.7006,3.7655,3.819,3.8748,3.9257,3.9686,4.0062,4.0005,3.9854,3.9803,3.9179,3.8597,3.8109,3.7422,3.6696,3.59,3.5635,3.5098,3.4306,3.4391,3.4202,3.3853,3.4625,3.5541,3.653,3.7134,3.7611,3.8071,3.8783,3.9131,3.9223,3.9652,3.9777,3.9768,3.9768,3.9181,3.8347,3.8347,3.8359,3.8371,3.8371,3.8081,3.7844,3.8174,3.8009,3.7783,3.8049,3.8092,3.8092,3.8092,3.8092,3.8049,3.7783,3.7715,3.7595,3.7176,3.685,3.6536,3.6416,0.0,0.0,3.5454,3.543,3.5339,3.4936,3.4557,3.4037,3.3287,3.2843,3.2329,3.1664,3.1715,3.18,3.18,3.2056,3.2225,3.2294,3.2998,3.3717,3.447,3.4864,3.5755,3.7193,3.721,3.7758,3.8776,3.8776,3.9008,3.9385,3.9693,3.9871,4.0008,4.0361,4.0515,4.0583,4.0583,4.0583,4.0583,4.0583,4.0583,4.0629,4.1037,4.119,4.1145,3.216,3.294,3.3547,3.392,3.4378,3.4883,3.5362,3.5253,3.5446,3.6295,3.6709,3.7115,3.7623,3.8381,3.9077,3.9576,4.0091,4.0557,4.1052,4.0789,4.0709,4.0981,4.0238,3.9782,3.9661,3.8737,3.7977,3.7383,3.6621,3.5934,3.5339,3.4901,3.4623,3.4441,3.5028,3.598,3.7116,3.7299,3.7867,3.8637,3.904,3.9483,3.9887,4.0129,4.0331,4.0515,4.0515,4.0266,3.9813,3.9366,3.9212,3.9181,3.9181,3.9013,3.8863,3.9074,3.894,3.8806,3.8955,3.919,3.9347,3.9347,3.9347,3.9294,3.9145,3.8953,3.8666,3.8258,3.8014,3.77,3.7131,3.6892,0.0,0.0,0.0,3.5815,3.5669,3.5139,3.4468,3.3714,3.3269,3.2701,3.1946,3.17,3.1595,3.1595,3.173,3.1919,3.2088,3.2672,3.3409,3.435,3.4817,3.5703,3.7193,3.721,3.7792,3.8922,3.8922,3.9214,3.9762,4.0173,4.0497,4.0704,4.1148,4.1308,4.1308,4.1308,4.1308,4.1308,4.1308,4.1308,4.1353,4.1579,4.1669,4.1624,3.2676,3.3345,3.4036,3.4678,3.5066,3.5558,3.6262,3.6431,3.6527,3.6797,3.7321,3.7876,3.8399,3.9144,3.9858,4.0455,4.0848,4.1318,4.1787,4.163,4.162,4.1883,4.1311,4.0992,4.1045,3.9934,3.9164,3.8744,0.0,3.6829,3.6201,3.5541,3.5192,3.5138,3.5559,3.6328,3.7391,3.7574,3.8252,3.9205,3.9388,3.9887,4.0515,4.0607,4.0882,4.1231,4.1231,4.1231,4.1091,4.0445,4.0102,3.9986,3.9986,3.9901,3.9894,3.9965,3.9898,3.983,3.9919,4.021,4.0441,4.0441,4.0441,4.0441,4.0441,4.0139,3.9724,3.9423,3.9245,3.882,3.7953,3.7621,0.0,0.0,0.0,0.0,3.6347,3.5779,3.5084,3.4234,3.3804,3.3216,3.2315,3.1911,3.1665,3.1595,3.1595,3.1732,3.2004,3.2433,3.3243,3.4384,3.4882,3.5885,3.7442,3.7587,3.8209,3.9348,3.9417,3.9814,4.0425,4.081,4.1164,4.1461,4.1849,4.1984,4.1984,4.1984,4.1984,4.1984,4.1984,4.1984,4.2029,4.2119,4.2164,4.2164,3.341,3.4122,3.4695,3.5015,3.5643,3.6294,3.6919,3.7335,3.7544,3.7575,3.7685,3.8111,3.9253,3.9736,4.0376,4.1375,4.147,4.1677,4.2197,4.2306,4.222,4.1901,4.1936,4.1799,4.1435,4.0686,3.991,3.914,0.0,3.7664,3.6201,3.6127,3.5907,3.5541,3.5981,3.6622,3.7428,3.8179,3.8765,3.9259,4.0052,4.0442,4.0552,4.0901,4.1304,4.1629,4.1629,4.1629,4.1629,4.1549,4.1251,4.0976,4.0976,4.0681,4.0415,4.0775,4.0565,4.0335,4.0707,4.0832,4.085,4.085,4.085,4.085,4.085,4.0548,4.0246,4.021,3.96,3.9104,3.9053,3.8415,3.8051,0.0,0.0,0.0,0.0,3.6676,3.6235,3.5138,3.4631,3.3929,3.2752,3.2296,3.193,3.163,3.1595,3.1612,3.1646,3.2332,3.3234,3.4458,3.519,3.6465,3.8377,3.8766,3.9526,4.0736,4.1072,4.1462,4.1796,4.1841,4.1904,4.1939,4.1984,4.1984,4.1984,4.1984,4.1984,4.1984,4.1984,4.1984,4.2074,4.2524,4.2703,4.2793,3.4058,3.4712,3.536,3.5643,3.6491,3.7198,3.7431,3.7925,3.8354,3.8576,3.8608,3.8909,3.9721,4.0396,4.109,4.1857,4.2144,4.2383,4.2591,4.2734,4.2773,4.2665,4.2797,4.2685,4.2347,4.1578,4.0899,4.0334,0.0,3.827,3.7611,3.6896,3.6457,3.6328,3.6731,3.7354,3.8142,3.8472,3.9113,4.0015,4.0644,4.1011,4.1244,4.169,4.1947,4.2051,4.2051,4.2051,4.2051,4.2051,4.1653,4.1139,4.1396,4.1318,4.1263,4.1646,4.1644,4.1532,4.1695,4.1912,4.2094,4.2094,4.2094,4.2094,4.2094,4.1786,4.1496,4.1496,4.0862,4.0234,4.0019,3.9513,3.9193,3.9355,0.0,0.0,0.0,3.7263,3.6547,3.5832,3.4994,3.4198,3.35,3.2632,3.2035,3.1894,3.17,3.17,3.1912,3.2622,3.3585,3.4764,3.5769,3.7029,3.85,3.9157,3.9937,4.0921,4.1311,4.1684,4.2029,4.2344,4.2613,4.29,4.29,4.29,4.29,4.29,4.29,4.29,4.29,4.29,4.2945,4.3124,4.3213,4.3294,3.4747,3.5319,3.5907,3.6463,3.7178,3.7812,3.8084,3.8529,3.9021,3.9516,3.9564,3.9804,4.0301,4.1059,4.1739,4.2268,4.2621,4.2861,4.3005,4.3252,4.3457,4.3581,4.3694,4.3624,4.3243,4.2436,4.1818,4.1286,3.9978,3.9131,3.8747,3.7776,3.7263,3.7171,3.7684,3.8234,3.8783,3.904,3.974,4.0717,4.1121,4.1543,4.1886,4.2179,4.2387,4.2498,4.2498,4.2498,4.2498,4.2498,4.2039,4.1506,4.1818,4.1867,4.1941,4.2387,4.2498,4.2472,4.2601,4.2839,4.3103,4.3103,4.3103,4.3103,4.3103,4.2791,4.2461,4.2307,4.1855,4.1341,4.0937,4.0533,4.0203,4.0093,0.0,0.0,0.0,3.7666,3.6823,3.6402,3.5358,3.4504,3.4125,3.3091,3.2439,3.2456,3.2226,3.2156,3.228,3.3051,3.4042,3.5355,3.6424,0.0,3.8912,3.9844,4.0633,4.1314,4.1816,4.221,4.2434,4.2855,4.3169,4.3499,4.3499,4.3499,4.3499,4.3499,4.3499,4.3499,4.3499,4.3499,4.3499,4.3499,4.3573,4.3701,3.5494,3.5859,3.6431,3.7464,3.7701,3.802,3.9037,3.9212,3.9483,4.0368,4.0449,4.0707,4.1208,4.1787,4.2268,4.2765,4.2813,4.3005,4.3578,4.4085,4.4382,4.4458,4.4617,4.4471,4.4068,4.3305,4.2516,4.1684,4.1286,4.0418,3.9168,3.8765,3.8362,3.8034,3.8801,3.9168,3.9241,4.0107,4.0735,4.1139,4.1519,4.1922,4.2271,4.2314,4.2571,4.2901,4.2901,4.2901,4.2901,4.2901,4.2644,4.2314,4.2314,4.2271,4.2387,4.2791,4.2901,4.2993,4.3371,4.3481,4.3481,4.3481,4.3481,4.3481,4.3481,4.3151,4.2791,4.2406,4.2271,4.2142,4.1739,4.1378,4.0956,4.057,0.0,0.0,0.0,3.7886,3.7226,3.6841,3.5724,3.4883,3.4523,3.3765,3.3282,3.3287,3.3269,3.3091,3.2698,3.3443,0.0,3.6238,3.7015,0.0,3.9872,4.106,4.1886,4.2289,4.3096,4.3499,4.3499,4.3499,4.3499,4.3499,4.3499,4.3499,4.3499,4.3499,4.3499,4.3499,4.3499,4.3499,4.3499,4.3499,4.3738,4.4068,3.6469,3.6924,3.7353,3.7925,3.8417,3.8846,3.9164,3.9434,3.9819,4.04,4.0804,4.1256,4.1787,4.1979,4.2268,4.2765,4.3148,4.3435,4.3578,4.4418,4.476,4.4523,4.489,4.4783,4.4105,4.3573,4.3023,4.2534,4.1812,4.1005,4.007,3.9648,3.9432,3.9303,3.9579,4.0001,4.0492,4.0809,4.1304,4.1965,4.2369,4.2608,4.2755,4.3004,4.3188,4.3298,4.3298,4.3298,4.3298,4.3298,4.3206,4.3114,4.3114,4.2913,4.281,4.3169,4.3298,4.3316,4.3463,4.3499,4.3499,4.3499,4.3499,4.3499,4.3499,4.3389,4.3169,4.281,4.2718,4.2608,4.2161,4.1757,4.1488,4.1317,4.0405,0.0,3.9524,0.0,3.7336,3.7208,3.6127,3.5358,3.5249,3.454,3.4108,3.4127,3.4145,3.4055,3.3911,3.4701,0.0,0.0,3.8095,0.0,4.0699,4.1653,4.2332,4.2736,4.3224,4.3499,4.3499,4.3499,4.3499,4.3499,4.3499,4.3499,4.3499,4.3499,4.3499,4.3499,4.3499,4.3664,4.3903,4.3903,4.4141,4.4572,3.6892,3.7485,3.802,3.8497,3.8942,3.926,3.9403,3.9803,4.0238,4.0724,4.1256,4.1787,4.2316,4.2364,4.2556,4.3053,4.3435,4.3752,4.4133,4.475,4.5068,4.502,4.5184,4.5058,4.4545,4.3995,4.3518,4.314,4.2307,4.1574,4.0974,4.0845,4.0717,4.0588,4.0735,4.1084,4.1561,4.1561,4.1947,4.2571,4.281,4.3012,4.3133,4.3389,4.3499,4.3499,4.3499,4.3499,4.3499,4.3499,4.3499,4.3499,4.3499,4.3316,4.3151,4.3426,4.3499,4.3499,4.3499,4.3609,4.3719,4.3719,4.3829,4.3903,4.3756,4.3609,4.3426,4.3195,4.314,4.2986,4.2608,4.2222,4.1867,4.1721,4.0699,3.9891,3.9891,0.0,3.7649,3.7649,3.6676,3.6035,3.6035,3.5522,3.5194,3.5357,3.5357,3.5484,3.5793,3.5848,3.6506,3.7812,3.871,3.9813,4.1084,4.191,4.2516,4.292,4.3298,4.3499,4.3499,4.3499,4.3499,4.3499,4.3499,4.3499,4.3499,4.3499,4.3499,4.3518,4.3664,4.3866,4.4105,4.4251,4.4563,4.4948,3.693,3.7662,3.8449,3.9101,3.9244,3.9371,3.9769,4.019,4.0707,4.1208,4.1787,4.2268,4.2765,4.2813,4.3053,4.3626,4.3674,4.4085,4.5034,4.5129,4.5365,4.5883,4.5535,4.5333,4.5297,4.4563,4.3958,4.3536,4.2747,4.2161,4.1776,4.2167,4.2087,4.1739,4.2106,4.2332,4.2326,4.2326,4.2589,4.2957,4.2957,4.3195,4.3499,4.3499,4.3499,4.3499,4.3499,4.3499,4.3499,4.3499,4.3499,4.3499,4.3499,4.3518,4.3536,4.3499,4.3518,4.3536,4.3536,4.3829,4.4123,4.4123,4.4398,4.4627,4.4215,4.3829,4.3536,4.3536,4.3518,4.3371,4.303,4.2608,4.2161,4.1794,4.0717,3.9891,3.9872,3.8786,3.8016,3.8016,3.7299,0.0,3.6841,3.6493,3.6457,3.6841,3.6878,3.7226,3.8053,0.0,3.7118,3.8637,3.9095,3.9942,4.1176,4.1965,4.2553,4.2957,4.3298,4.3499,4.3499,4.3499,4.3499,4.3499,4.3499,4.3518,4.3536,4.3536,4.3554,4.3609,4.3976,4.4141,4.4215,4.4581,4.4985,4.5352,3.7678,3.8244,3.8719,3.9148,3.945,3.9673,3.9801,4.019,4.0707,4.1208,4.1787,4.2268,4.2765,4.3196,4.3626,4.415,4.4198,4.4465,4.5081,4.5459,4.5742,4.5883,4.5792,4.5608,4.5315,4.5113,4.4655,4.394,4.3444,4.2986,4.2626,4.2424,4.2234,4.2142,4.2277,4.2479,4.2773,4.2773,4.3012,4.3353,4.3353,4.3408,4.3499,4.3499,4.3499,4.3499,4.3499,4.3499,4.3499,4.3499,4.3499,4.3499,4.3499,4.3701,4.3884,4.3591,4.3701,4.394,4.394,4.4233,4.4572,4.4572,4.4645,4.4701,4.4609,4.4233,4.394,4.394,4.3701,4.3463,4.3371,4.2766,4.2296,4.2161,4.0882,3.9872,3.9832,3.8786,3.8016,3.8016,3.7537,3.7244,3.7244,3.7153,3.7263,0.0,3.7741,3.805,3.8856,3.8637,3.8841,3.9579,4.0295,4.1102,4.202,4.2516,4.2975,4.3353,4.3444,4.3499,4.3499,4.3499,4.3499,4.3499,4.3499,4.3664,4.394,4.394,4.4123,4.4444,4.4535,4.4728,4.5021,4.5113,4.5407,4.5755,3.7899,3.8561,3.9053,3.9403,3.9641,3.9865,4.0093,4.053,4.1063,4.1594,4.2124,4.2508,4.2765,4.3292,4.3817,4.4341,4.4626,4.4939,4.5412,4.5742,4.5883,4.5883,4.5883,4.5792,4.5572,4.5388,4.4985,4.4343,4.3958,4.3646,4.3452,4.3023,4.2839,4.2839,4.2839,4.2949,4.3151,4.3151,4.3279,4.3499,4.3499,4.3499,4.3499,4.3499,4.3499,4.3499,4.3499,4.3499,4.3499,4.3499,4.3609,4.3756,4.3756,4.4031,4.4306,4.4086,4.4178,4.4343,4.4343,4.4655,4.5003,4.5187,4.5095,4.4966,4.4966,4.4636,4.4306,4.4123,4.3921,4.3701,4.3518,4.2821,4.2314,4.2314,4.1102,4.0093,3.9891,3.9098,3.8527,3.8527,3.8343,3.8328,3.8511,3.853,3.8621,3.8823,3.8881,0.0,4.0015,4.007,4.0162,4.0442,4.0864,4.158,4.2571,4.2993,4.3261,4.3499,4.3499,4.3499,4.3499,4.3683,4.3756,4.3774,4.3958,4.416,4.4343,4.4343,4.4471,4.4737,4.4875,4.5095,4.5315,4.5498,4.57,4.5883,3.7944,3.8703,3.9339,3.9753,3.9865,4.0044,4.0465,4.1014,4.1594,4.2028,4.2508,4.2813,4.2813,4.3292,4.3817,4.4341,4.4845,4.5318,4.5836,4.5883,4.5883,4.5883,4.5883,4.5883,4.5883,4.5572,4.5187,4.4811,4.4435,4.4233,4.416,4.3774,4.3591,4.3573,4.3518,4.3499,4.3499,4.3499,4.3499,4.3499,4.3499,4.3499,4.3499,4.3499,4.3499,4.3499,4.3499,4.3499,4.3499,4.3573,4.3811,4.4086,4.416,4.4499,4.4811,4.4811,4.4801,4.4884,4.4829,4.5077,4.548,4.581,4.5645,4.5388,4.5388,4.5058,4.4673,4.4343,4.416,4.3976,4.3646,4.2913,4.2387,4.2332,4.1359,4.046,4.0038,0.0,3.9318,3.9318,3.9318,3.9483,3.9946,3.9983,4.0038,4.0148,4.0166,4.0497,4.1249,4.1286,4.1323,4.1378,4.1378,4.1892,4.2993,4.3371,4.3591,4.3591,4.3646,4.3664,4.3683,4.4013,4.4178,4.4196,4.4572,4.471,4.4811,4.4811,4.4847,4.4939,4.526,4.5388,4.5425,4.5773,4.5883,4.5883,3.834,3.8926,3.9339,3.9753,4.0141,4.0416,4.0513,4.1353,4.2028,4.2076,4.2508,4.2813,4.2813,4.3292,4.3817,4.4341,4.4845,4.5318,4.5836,4.5883,4.5883,4.5883,4.5883,4.5883,4.5883,4.5828,4.5608,4.5205,4.515,4.493,4.4609,4.4223,4.3995,4.3976,4.3646,4.3499,4.3499,4.3499,4.3499,4.3499,4.3499,4.3499,4.3499,4.3499,4.3499,4.3499,4.3499,4.3499,4.3554,4.3884,4.4031,4.4141,4.4517,4.4856,4.5205,4.5205,4.5443,4.5627,4.5297,4.5498,4.581,4.5865,4.5847,4.5792,4.5792,4.5498,4.5187,4.5132,4.4563,4.4068,4.3995,4.3379,4.2718,4.2369,4.158,4.0864,4.0478,0.0,3.9781,3.9781,3.9781,3.9946,4.0368,4.0405,4.0699,4.1354,4.1409,4.1592,4.2112,4.213,4.2277,4.2626,4.2626,4.2883,4.3389,4.3793,4.3995,4.3995,4.4325,4.449,4.4535,4.4609,4.4627,4.4627,4.4682,4.4875,4.5205,4.5205,4.5407,4.57,4.5773,4.5792,4.581,4.5865,4.5883,4.5883,3.8466,3.9132,3.9658,4.0109,4.0368,4.0707,4.1288,4.1787,4.2172,4.2412,4.2669,4.2813,4.2813,4.3292,4.3817,4.4341,4.4845,4.5318,4.5836,4.5883,4.5883,4.5883,4.5883,4.5883,4.5883,4.5883,4.5792,4.5608,4.5407,4.5205,4.5003,4.4581,4.4333,4.4068,4.3884,4.3701,4.3499,4.3499,4.3499,4.3499,4.3499,4.3499,4.3499,4.3499,4.3499,4.3499,4.3499,4.3628,4.3829,4.4031,4.438,4.4765,4.4948,4.5297,4.5608,4.5608,4.5737,4.5847,4.5663,4.5755,4.5883,4.5883,4.5883,4.5883,4.5883,4.5755,4.5553,4.5352,4.5003,4.46,4.416,4.3609,4.3078,4.27,4.1965,0.0,4.0882,4.0478,4.0295,4.0515,4.0533,4.079,4.1415,4.1488,4.1592,4.1977,4.1996,4.2222,4.2608,4.2644,4.292,4.3544,4.3562,4.3654,4.3811,4.4196,4.4398,4.4444,4.4627,4.4719,4.4719,4.4911,4.5003,4.5021,4.5242,4.5443,4.5608,4.5608,4.5718,4.5883,4.5883,4.5883,4.5883,4.5883,4.5883,4.5883,3.8545,3.9372,4.0093,4.0416,4.0707,4.1143,4.1979,4.2172,4.2364,4.2765,4.2813,4.2813,4.2813,4.3196,4.3674,4.4341,4.4703,4.5223,4.5836,4.5883,4.5883,4.5883,4.5883,4.5883,4.5883,4.5883,4.5883,4.5883,4.559,4.5443,4.5425,4.5021,4.4655,4.4361,4.416,4.3921,4.3628,4.3536,4.3499,4.3499,4.3499,4.3499,4.3499,4.3499,4.3499,4.3499,4.3591,4.3829,4.4105,4.4306,4.4783,4.5315,4.5407,4.5645,4.5883,4.5883,4.5883,4.5883,4.5883,4.5883,4.5883,4.5883,4.5883,4.5883,4.5883,4.5883,4.581,4.5498,4.537,4.5113,4.4471,4.3958,4.3499,4.3078,0.0,4.1812,4.1451,4.1121,4.1047,4.1341,4.1378,4.1672,4.2387,4.2461,4.2498,4.2546,4.2681,4.2821,4.3177,4.3287,4.3617,4.4196,4.4215,4.4215,4.4215,4.4664,4.482,4.482,4.4911,4.4994,4.4966,4.5297,4.5443,4.5462,4.5755,4.5883,4.5883,4.5883,4.5883,4.5883,4.5883,4.5883,4.5883,4.5883,4.5883,4.5883,3.8609,3.9644,4.0465,4.0513,4.1336,4.2028,4.2076,4.246,4.2765,4.2813,4.2813,4.2813,4.2813,4.2861,4.3292,4.4293,4.4436,4.4845,4.5836,4.5883,4.5883,4.5883,4.5883,4.5883,4.5883,4.5883,4.5883,4.5883,4.5865,4.5847,4.5828,4.5443,4.5242,4.5187,4.4416,4.4068,4.4013,4.3646,4.3499,4.3499,4.3499,4.3499,4.3499,4.3499,4.3499,4.3536,4.3903,4.405,4.4196,4.4948,4.526,4.537,4.5737,4.5865,4.5883,4.5883,4.5883,4.5883,4.5883,4.5883,4.5883,4.5883,4.5883,4.5883,4.5883,4.5883,4.5883,4.5847,4.5553,4.5278,4.5223,4.4563,4.3903,4.3518,0.0,0.0,4.2277,4.2204,4.2204,4.2222,4.2222,4.2387,4.2828,4.2865,4.303,4.3371,4.3738,4.3958,4.3995,4.4343,4.4609,4.4636,4.4682,4.4682,4.4682,4.504,4.526,4.526,4.5627,4.5792,4.5792,4.5828,4.5847,4.5847,4.5883,4.5883,4.5883,4.5883,4.5883,4.5883,4.5883,4.5883,4.5883,4.5883,4.5883,4.5883,3.8609,3.9692,4.061,4.0966,4.1594,4.222,4.246,4.2717,4.2813,4.2813,4.2813,4.2813,4.2813,4.2813,4.3244,4.4293,4.4388,4.4815,4.5836,4.5883,4.5883,4.5883,4.5883,4.5883,4.5883,4.5883,4.5883,4.5883,4.5883,4.5883,4.5883,4.5737,4.5535,4.5278,4.4985,4.4563,4.4068,4.3921,4.3719,4.3499,4.3499,4.3499,4.3518,4.3774,4.3866,4.3903,4.4306,4.4618,4.4893,4.5205,4.5462,4.57,4.5847,4.5883,4.5883,4.5883,4.5883,4.5883,4.5883,4.5883,4.5883,4.5883,4.5883,4.5883,4.5883,4.5883,4.5883,4.5883,4.5773,4.559,4.5352,4.504,4.4618,4.3958,0.0,4.3114,4.2736,4.2479,4.2406,4.2663,4.2876,4.3188,4.3617,4.3893,4.4095,4.4215,4.4407,4.4499,4.4499,4.4838,4.5058,4.5058,4.5297,4.5315,4.5058,4.5462,4.5663,4.5663,4.5828,4.5883,4.5883,4.5883,4.5883,4.5883,4.5883,4.5883,4.5883,4.5883,4.5883,4.5883,4.5883,4.5883,4.5836,4.5506,4.5412,4.5365,3.8846,3.9932,4.0917,4.1449,4.1979,4.2412,4.2765,4.2813,4.2813,4.2813,4.2813,4.2813,4.2813,4.2813,4.3244,4.4293,4.4388,4.4815,4.5836,4.5883,4.5883,4.5883,4.5883,4.5883,4.5883,4.5883,4.5883,4.5883,4.5883,4.5883,4.5883,4.5883,4.5737,4.548,4.5352,4.4985,4.4453,4.4196,4.3921,4.3664,4.3536,4.3573,4.3701,4.3976,4.416,4.4325,4.4728,4.5058,4.5315,4.5443,4.5663,4.5883,4.5883,4.5883,4.5883,4.5883,4.5883,4.5883,4.5883,4.5883,4.5883,4.5883,4.5883,4.5883,4.5883,4.5883,4.5883,4.5883,4.5883,4.581,4.5535,4.5388,4.5113,4.4563,4.4123,4.3756,4.3526,4.325,4.3177,4.3452,4.3728,4.3976,4.4251,4.4554,4.4719,4.4719,4.4847,4.4865,4.4809,4.5101,4.5153,4.5013,4.5285,4.5285,4.5013,4.5614,4.5883,4.5883,4.5883,4.5789,4.5648,4.5648,4.5554,4.5412,4.5412,4.5412,4.5412,4.5412,4.5506,4.5648,4.5459,4.5506,4.5601,4.5081,4.4892,4.4845,3.943,4.0475,4.1449,4.2028,4.246,4.2813,4.2813,4.2813,4.2813,4.2813,4.2813,4.2813,4.2813,4.2813,4.3244,4.4293,4.4388,4.4815,4.5836,4.5883,4.5883,4.5883,4.5883,4.5883,4.5883,4.5883,4.5883,4.5883,4.5883,4.5883,4.5883,4.5883,4.5883,4.5865,4.548,4.5297,4.5242,4.4435,4.4086,4.405,4.3664,4.3738,4.4086,4.4086,4.4388,4.4774,4.515,4.5297,4.537,4.5755,4.5883,4.5883,4.5883,4.5883,4.5883,4.5883,4.5883,4.5883,4.5883,4.5883,4.5883,4.5883,4.5883,4.5883,4.5883,4.5883,4.5883,4.5883,4.5883,4.5883,4.5883,4.5572,4.5297,4.5297,4.4948,4.4719,4.4673,4.4673,4.4673,4.4673,4.4719,4.4719,4.4719,4.4719,4.4719,4.4719,4.5077,4.5247,4.5111,4.5081,4.4892,4.4436,4.4388,4.4388,4.4388,4.5365,4.5883,4.5883,4.5883,4.5601,4.5081,4.5081,4.4845,4.4388,4.4388,4.4388,4.4388,4.4388,4.4655,4.5034,4.4578,4.4655,4.5034,4.456,4.4388,4.4388,3.9477,4.0761,4.1931,4.2076,4.246,4.2813,4.2813,4.2813,4.2813,4.2813,4.2813,4.2813,4.2813,4.2813,4.3244,4.4293,4.4388,4.4815,4.5836,4.5883,4.5883,4.5883,4.5883,4.5883,4.5883,4.5883,4.5883,4.5883,4.5883,4.5883,4.5883,4.5883,4.5883,4.5883,4.5773,4.5553,4.5278,4.504,4.4765,4.4535,4.4407,4.4398,4.4572,4.482,4.5003,4.5168,4.5572,4.5718,4.5737,4.5847,4.5883,4.5883,4.5883,4.5883,4.5883,4.5883,4.5883,4.5883,4.5883,4.5883,4.5883,4.5883,4.5883,4.5883,4.5883,4.5883,4.5883,4.5883,4.5883,4.5883,4.5883,4.5792,4.5627,4.5352,4.5205,4.4865,4.425,4.4168,4.4168,4.4168,4.4376,4.4696,4.5067,4.537,4.5517,4.5517,4.5317,4.5144,4.5111,4.4797,4.4531,4.4388,4.4388,4.4388,4.4388,4.472,4.4863,4.4863,4.4863,4.475,4.4608,4.4608,4.4513,4.4388,4.4388,4.4388,4.4388,4.4388,4.4483,4.456,4.4436,4.4483,4.456,4.4055,4.3865,4.3769,3.9744,4.1047,4.2172,4.2316,4.2621,4.2813,4.2813,4.2813,4.2813,4.2813,4.2813,4.2813,4.2813,4.2813,4.3244,4.4293,4.4768,4.5223,4.5836,4.5883,4.5883,4.5883,4.5883,4.5883,4.5883,4.5883,4.5883,4.5883,4.5883,4.5883,4.5883,4.5883,4.5883,4.5883,4.5883,4.5755,4.5535,4.537,4.515,4.4911,4.4746,4.4811,4.4948,4.5205,4.5407,4.5572,4.581,4.5883,4.5883,4.5883,4.5883,4.5883,4.5883,4.5883,4.5883,4.5883,4.5883,4.5883,4.5883,4.5883,4.5883,4.5883,4.5883,4.5883,4.5883,4.5883,4.5883,4.5883,4.5883,4.5836,4.5601,4.5601,4.5434,4.501,4.4927,4.4743,4.4164,4.4081,4.4081,4.4081,4.4483,4.4862,4.5208,4.5661,4.5789,4.5601,4.527,4.4939,4.4513,4.4228,4.4008,4.3769,4.3769,4.3769,4.3769,4.3769,4.4008,4.4388,4.4388,4.4293,4.4103,4.4103,4.396,4.3769,4.3769,4.3769,4.3769,4.3769,4.3912,4.4055,4.3865,4.3912,4.4008,4.3483,4.3292,4.3244,4.0262,4.1333,4.2316,4.2717,4.2813,4.2813,4.2813,4.2813,4.2813,4.2813,4.2813,4.2813,4.2813,4.2813,4.3196,4.4246,4.5223,4.5836,4.5883,4.5883,4.5883,4.5883,4.5883,4.5883,4.5883,4.5883,4.5883,4.5883,4.5883,4.5883,4.5883,4.5883,4.5883,4.5883,4.5883,4.5883,4.5865,4.5498,4.5352,4.5315,4.493,4.5003,4.5352,4.5352,4.5572,4.5883,4.5883,4.5883,4.5883,4.5883,4.5883,4.5883,4.5883,4.5883,4.5836,4.5836,4.5789,4.576,4.5797,4.5797,4.5815,4.5852,4.5852,4.5899,4.5957,4.5891,4.591,4.5946,4.5862,4.5655,4.5183,4.5052,4.4892,4.4483,4.4388,4.4388,4.4341,4.4341,4.4341,4.4341,4.4703,4.4987,4.5034,4.5459,4.5601,4.5129,4.5034,4.456,4.3674,4.3578,4.3292,4.2813,4.2813,4.2813,4.2813,4.2813,4.3292,4.4246,4.4246,4.4008,4.3531,4.3531,4.3244,4.2813,4.2813,4.2813,4.2813,4.2813,4.31,4.3483,4.3005,4.31,4.3483,4.3005,4.2813,4.2813,4.0731,4.1809,4.2669,4.2765,4.2813,4.2813,4.2813,4.2813,4.2813,4.2813,4.2813,4.2813,4.2813,4.2813,4.3053,4.3722,4.4703,4.5459,4.5883,4.5883,4.5883,4.5883,4.5883,4.5883,4.5883,4.5883,4.5883,4.5883,4.5883,4.5883,4.5883,4.5883,4.5883,4.5883,4.5883,4.5883,4.5883,4.5792,4.5755,4.5755,4.5663,4.5682,4.5755,4.5755,4.581,4.5883,4.5883,4.5883,4.5883,4.5883,4.5883,4.5883,4.5883,4.5601,4.527,4.527,4.4987,4.4774,4.506,4.5101,4.5173,4.5494,4.5583,4.5735,4.6225,4.6056,4.5813,4.6139,4.5604,4.5101,4.4958,4.4709,4.4531,4.4436,4.4388,4.4246,4.3817,4.3769,4.3769,4.3769,4.3847,4.4085,4.4513,4.4673,4.4845,4.5081,4.437,4.3817,4.3626,4.3196,4.2909,4.2813,4.2813,4.2813,4.2813,4.2813,4.2909,4.3148,4.3148,4.31,4.2957,4.2957,4.2909,4.2813,4.2813,4.2813,4.2813,4.2813,4.2861,4.2957,4.2861,4.2861,4.2957,4.2861,4.2813,4.2813,4.0936,4.1951,4.2813,4.2813,4.2813,4.2813,4.2813,4.2813,4.2813,4.2813,4.2813,4.2813,4.2813,4.2813,4.3005,4.3578,4.4513,4.5223,4.5506,4.5742,4.5883,4.5883,4.5883,4.5883,4.5883,4.5883,4.5883,4.5883,4.5883,4.5883,4.5883,4.5883,4.5883,4.5883,4.5883,4.5883,4.5883,4.5883,4.5883,4.5883,4.5601,4.5506,4.5506,4.527,4.5176,4.5176,4.5176,4.5176,4.5176,4.5176,4.5176,4.5176,4.5176,4.4987,4.4786,4.4965,4.4827,4.4725,4.5067,4.5173,4.5226,4.5439,4.5492,4.5585,4.5952,4.5802,4.5662,4.5877,4.5527,4.5125,4.4834,4.4517,4.4223,4.3936,4.3731,4.3531,4.3244,4.3244,4.3244,4.3244,4.3435,4.3817,4.4341,4.4388,4.4388,4.437,4.3895,4.3483,4.3244,4.2957,4.2813,4.2813,4.2813,4.2813,4.2813,4.2813,4.2813,4.2813,4.2813,4.2813,4.2813,4.2813,4.2813,4.2813,4.2813,4.2813,4.2813,4.2813,4.2813,4.2813,4.2813,4.2813,4.2813,4.2813,4.2813,4.2813,4.1106,4.1995,4.2727,4.2796,4.2813,4.2813,4.2813,4.2813,4.2813,4.2813,4.2813,4.2813,4.2813,4.2813,4.3005,4.3578,4.4465,4.5034,4.5081,4.5601,4.5883,4.5883,4.5883,4.5883,4.5883,4.5883,4.5883,4.5883,4.5883,4.5883,4.5883,4.5883,4.5883,4.5883,4.5883,4.5836,4.5742,4.5742,4.5695,4.5601,4.5176,4.4987,4.4939,4.4578,4.4388,4.4388,4.4388,4.4388,4.4388,4.4388,4.4388,4.4388,4.4388,4.4376,4.4405,4.4705,4.475,4.4825,4.523,4.5336,4.5354,4.5424,4.5442,4.5442,4.5442,4.5438,4.5518,4.5522,4.5438,4.5189,4.4766,4.4386,4.4011,4.3475,4.3104,4.2881,4.2813,4.2813,4.2813,4.2813,4.3196,4.3674,4.4198,4.4198,4.4008,4.3626,4.3531,4.3292,4.2813,4.2813,4.2813,4.2813,4.2813,4.2813,4.2813,4.2813,4.2813,4.2813,4.2813,4.2813,4.2813,4.2813,4.2813,4.2813,4.2813,4.2813,4.2813,4.2813,4.2813,4.2813,4.2813,4.2813,4.2813,4.2813,4.2813,4.2813,4.1459,4.2009,4.2467,4.2745,4.2813,4.2813,4.2813,4.2813,4.2813,4.2813,4.2813,4.2813,4.2813,4.2813,4.3005,4.3578,4.415,4.4655,4.5081,4.5601,4.5883,4.5883,4.5883,4.5883,4.5883,4.5883,4.5883,4.5883,4.5883,4.5883,4.5883,4.5883,4.5883,4.5883,4.5883,4.5648,4.5223,4.5223,4.4987,4.4626,4.4531,4.4483,4.4483,4.4436,4.4388,4.4388,4.4388,4.4388,4.4388,4.4388,4.4388,4.4388,4.4388,4.4332,4.4259,4.4263,4.4233,4.4188,4.4549,4.4652,4.4738,4.5082,4.5151,4.5151,4.5151,4.5242,4.5433,4.5783,4.5192,4.4603,4.4553,4.4261,4.3901,4.346,4.3358,4.3221,4.2847,4.2813,4.2813,4.2813,4.2861,4.3148,4.3674,4.3292,4.3196,4.3578,4.3196,4.2861,4.2813,4.2813,4.2813,4.2813,4.2813,4.2813,4.2813,4.2813,4.2813,4.2813,4.2813,4.2813,4.2813,4.2813,4.2813,4.2813,4.2813,4.2813,4.2813,4.2813,4.2813,4.2813,4.2813,4.2813,4.2813,4.2813,4.2813,4.2813,4.1581,4.2022,4.2416,4.2745,4.2813,4.2813,4.2813,4.2813,4.2813,4.2813,4.2813,4.2813,4.2813,4.2813,4.2909,4.3148,4.3912,4.4483,4.4703,4.5459,4.5883,4.5883,4.5883,4.5883,4.5883,4.5883,4.5883,4.5883,4.5883,4.5883,4.5883,4.5601,4.5459,4.5459,4.5176,4.4939,4.4703,4.4703,4.456,4.4388,4.4055,4.396,4.3912,4.3626,4.3531,4.3531,4.3531,4.3531,4.3531,4.3531,4.3531,4.3531,4.3531,4.363,4.3783,4.4007,4.4188,4.4368,4.4745,4.4847,4.4899,4.507,4.5104,4.5104,4.5104,4.5135,4.525,4.5422,4.5118,4.4847,4.4847,4.4539,4.4231,4.406,4.3683,4.3358,4.3138,4.2933,4.2813,4.2813,4.2813,4.2909,4.3148,4.2957,4.2909,4.3148,4.2957,4.2813,4.2813,4.2813,4.2813,4.2813,4.2813,4.2813,4.2813,4.2813,4.2813,4.2813,4.2813,4.2813,4.2813,4.2813,4.2813,4.2813,4.2813,4.2813,4.2813,4.2813,4.2813,4.2813,4.2813,4.2813,4.2813,4.2813,4.2813,4.2813]},{"header":{"parameterUnit":"m.s-1","parameterCategory":1,"la1":30.6,"la2":28.766,"lo1":-90.7593,"lo2":-88.6598,"dy":0.0162,"dx":0.0183,"nx":116,"ny":114,"refTime":"2023-04-08T12:00:00:Z","depth":0,"parameterNumber":3,"parameterNumberName":"V-component_of_WINDS"},"data":[0.0,0.0,0.0,0.0,0.0,0.0,0.0,0.0,0.0,0.0,0.0,0.0,0.0,0.0,0.0,0.0,0.0,0.0,0.0,0.0,0.0,0.0,0.0,0.0,0.0,0.0,0.0,0.0,0.0,0.0,0.0,0.0,0.0,0.0,0.0,0.0,0.0,0.0,0.0,0.0,0.0,0.0,0.0,0.0,0.0,0.0,0.0,0.0,0.0,0.0,0.0,0.0,0.0,0.0,0.0,0.0,0.0,0.0,0.0,0.0,0.0,0.0,0.0,0.0,0.0,0.0,0.0,0.0,0.0,0.0,0.0,0.0,0.0,0.0,0.0,0.0,0.0,0.0,0.0,0.0,0.0,0.0,0.0,0.0,0.0,0.0,0.0,0.0,0.0,0.0,0.0,0.0,0.0,0.0,0.0,0.0,0.0,0.0,0.0,0.0,0.0,0.0,0.0,0.0,0.0,0.0,0.0,0.0,0.0,0.0,0.0,0.0,0.0,0.0,0.0,0.0,0.0,0.0,0.0,0.0,0.0,0.0,0.0,0.0,0.0,0.0,0.0,0.0,0.0,0.0,0.0,0.0,0.0,0.0,0.0,0.0,0.0,0.0,0.0,0.0,0.0,0.0,0.0,0.0,0.0,0.0,0.0,0.0,0.0,0.0,0.0,0.0,0.0,0.0,0.0,0.0,0.0,0.0,0.0,0.0,0.0,0.0,0.0,0.0,0.0,0.0,0.0,0.0,0.0,0.0,0.0,0.0,0.0,0.0,0.0,0.0,0.0,0.0,0.0,0.0,0.0,0.0,0.0,0.0,0.0,0.0,0.0,0.0,0.0,0.0,0.0,0.0,0.0,0.0,0.0,0.0,0.0,0.0,0.0,0.0,0.0,0.0,0.0,0.0,0.0,0.0,0.0,0.0,0.0,0.0,0.0,0.0,0.0,0.0,0.0,0.0,0.0,0.0,0.0,0.0,0.0,0.0,0.0,0.0,0.0,0.0,0.0,0.0,0.0,0.0,0.0,0.0,0.0,0.0,0.0,0.0,0.0,0.0,0.0,0.0,0.0,0.0,0.0,0.0,0.0,0.0,0.0,0.0,0.0,0.0,0.0,0.0,0.0,0.0,0.0,0.0,0.0,0.0,0.0,0.0,0.0,0.0,0.0,0.0,0.0,0.0,0.0,0.0,0.0,0.0,0.0,0.0,0.0,0.0,0.0,0.0,0.0,0.0,0.0,0.0,0.0,0.0,0.0,0.0,0.0,0.0,0.0,0.0,0.0,0.0,0.0,0.0,0.0,0.0,0.0,0.0,0.0,0.0,0.0,0.0,0.0,0.0,0.0,0.0,0.0,0.0,0.0,0.0,0.0,0.0,0.0,0.0,0.0,0.0,0.0,0.0,0.0,0.0,0.0,0.0,0.0,0.0,0.0,0.0,0.0,0.0,0.0,0.0,0.0,0.0,0.0,0.0,0.0,0.0,0.0,0.0,0.0,0.0,0.0,0.0,0.0,0.0,0.0,0.0,0.0,0.0,0.0,0.0,0.0,0.0,0.0,0.0,0.0,0.0,0.0,0.0,0.0,0.0,0.0,0.0,0.0,0.0,0.0,0.0,0.0,0.0,0.0,0.0,0.0,0.0,0.0,0.0,0.0,0.0,0.0,0.0,0.0,0.0,0.0,0.0,0.0,0.0,0.0,0.0,0.0,0.0,0.0,0.0,0.0,0.0,0.0,0.0,0.0,0.0,0.0,0.0,0.0,0.0,0.0,0.0,0.0,0.0,0.0,0.0,0.0,0.0,0.0,0.0,0.0,0.0,0.0,0.0,0.0,0.0,0.0,0.0,0.0,0.0,0.0,0.0,0.0,0.0,0.0,0.0,0.0,0.0,0.0,0.0,0.0,0.0,0.0,0.0,0.0,0.0,0.0,0.0,0.0,0.0,0.0,0.0,0.0,0.0,0.0,0.0,0.0,0.0,0.0,0.0,0.0,0.0,0.0,0.0,0.0,0.0,0.0,0.0,0.0,0.0,0.0,0.0,0.0,0.0,0.0,0.0,0.0,0.0,0.0,0.0,0.0,0.0,0.0,0.0,0.0,0.0,0.0,0.0,0.0,0.0,0.0,0.0,0.0,0.0,0.0,0.0,0.0,0.0,0.0,0.0,0.0,0.0,0.0,0.0,0.0,0.0,0.0,0.0,0.0,0.0,0.0,0.0,0.0,0.0,0.0,0.0,0.0,0.0,0.0,0.0,0.0,0.0,0.0,0.0,0.0,0.0,0.0,0.0,0.0,0.0,0.0,0.0,0.0,0.0,0.0,0.0,0.0,0.0,0.0,0.0,0.0,0.0,0.0,0.0,0.0,0.0,0.0,0.0,0.0,0.0,0.0,0.0,0.0,0.0,0.0,0.0,0.0,0.0,0.0,0.0,0.0,0.0,0.0,0.0,0.0,0.0,0.0,0.0,0.0,0.0,0.0,0.0,0.0,0.0,0.0,0.0,0.0,0.0,0.0,0.0,0.0,0.0,0.0,0.0,0.0,0.0,0.0,0.0,0.0,0.0,0.0,0.0,0.0,0.0,0.0,0.0,0.0,0.0,0.0,0.0,0.0,0.0,0.0,0.0,0.0,0.0,0.0,0.0,0.0,0.0,0.0,0.0,0.0,0.0,0.0,0.0,0.0,0.0,0.0,0.0,0.0,0.0,0.0,0.0,0.0,0.0,0.0,0.0,0.0,0.0,0.0,0.0,0.0,0.0,0.0,0.0,0.0,0.0,0.0,0.0,0.0,0.0,0.0,0.0,0.0,0.0,0.0,0.0,0.0,0.0,0.0,0.0,0.0,0.0,0.0,0.0,0.0,0.0,0.0,0.0,0.0,0.0,0.0,0.0,0.0,0.0,0.0,0.0,0.0,0.0,0.0,0.0,0.0,0.0,0.0,0.0,0.0,0.0,0.0,0.0,0.0,0.0,0.0,0.0,0.0,0.0,0.0,0.0,0.0,0.0,0.0,0.0,0.0,0.0,0.0,0.0,0.0,0.0,0.0,0.0,0.0,0.0,0.0,0.0,0.0,0.0,0.0,0.0,0.0,0.0,0.0,0.0,0.0,0.0,0.0,0.0,0.0,0.0,0.0,0.0,0.0,0.0,0.0,0.0,0.0,0.0,0.0,0.0,0.0,0.0,0.0,0.0,0.0,0.0,0.0,0.0,0.0,0.0,0.0,0.0,0.0,0.0,0.0,0.0,0.0,0.0,0.0,0.0,0.0,0.0,0.0,0.0,0.0,0.0,0.0,0.0,0.0,0.0,0.0,0.0,0.0,0.0,0.0,0.0,0.0,0.0,0.0,0.0,0.0,0.0,0.0,0.0,0.0,0.0,0.0,0.0,0.0,0.0,0.0,0.0,0.0,0.0,0.0,0.0,0.0,0.0,0.0,0.0,0.0,0.0,0.0,0.0,0.0,0.0,0.0,0.0,0.0,0.0,0.0,0.0,0.0,0.0,0.0,0.0,0.0,0.0,0.0,0.0,0.0,0.0,0.0,0.0,0.0,0.0,0.0,0.0,0.0,0.0,0.0,0.0,0.0,0.0,0.0,0.0,0.0,0.0,0.0,0.0,0.0,0.0,0.0,0.0,0.0,0.0,0.0,0.0,0.0,0.0,0.0,0.0,0.0,0.0,0.0,0.0,0.0,0.0,0.0,0.0,0.0,0.0,0.0,0.0,0.0,0.0,0.0,0.0,0.0,0.0,0.0,0.0,0.0,0.0,0.0,0.0,0.0,0.0,0.0,0.0,0.0,0.0,0.0,0.0,0.0,0.0,0.0,0.0,0.0,0.0,0.0,0.0,0.0,0.0,0.0,0.0,0.0,0.0,0.0,0.0,0.0,0.0,0.0,0.0,0.0,0.0,0.0,0.0,0.0,0.0,0.0,0.0,0.0,0.0,0.0,0.0,0.0,0.0,0.0,0.0,0.0,0.0,0.0,0.0,0.0,0.0,0.0,0.0,0.0,0.0,0.0,0.0,0.0,0.0,0.0,0.0,0.0,0.0,0.0,0.0,0.0,0.0,0.0,0.0,0.0,0.0,0.0,0.0,0.0,0.0,0.0,0.0,0.0,0.0,0.0,0.0,0.0,0.0,0.0,0.0,0.0,0.0,0.0,0.0,0.0,0.0,0.0,0.0,0.0,0.0,0.0,0.0,0.0,0.0,0.0,0.0,0.0,0.0,0.0,0.0,0.0,0.0,0.0,0.0,0.0,0.0,0.0,0.0,0.0,0.0,0.0,0.0,0.0,0.0,0.0,0.0,0.0,0.0,0.0,0.0,0.0,0.0,0.0,0.0,0.0,0.0,0.0,0.0,0.0,0.0,0.0,0.0,0.0,0.0,0.0,0.0,0.0,0.0,0.0,0.0,0.0,0.0,0.0,0.0,0.0,0.0,0.0,0.0,0.0,0.0,0.0,0.0,0.0,0.0,0.0,0.0,0.0,0.0,0.0,0.0,0.0,0.0,0.0,0.0,0.0,0.0,0.0,0.0,0.0,0.0,0.0,0.0,0.0,0.0,0.0,0.0,0.0,0.0,0.0,0.0,0.0,0.0,0.0,0.0,0.0,0.0,0.0,0.0,0.0,0.0,0.0,0.0,0.0,0.0,0.0,0.0,0.0,0.0,0.0,0.0,0.0,0.0,0.0,0.0,0.0,0.0,0.0,0.0,0.0,0.0,0.0,0.0,0.0,0.0,0.0,0.0,0.0,0.0,0.0,0.0,0.0,0.0,0.0,0.0,0.0,0.0,0.0,0.0,0.0,0.0,0.0,0.0,0.0,0.0,0.0,0.0,0.0,0.0,0.0,0.0,0.0,0.0,0.0,0.0,0.0,0.0,0.0,0.0,0.0,0.0,0.0,0.0,0.0,0.0,0.0,0.0,0.0,0.0,0.0,0.0,0.0,0.0,0.0,0.0,0.0,0.0,0.0,0.0,0.0,0.0,0.0,0.0,0.0,0.0,0.0,0.0,0.0,0.0,0.0,0.0,0.0,0.0,0.0,0.0,0.0,0.0,0.0,0.0,0.0,0.0,0.0,0.0,0.0,0.0,0.0,0.0,0.0,0.0,0.0,0.0,0.0,0.0,0.0,0.0,0.0,0.0,0.0,0.0,0.0,0.0,0.0,0.0,0.0,0.0,0.0,0.0,0.0,0.0,0.0,0.0,0.0,0.0,0.0,0.0,0.0,0.0,0.0,0.0,0.0,0.0,0.0,0.0,0.0,0.0,0.0,0.0,0.0,0.0,0.0,0.0,0.0,0.0,0.0,0.0,0.0,0.0,0.0,0.0,0.0,0.0,0.0,0.0,0.0,0.0,0.0,0.0,0.0,0.0,0.0,0.0,0.0,0.0,0.0,0.0,0.0,0.0,0.0,0.0,0.0,0.0,0.0,0.0,0.0,0.0,0.0,0.0,0.0,0.0,0.0,0.0,0.0,0.0,0.0,0.0,0.0,0.0,0.0,0.0,0.0,0.0,0.0,0.0,0.0,0.0,0.0,0.0,0.0,0.0,0.0,0.0,0.0,0.0,0.0,0.0,0.0,0.0,0.0,0.0,0.0,0.0,0.0,0.0,0.0,0.0,0.0,0.0,0.0,0.0,0.0,0.0,0.0,0.0,0.0,0.0,0.0,0.0,0.0,0.0,0.0,0.0,0.0,0.0,0.0,0.0,0.0,0.0,0.0,0.0,0.0,0.0,0.0,0.0,0.0,0.0,0.0,0.0,0.0,0.0,0.0,0.0,0.0,0.0,0.0,0.0,0.0,0.0,0.0,0.0,0.0,0.0,0.0,0.0,0.0,0.0,0.0,0.0,0.0,0.0,0.0,0.0,0.0,0.0,0.0,0.0,0.0,0.0,0.0,0.0,0.0,0.0,0.0,0.0,0.0,0.0,0.0,0.0,0.0,0.0,0.0,0.0,0.0,0.0,0.0,0.0,0.0,0.0,0.0,0.0,0.0,0.0,0.0,0.0,0.0,0.0,0.0,0.0,0.0,0.0,0.0,0.0,0.0,0.0,0.0,0.0,0.0,0.0,0.0,0.0,0.0,0.0,0.0,0.0,0.0,0.0,4.7115,4.6223,0.0,0.0,0.0,0.0,0.0,0.0,0.0,0.0,0.0,0.0,0.0,0.0,0.0,0.0,0.0,0.0,0.0,0.0,0.0,0.0,0.0,0.0,0.0,0.0,0.0,0.0,0.0,0.0,0.0,0.0,0.0,0.0,0.0,0.0,0.0,0.0,0.0,4.115,4.115,4.1616,4.246,4.1831,4.1474,4.1389,0.0,0.0,0.0,0.0,0.0,0.0,0.0,0.0,0.0,0.0,0.0,0.0,0.0,0.0,0.0,0.0,0.0,0.0,0.0,0.0,0.0,0.0,0.0,0.0,0.0,0.0,0.0,0.0,0.0,0.0,0.0,0.0,0.0,0.0,0.0,0.0,0.0,0.0,0.0,0.0,0.0,0.0,0.0,0.0,0.0,0.0,0.0,0.0,0.0,0.0,0.0,0.0,0.0,0.0,0.0,0.0,0.0,0.0,0.0,0.0,0.0,0.0,0.0,0.0,0.0,0.0,0.0,0.0,0.0,0.0,4.9563,4.8373,0.0,0.0,0.0,0.0,0.0,0.0,0.0,0.0,0.0,0.0,0.0,0.0,0.0,0.0,0.0,0.0,0.0,0.0,0.0,0.0,0.0,0.0,0.0,4.001,4.047,4.0618,4.0585,4.0573,0.0,0.0,0.0,0.0,0.0,0.0,4.0619,4.0783,4.1212,4.1945,4.2254,4.2834,4.3684,4.3766,4.3813,4.3825,4.3158,0.0,0.0,0.0,0.0,0.0,0.0,0.0,0.0,0.0,0.0,0.0,0.0,0.0,0.0,0.0,0.0,0.0,0.0,0.0,0.0,0.0,0.0,0.0,0.0,0.0,0.0,0.0,0.0,0.0,0.0,0.0,0.0,0.0,0.0,0.0,0.0,0.0,0.0,0.0,0.0,0.0,0.0,0.0,0.0,0.0,0.0,0.0,0.0,0.0,0.0,0.0,0.0,0.0,0.0,0.0,0.0,0.0,0.0,0.0,0.0,0.0,0.0,0.0,5.4229,5.4665,5.5404,5.5379,5.5262,5.4952,5.2726,5.1372,5.0727,5.003,0.0,0.0,0.0,0.0,0.0,0.0,0.0,0.0,0.0,0.0,0.0,0.0,0.0,0.0,0.0,0.0,0.0,0.0,0.0,0.0,0.0,4.0485,4.0854,4.1551,4.0976,4.0924,4.1661,0.0,0.0,0.0,0.0,0.0,4.076,4.1531,4.1972,4.205,4.3597,4.4798,4.5654,4.6351,4.7027,4.7555,4.4433,4.3069,4.3069,0.0,0.0,0.0,0.0,0.0,0.0,0.0,0.0,0.0,0.0,0.0,0.0,0.0,0.0,0.0,0.0,0.0,0.0,0.0,0.0,0.0,0.0,0.0,0.0,0.0,0.0,0.0,0.0,0.0,0.0,0.0,0.0,0.0,0.0,0.0,0.0,0.0,0.0,0.0,0.0,0.0,4.8068,4.8943,0.0,0.0,0.0,0.0,0.0,0.0,0.0,0.0,0.0,0.0,0.0,0.0,0.0,5.3538,5.4375,5.5125,5.592,5.6795,5.7476,5.8228,5.8928,5.8878,5.8458,5.7771,5.7271,0.0,5.2617,5.2386,0.0,0.0,0.0,0.0,0.0,0.0,0.0,0.0,0.0,0.0,0.0,0.0,0.0,0.0,0.0,0.0,0.0,0.0,0.0,0.0,0.0,4.1401,4.1783,4.2559,4.2357,4.2338,4.2725,4.1963,0.0,0.0,0.0,4.1039,4.1507,4.1912,4.2812,4.4283,4.552,4.6564,4.7424,4.7757,4.8138,4.8406,4.6823,4.6093,4.5943,4.4993,0.0,0.0,0.0,0.0,0.0,0.0,0.0,0.0,0.0,0.0,0.0,0.0,0.0,0.0,0.0,0.0,0.0,0.0,0.0,0.0,0.0,0.0,0.0,0.0,0.0,0.0,0.0,0.0,0.0,0.0,0.0,0.0,0.0,0.0,0.0,0.0,0.0,0.0,0.0,4.9111,5.0009,5.1296,5.108,5.0955,0.0,0.0,0.0,0.0,0.0,0.0,0.0,0.0,0.0,5.5337,5.6168,5.6975,5.7687,5.8074,5.8656,5.9457,5.9798,6.0354,6.11,6.1003,6.0733,6.0377,6.0238,5.9075,5.7115,5.5116,5.3756,5.2827,0.0,0.0,0.0,0.0,4.9443,4.8992,0.0,0.0,0.0,0.0,0.0,0.0,0.0,0.0,0.0,0.0,0.0,0.0,4.189,4.2282,4.2774,4.3591,4.3493,4.3504,4.3737,4.2934,4.2435,4.2435,4.1817,4.1781,4.2444,4.2873,4.4153,4.632,4.7174,4.8105,4.9194,4.9194,4.9427,4.9818,4.9844,4.9287,4.8264,4.6962,4.6402,4.6237,0.0,0.0,0.0,0.0,0.0,0.0,0.0,0.0,0.0,0.0,0.0,0.0,0.0,0.0,0.0,0.0,0.0,0.0,0.0,0.0,0.0,0.0,0.0,0.0,0.0,0.0,0.0,0.0,0.0,0.0,0.0,0.0,0.0,0.0,0.0,0.0,0.0,5.1399,5.24,5.428,5.4189,5.416,0.0,0.0,0.0,0.0,0.0,0.0,5.6664,5.7381,5.8144,5.8843,5.9695,6.0453,6.1182,6.1182,6.1599,6.2395,6.2395,6.2799,6.3535,6.3435,6.3229,6.2937,6.2606,6.1994,6.1008,5.7763,5.5883,5.4923,5.4047,5.3163,5.2382,5.2317,5.2113,5.1871,0.0,0.0,0.0,0.0,0.0,0.0,0.0,0.0,0.0,0.0,0.0,4.1992,4.2108,4.2845,4.3695,4.4545,4.3889,4.3737,4.4587,4.3801,4.3316,4.3316,4.3337,4.3386,4.3425,4.4984,4.6266,4.7231,4.8089,4.9409,5.1041,5.1041,5.1899,5.3455,5.346,5.16,4.8464,4.8383,4.8325,4.81,4.6432,0.0,0.0,0.0,0.0,0.0,0.0,0.0,0.0,0.0,0.0,0.0,0.0,0.0,0.0,0.0,0.0,0.0,0.0,0.0,0.0,0.0,0.0,0.0,0.0,0.0,0.0,0.0,0.0,0.0,0.0,0.0,0.0,0.0,0.0,0.0,0.0,0.0,0.0,5.7736,5.7257,0.0,0.0,0.0,0.0,5.8803,5.8873,5.9293,6.0109,6.0905,6.1666,6.2336,6.3204,6.3959,6.4661,6.4661,6.5031,6.5836,6.5836,6.6236,6.6967,6.6861,6.6349,6.5459,6.457,6.3731,6.2772,6.0124,5.855,5.7698,5.663,5.5723,5.5006,5.4863,5.4342,5.3673,0.0,0.0,0.0,0.0,0.0,0.0,0.0,0.0,3.8595,3.9461,4.1075,4.2371,4.2878,4.4214,4.5193,4.5504,4.5773,4.5811,4.554,4.4774,4.4313,4.4313,4.3777,4.4013,4.5103,4.623,4.755,4.8952,4.9865,5.0884,5.2053,5.2614,5.3205,5.375,5.3777,5.3069,5.1853,5.1221,5.0635,5.0044,4.8884,4.8053,0.0,0.0,0.0,0.0,0.0,0.0,0.0,0.0,0.0,0.0,0.0,0.0,0.0,0.0,0.0,0.0,0.0,0.0,0.0,0.0,0.0,0.0,0.0,0.0,0.0,0.0,0.0,0.0,0.0,0.0,0.0,0.0,0.0,0.0,0.0,0.0,0.0,6.0325,6.027,0.0,6.1585,6.1861,6.2118,6.2364,6.2853,6.3274,6.3579,6.4329,6.4847,6.5038,6.5817,6.6301,6.6518,6.6518,6.6632,6.6935,6.6862,6.6966,6.7193,6.7057,6.6807,6.6465,6.6063,6.5759,6.5346,6.3316,6.1316,5.9496,5.9119,5.8106,5.6786,5.6756,5.6167,5.5429,0.0,0.0,0.0,0.0,0.0,0.0,0.0,0.0,3.883,4.0279,4.1727,4.2941,4.3798,4.5406,4.631,4.6038,4.6812,4.6929,4.6077,4.5494,4.5183,4.5183,4.4945,4.5295,4.6424,4.7589,4.8877,5.0329,5.1203,5.2227,5.3405,5.3966,5.4401,5.4676,5.4949,5.5066,5.506,5.4672,5.354,5.1936,5.1049,5.0335,4.9692,0.0,0.0,0.0,0.0,0.0,0.0,0.0,0.0,0.0,0.0,0.0,0.0,0.0,0.0,0.0,0.0,0.0,0.0,0.0,0.0,0.0,0.0,0.0,0.0,0.0,0.0,0.0,0.0,0.0,0.0,0.0,0.0,0.0,0.0,5.9258,6.0952,6.3745,6.3973,6.4319,6.5448,6.5994,6.63,6.63,6.6789,6.7079,6.7048,6.7793,6.816,6.8069,6.8776,6.916,6.9105,6.9105,6.9039,6.9001,6.8934,6.8705,6.8334,6.8231,6.7988,6.7645,6.732,6.7186,6.7111,6.5721,6.4114,6.2431,6.1276,6.0092,5.903,5.899,5.8584,5.8067,0.0,0.0,0.0,0.0,0.0,0.0,0.0,3.8334,3.9255,4.1879,4.2966,4.3819,4.4715,4.6305,4.6968,4.6077,4.6812,4.6929,4.6077,4.5999,4.5999,4.6038,4.6851,4.7315,4.7392,4.9068,5.0367,5.125,5.2147,5.3447,5.5105,5.5146,5.5613,5.6469,5.7248,5.7637,5.7715,5.8535,5.6998,5.3894,5.3002,5.258,5.2289,0.0,0.0,0.0,0.0,0.0,0.0,0.0,0.0,0.0,0.0,0.0,0.0,0.0,0.0,0.0,0.0,0.0,0.0,0.0,0.0,0.0,0.0,0.0,0.0,0.0,0.0,0.0,0.0,0.0,0.0,0.0,0.0,0.0,6.1089,6.233,6.4628,6.8007,6.8255,6.8809,7.0539,7.0612,7.0563,7.0563,7.0563,7.0522,7.0476,7.1268,7.1591,7.1399,7.212,7.25,7.2403,7.2403,7.2343,7.2185,7.2185,7.1656,7.0654,7.0643,7.0127,6.9192,6.8415,6.8077,6.7964,6.7186,6.6848,6.65,6.3143,6.1781,6.1771,6.1613,6.1525,6.1477,0.0,0.0,0.0,0.0,0.0,0.0,3.8122,3.8825,3.9942,4.1929,4.2954,4.3819,4.4715,4.6305,4.6968,4.6077,4.6812,4.6929,4.6077,4.5999,4.6271,4.6929,4.7159,4.79,4.9146,5.0256,5.1283,5.2147,5.3665,5.4621,5.5096,5.5816,5.6565,5.7342,5.7575,5.8004,5.8627,5.8861,5.8418,5.7497,5.6622,5.5464,5.4185,0.0,0.0,0.0,0.0,0.0,0.0,0.0,0.0,0.0,0.0,0.0,0.0,0.0,0.0,0.0,0.0,0.0,0.0,0.0,0.0,0.0,0.0,0.0,0.0,0.0,0.0,0.0,0.0,0.0,0.0,0.0,6.2969,6.4616,6.4385,6.5832,6.7889,7.0532,7.1366,7.2084,7.3089,7.376,7.4087,7.4087,7.4026,7.3935,7.3947,7.4029,7.3764,7.3117,7.323,7.2952,7.2273,7.2235,7.2185,7.2033,7.2025,7.1837,7.1546,7.1421,7.0953,7.0142,6.9917,6.9466,6.8817,6.8002,6.7664,6.7476,6.5305,6.4053,6.3355,6.2752,6.2082,6.1487,0.0,0.0,0.0,0.0,0.0,0.0,3.8598,3.9265,4.0346,4.2444,4.3155,4.3904,4.5146,4.6463,4.6934,4.6058,4.6793,4.6915,4.6077,4.6349,4.6773,4.7276,4.8017,4.9027,5.0428,5.1314,5.2347,5.3602,5.4619,5.5307,5.5706,5.6578,5.7245,5.7713,5.8453,5.9077,5.9583,5.9934,6.0314,6.0573,6.009,5.8584,5.6522,5.5691,5.5052,5.4445,5.3598,5.3275,5.323,5.2812,0.0,0.0,0.0,0.0,0.0,0.0,0.0,0.0,0.0,0.0,0.0,0.0,0.0,0.0,0.0,0.0,0.0,0.0,0.0,0.0,0.0,0.0,0.0,0.0,6.5718,6.7763,6.9186,6.9932,7.1061,7.315,7.4103,7.4903,7.5692,7.6191,7.647,7.647,7.6378,7.6265,7.6218,7.6102,7.5822,7.5327,7.5177,7.4678,7.3745,7.3731,7.3468,7.301,7.2983,7.2728,7.2334,7.223,7.1757,7.1006,7.1006,7.0517,6.9718,6.9241,6.8828,6.8329,0.0,0.0,0.0,0.0,6.3644,6.3102,0.0,0.0,0.0,0.0,0.0,0.0,3.9256,3.961,4.0616,4.3063,4.3379,4.4041,4.5711,4.6603,4.6771,4.6066,4.6687,4.6854,4.6188,4.6885,4.739,4.7587,4.9185,5.0467,5.1316,5.2289,5.3563,5.5105,5.5213,5.5745,5.6663,5.7362,5.7791,5.8063,5.9622,6.036,6.0516,6.1373,6.2192,6.2893,6.301,6.1541,5.9271,5.8462,5.8061,5.778,5.7007,5.6683,5.6444,5.5637,0.0,0.0,0.0,0.0,0.0,0.0,0.0,0.0,0.0,0.0,0.0,0.0,0.0,0.0,0.0,0.0,0.0,0.0,0.0,0.0,0.0,0.0,0.0,0.0,6.8541,7.1151,7.4304,7.4293,7.4435,7.5736,7.6529,7.7278,7.8042,7.8103,7.8075,7.8075,7.8017,7.7918,7.78,7.7769,0.0,0.0,0.0,7.689,7.602,7.5949,7.5423,7.4519,7.4519,7.4011,7.3033,7.3033,7.262,7.182,7.182,7.137,7.063,7.063,7.0142,6.9192,6.7562,6.6886,6.6698,6.5936,6.5622,6.5436,0.0,0.0,0.0,0.0,0.0,0.0,3.9363,4.0024,4.1136,4.2998,4.3276,4.3969,4.5716,4.6048,4.6105,4.5917,4.6072,4.6434,4.7006,4.7203,4.7914,4.934,5.0386,5.1319,5.2135,5.3747,5.4749,5.5105,5.5855,5.6656,5.7479,5.7635,5.8453,5.9817,6.0168,6.0672,6.1412,6.227,6.2737,6.2971,6.3595,6.3149,6.2027,6.1879,6.0918,5.9688,5.9455,5.8894,5.8308,5.8111,5.7522,5.6881,5.6719,5.5695,0.0,0.0,0.0,0.0,0.0,0.0,0.0,0.0,0.0,0.0,0.0,0.0,0.0,0.0,0.0,0.0,0.0,0.0,0.0,7.0493,7.2287,7.4101,7.6152,7.795,7.8699,7.7667,7.8197,7.8713,7.8866,7.9409,7.973,7.973,7.9629,7.9557,7.9499,7.9367,7.8944,7.8241,7.8081,7.7553,7.6632,7.6609,7.6126,7.522,7.522,0.0,7.3972,7.3972,7.3484,7.2658,7.2658,7.2207,7.1482,7.1482,7.1006,7.0067,6.8415,6.7374,6.6773,6.6623,6.6537,6.6527,0.0,0.0,0.0,0.0,0.0,0.0,3.9834,4.0317,4.1244,4.2945,4.3227,4.388,4.5624,4.5793,4.5814,4.5831,4.5864,4.6287,4.7206,4.7672,4.8699,5.0405,5.1334,5.2388,5.3689,5.4591,5.5469,5.6361,5.685,5.7539,5.8355,5.8797,5.9466,6.0321,6.1218,6.1841,6.2309,6.3127,6.375,6.4179,6.4605,6.4756,6.4663,6.3798,6.2914,6.216,6.2065,6.1497,6.0681,6.025,5.9466,5.863,5.82,5.7442,5.6515,0.0,0.0,0.0,0.0,0.0,0.0,0.0,0.0,0.0,0.0,0.0,0.0,0.0,0.0,6.6109,6.6916,0.0,7.1487,7.3561,7.5206,7.679,7.8468,8.0067,8.0583,7.9314,8.0268,8.0982,8.0933,8.1164,8.133,8.133,8.1209,8.0921,8.0466,8.0288,7.9807,7.8988,7.8824,7.8316,7.7478,7.737,7.6897,7.6,7.5587,7.5173,7.4798,7.4385,7.396,7.3559,7.3559,7.3071,7.2282,7.1858,7.1445,7.1006,7.0179,6.9091,6.7964,6.7551,6.7411,6.7336,0.0,0.0,0.0,0.0,0.0,0.0,0.0,4.0484,4.1108,4.2613,4.3,4.3721,4.5224,4.5579,4.5719,4.5762,4.5821,4.6299,4.7346,4.8244,4.9504,5.125,5.234,5.3602,5.5191,5.5381,5.6254,5.7851,5.7912,5.8366,5.9257,5.9944,6.0465,6.086,6.2262,6.2966,6.3205,6.4023,6.4761,6.5424,6.5579,6.6083,6.654,6.4932,6.4247,6.4082,6.4012,6.3323,6.2348,6.1603,6.0895,6.0138,5.9428,5.9022,5.8569,5.7172,5.6622,0.0,0.0,0.0,0.0,0.0,0.0,0.0,0.0,6.3205,6.4352,6.4506,6.7109,6.9575,7.0357,7.2547,7.4765,7.6388,7.7858,7.9291,8.0774,8.1603,8.1791,8.1075,8.2076,8.2769,8.2686,8.251,8.2434,8.2434,8.2259,8.183,8.1161,8.0995,8.0547,7.9729,7.9573,7.9125,7.8309,7.8201,7.7689,7.6851,7.6187,7.5812,7.5624,7.4798,7.4423,7.4423,7.4261,7.3822,7.3108,7.2271,7.1933,7.1933,7.1745,7.0882,6.9605,6.879,6.8377,6.8152,0.0,0.0,0.0,0.0,0.0,0.0,0.0,0.0,4.0778,4.1745,4.2561,4.3355,4.4273,4.512,4.5625,4.5632,4.5644,4.634,4.8079,4.9049,5.0325,5.2101,5.3758,5.5077,5.605,5.6825,5.7713,5.8748,5.8746,5.923,6.0086,6.0166,6.1042,6.2549,6.2705,6.3224,6.4023,6.4878,6.5307,6.5462,6.6242,6.6618,6.6596,6.5546,6.4714,6.4082,6.4012,6.2934,6.1525,6.1376,6.1221,6.1138,6.0976,6.0385,5.973,5.9532,5.8881,5.8182,5.7984,5.8495,5.9485,6.1233,6.221,6.3391,0.0,6.7128,6.8045,6.8821,7.099,7.3007,7.3883,7.5983,7.8088,7.9772,8.0688,8.1527,8.2499,8.3209,8.3599,8.3427,8.2922,8.2532,8.2521,8.235,8.2214,8.2214,8.2085,8.1965,8.1889,8.1731,8.1281,8.0427,8.0305,7.9855,7.8991,7.8966,7.8553,7.7739,7.7664,7.7201,7.6438,7.5624,7.5249,7.5211,7.4498,7.416,7.3998,7.3108,7.277,7.2695,7.1971,7.1595,7.1332,7.0517,6.9729,6.9042,0.0,0.0,0.0,0.0,0.0,0.0,0.0,0.0,0.0,4.1409,4.1876,4.2632,4.3929,4.4935,4.5495,4.5534,4.5543,4.6313,4.8103,4.9088,5.0593,5.2824,5.4106,5.5467,5.6862,5.7253,5.8136,5.9548,5.9544,6.0274,6.1658,6.1642,6.2292,6.3528,6.4034,6.4471,6.4869,6.5726,6.6115,6.6115,6.6504,6.6343,6.5822,6.5437,6.4452,6.3356,6.3811,6.3192,0.0,6.2067,6.1705,6.1251,6.1191,6.0923,6.0494,6.0002,5.9553,5.9365,5.9763,6.0801,6.2157,6.3865,6.5282,6.666,6.8244,6.9973,7.1353,7.1706,7.3752,7.5716,7.6503,7.8237,7.991,8.0984,8.2233,8.3125,8.3382,8.4014,8.4396,8.4321,8.3937,8.3698,8.3767,8.3654,8.3547,8.3547,8.3413,8.3113,8.2597,8.2461,8.2009,8.1157,8.0656,8.0218,7.9867,7.9341,7.8928,7.859,7.8115,7.7701,7.7314,7.6488,7.5849,7.5361,7.4535,7.4186,7.4148,7.3822,7.3672,7.3634,7.3285,7.2834,7.232,7.1494,7.0957,7.0657,0.0,0.0,0.0,0.0,0.0,0.0,0.0,0.0,0.0,0.0,4.1284,4.211,4.379,4.4781,4.5334,4.5429,4.541,4.6225,4.8005,4.8956,5.0624,5.3213,5.4189,5.5595,5.7663,5.7697,5.857,6.0287,6.0328,6.1105,6.2653,6.2655,6.3238,6.4322,6.4993,6.5392,6.5674,6.6306,6.6585,6.6581,6.6572,6.6056,6.5268,6.4994,6.385,6.2401,6.3047,6.2672,6.1865,6.1609,6.1052,6.0567,6.0786,6.0797,6.0683,6.0249,6.0292,6.0666,6.1643,6.3119,6.4782,6.6513,6.8398,7.0077,7.1172,7.2928,7.4413,7.462,7.6276,7.7803,7.8321,7.9959,8.1385,8.1821,8.3295,8.4268,8.4111,8.4469,8.4758,8.4677,8.4518,8.4468,8.4592,8.4481,8.4431,8.4431,8.4305,8.3952,8.3326,8.3223,8.2783,8.197,8.1369,8.0856,8.0405,7.9754,7.9341,7.9079,7.8515,7.8215,7.819,7.7351,7.6375,7.5361,7.4798,7.4423,7.4186,7.4186,7.4186,7.4186,7.4186,7.3822,7.3183,7.2609,7.2083,7.1708,0.0,0.0,0.0,0.0,0.0,0.0,0.0,0.0,0.0,0.0,0.0,0.0,0.0,4.4619,4.5142,4.5203,4.5256,4.6046,4.7787,4.8772,5.047,5.3107,5.4038,5.5736,5.8423,5.8462,5.9336,6.1084,6.113,6.1621,6.2516,6.2521,6.342,6.5056,6.5173,6.5676,6.6454,6.6569,6.6585,6.6581,6.6545,6.5966,6.5114,6.4252,6.2855,6.1352,6.1357,6.0864,6.0034,5.9137,5.8794,5.8901,5.9705,5.9923,6.0064,6.0751,6.1466,6.2402,6.4031,6.5705,6.7404,6.9167,7.1468,7.3755,7.5334,7.6356,7.7208,7.8001,7.879,7.9277,7.9178,8.1184,8.2802,8.269,8.3954,8.4935,8.4798,8.472,8.4639,8.4518,8.4406,8.4317,8.4317,8.4317,8.4317,8.4317,8.4202,8.4086,8.4086,8.4035,8.366,8.2783,8.2745,8.197,8.0405,8.0368,7.9955,7.9116,7.9079,7.9079,7.9041,7.8215,7.695,7.5399,7.5361,7.4911,7.4186,7.4186,7.4186,7.4186,7.4186,7.4186,7.4148,7.4111,7.3097,7.1708,0.0,0.0,0.0,0.0,0.0,0.0,0.0,0.0,0.0,0.0,0.0,0.0,0.0,0.0,0.0,0.0,4.5153,4.5693,4.6904,4.8362,4.9805,5.1278,5.3332,5.5093,5.6559,5.7243,5.8402,6.012,6.0171,6.0949,6.237,6.239,6.3332,6.5041,6.5054,6.5592,6.6449,6.6465,6.612,6.5615,6.5599,6.469,6.332,6.2489,6.1469,6.0293,0.0,5.892,5.9106,5.8802,5.8656,5.8785,5.9618,5.9862,6.0089,6.1345,6.3107,6.4851,6.5942,6.7898,7.0,7.1667,7.362,7.5372,7.64,7.7678,7.8701,7.8973,7.9576,8.0068,7.9992,8.1039,8.2012,8.2391,8.3361,8.4218,8.4526,8.4493,8.4431,8.4356,8.4266,8.4189,8.4189,8.4189,8.4189,8.4189,8.4136,8.411,8.411,8.411,8.396,8.366,8.3083,8.252,8.2007,8.0931,8.0255,7.9955,7.9379,7.9116,7.9079,7.8265,7.7288,7.6225,7.5662,7.4948,7.4186,7.4186,7.4186,7.4186,7.4186,7.4186,7.4186,7.4186,7.3848,7.336,0.0,0.0,0.0,0.0,0.0,0.0,0.0,0.0,0.0,0.0,0.0,0.0,0.0,0.0,0.0,0.0,0.0,4.5434,4.6361,4.7491,4.8787,5.0313,5.2006,5.364,5.5099,5.6055,5.7209,5.8594,5.8963,6.0062,6.1774,6.179,6.2741,6.4488,6.4508,6.4846,6.5417,6.5435,6.513,6.4583,6.4221,6.3243,6.1883,6.1057,6.0007,0.0,5.7727,5.7482,5.7718,5.771,5.7882,5.8267,5.9118,5.9959,6.1008,6.2893,6.4831,6.6705,6.8403,7.0511,7.2604,7.4205,7.5917,7.7313,7.7768,7.8862,7.9709,7.9367,7.9619,7.9876,7.9836,8.0383,8.1035,8.1672,8.2714,8.3566,8.3915,8.4142,8.4292,8.4253,8.4163,8.411,8.411,8.411,8.411,8.411,8.411,8.411,8.411,8.411,8.411,8.411,8.3547,8.3121,8.2821,8.1782,8.0969,8.0405,7.983,7.9417,7.9079,7.8553,7.7877,7.7089,7.6225,7.5399,7.461,7.431,7.4186,7.4186,7.4186,7.4186,7.4186,7.4186,7.4186,7.4186,0.0,0.0,0.0,0.0,0.0,0.0,0.0,0.0,0.0,0.0,0.0,0.0,0.0,0.0,0.0,0.0,0.0,0.0,4.6187,4.6323,4.7483,4.9977,5.0218,5.1499,5.4022,5.4942,5.5792,5.6673,5.7589,5.8921,6.06,6.0696,6.1676,6.3274,6.3371,6.3397,6.3441,6.353,6.355,6.3429,6.2534,6.1625,6.0775,5.9904,5.8572,5.7188,5.7149,5.6599,5.5914,5.6007,5.6664,5.755,5.8399,6.0336,6.2793,6.5285,6.6673,6.807,7.1331,7.346,7.5127,7.6736,7.8322,7.9476,7.9466,7.995,8.0163,7.9267,7.8932,7.8823,7.876,7.928,7.9957,8.0715,8.2137,8.3099,8.3013,8.374,8.4253,8.4123,8.411,8.411,8.411,8.411,8.411,8.411,8.411,8.411,8.411,8.411,8.411,8.411,8.411,8.3697,8.2858,8.2821,8.2007,8.0443,8.0405,7.9992,7.9191,7.9116,7.8666,7.7852,7.7051,7.6187,7.5335,7.4535,7.4186,7.4186,7.4186,7.4186,7.4186,7.4186,7.4186,7.4186,0.0,0.0,0.0,0.0,0.0,0.0,0.0,0.0,0.0,0.0,0.0,0.0,0.0,0.0,0.0,0.0,0.0,0.0,4.5242,4.5916,4.6616,4.7298,4.9184,5.0547,5.1226,5.2774,5.4002,5.4845,5.5753,5.6754,5.7846,5.8484,5.9409,6.0435,6.0452,6.0871,6.15,6.1516,6.117,6.0542,6.03,5.9738,5.8883,5.8096,5.7538,5.711,5.6445,5.6093,5.6015,5.6662,5.8283,6.0154,6.0955,6.2926,6.5273,6.7134,6.917,7.1255,7.3323,7.5103,7.6766,7.8407,7.9018,7.9435,7.9991,7.9705,7.9246,7.8988,7.8366,7.7838,7.7783,7.8301,7.898,7.9592,8.1078,8.2322,8.2785,8.3599,8.415,8.4123,8.411,8.411,8.411,8.411,8.411,8.411,8.411,8.411,8.411,8.411,8.411,8.411,8.411,8.3998,8.3772,8.3121,8.2295,8.1294,8.0706,8.0293,8.0067,7.9417,7.8666,7.7852,7.7013,7.615,7.5335,7.4535,7.4186,7.4186,7.4186,7.4186,7.4186,7.4186,7.4186,7.4186,0.0,0.0,0.0,0.0,0.0,0.0,0.0,0.0,0.0,0.0,0.0,0.0,0.0,0.0,0.0,0.0,0.0,0.0,0.0,4.5406,4.5859,4.6263,4.7711,4.8679,4.9052,5.0794,5.195,5.2447,5.3692,5.4768,5.5679,5.6145,5.6877,5.7748,5.7748,5.8002,5.8543,5.8883,5.8762,0.0,0.0,5.8043,5.7571,5.672,5.6434,5.6384,5.5911,5.6219,5.706,5.8292,5.9926,6.1742,6.3229,6.5205,6.734,6.9299,7.1419,7.3592,7.5529,7.7011,7.8262,7.9511,7.9753,7.9667,7.9733,7.9292,7.8517,7.7374,7.6665,7.6259,7.6154,7.6403,7.71,7.8544,8.0128,8.1458,8.2158,8.3322,8.411,8.411,8.4411,8.4486,8.411,8.4411,8.4486,8.411,8.411,8.411,8.411,8.411,8.411,8.411,8.411,8.411,8.411,8.3622,8.2946,8.212,8.167,8.1069,8.0368,7.988,7.9229,7.8365,7.7539,7.6713,7.5849,7.5061,7.4535,7.4186,7.4186,7.4186,7.4186,7.4186,7.4186,7.4186,0.0,0.0,0.0,0.0,0.0,0.0,0.0,0.0,0.0,0.0,4.2561,0.0,0.0,0.0,0.0,0.0,0.0,0.0,0.0,0.0,4.5236,4.6099,4.6225,4.6642,4.743,4.9014,4.9915,5.0029,5.1648,5.2931,5.3827,5.3942,5.4438,5.5187,5.5187,5.5187,5.5264,5.5947,5.6248,5.6248,5.6248,5.6337,5.6349,0.0,5.539,5.5523,5.5632,5.6712,5.8361,6.015,6.1492,6.2844,6.5269,6.7232,6.9093,7.1636,7.3536,7.5321,7.7738,7.891,7.9667,8.0354,8.0436,8.0078,7.9089,7.8618,7.7745,7.5339,7.4592,7.4298,7.4191,7.427,7.5133,7.7356,7.9103,8.0518,8.1431,8.2907,8.3934,8.4046,8.4698,8.4861,8.4148,8.4749,8.4861,8.4148,8.411,8.411,8.411,8.411,8.411,8.411,8.411,8.411,8.411,8.411,8.3735,8.2971,8.2858,8.207,8.0706,8.0481,7.9992,7.9229,7.829,7.7464,7.6701,7.5762,7.4962,7.4312,7.4188,7.4139,7.4139,7.4139,7.4139,7.4139,0.0,0.0,0.0,0.0,0.0,0.0,0.0,0.0,0.0,0.0,4.3062,4.3615,0.0,0.0,0.0,0.0,0.0,0.0,0.0,0.0,0.0,4.5116,4.5897,4.639,4.6516,4.7538,4.8406,4.9117,5.0088,5.1021,5.191,5.2552,5.2977,5.3105,5.3105,5.3105,5.3143,5.3257,5.3333,5.3333,5.3333,5.3818,5.4562,5.4409,5.4814,0.0,5.6322,5.7243,5.8463,6.0743,6.2629,6.4428,6.6971,6.8913,7.0877,7.3896,7.5535,7.6829,7.9199,8.0408,8.1045,8.1177,8.106,8.0531,7.9014,7.7452,7.5977,7.4822,7.3479,7.252,7.2375,7.3461,7.47,7.5566,7.7654,7.9651,8.1081,8.2184,8.3126,8.375,8.4119,8.426,8.411,8.4223,8.426,8.411,8.411,8.411,8.411,8.411,8.411,8.411,8.411,8.411,8.411,8.411,8.4035,8.3885,8.3121,8.2633,8.2333,8.1006,8.033,8.0105,7.8565,7.7814,7.7539,7.5917,7.5157,7.4957,7.4174,7.3876,7.3876,7.3876,7.3876,7.3876,0.0,0.0,0.0,0.0,0.0,0.0,0.0,4.1935,4.2885,4.3385,4.3565,4.3854,4.4437,4.4489,4.4517,0.0,0.0,0.0,0.0,0.0,0.0,4.4858,4.5274,4.5533,4.5569,4.6478,4.7344,4.8175,0.0,4.9905,5.0736,5.1116,5.1307,5.1307,5.1307,5.1307,5.1345,5.177,5.1967,5.2005,5.2417,5.3142,5.4001,5.4001,5.4536,0.0,5.6765,5.7491,5.8293,6.1184,6.3344,6.5261,6.7814,7.0077,7.2346,7.5109,7.6521,7.7761,8.0177,8.1016,8.1235,8.1235,8.1062,8.0352,7.8246,7.6759,7.529,7.3435,7.2084,7.1202,7.0987,7.1966,7.3157,7.4311,7.6568,7.86,7.973,8.1391,8.2628,8.3039,8.3985,8.4454,8.4004,8.4408,8.4561,8.411,8.411,8.411,8.411,8.411,8.411,8.411,8.411,8.411,8.411,8.411,8.411,8.4073,8.3697,8.3234,8.2783,8.193,8.1079,8.0216,7.9315,7.8453,7.7629,7.6743,7.6144,7.5646,7.4761,7.4437,7.4363,7.3952,7.3802,7.3802,0.0,0.0,0.0,0.0,0.0,0.0,0.0,4.2102,4.3012,4.3783,4.4013,4.4204,4.4445,4.4334,4.4303,0.0,0.0,0.0,0.0,0.0,0.0,0.0,0.0,0.0,4.4889,0.0,0.0,4.7498,4.8384,0.0,0.0,0.0,0.0,0.0,5.0044,5.0044,5.012,5.078,5.1084,0.0,0.0,5.284,5.3653,0.0,0.0,0.0,0.0,5.7572,5.809,6.1414,6.3566,6.5323,6.8019,7.0677,7.3236,7.5627,7.6929,7.8174,8.0822,8.1279,8.1059,8.126,8.0824,7.9781,7.7432,7.6015,7.4467,7.2109,7.0826,7.0084,6.989,7.049,7.1573,7.3192,7.542,7.7312,7.8456,8.0634,8.2178,8.2328,8.3825,8.4533,8.3859,8.4543,8.4786,8.4148,8.411,8.411,8.411,8.411,8.411,8.411,8.411,8.411,8.411,8.411,8.4059,8.4033,8.4033,8.3669,8.2954,8.2698,8.1746,8.0324,8.0018,7.9069,7.7737,7.7549,7.705,7.6353,7.5519,7.517,7.5096,7.4462,7.4138,7.3989,0.0,0.0,0.0,0.0,0.0,0.0,0.0,4.2492,4.3585,4.3796,4.444,4.4892,4.4925,4.4469,4.4162,0.0,0.0,0.0,0.0,0.0,0.0,0.0,0.0,0.0,0.0,0.0,0.0,4.739,4.8275,0.0,0.0,0.0,0.0,0.0,0.0,4.9906,4.9906,4.9982,0.0,0.0,0.0,0.0,0.0,0.0,0.0,0.0,0.0,5.7581,5.8,6.1291,6.2959,6.4205,6.7372,7.0375,7.3164,7.5469,7.6697,7.8019,8.1089,8.1358,8.0931,8.1712,8.0674,7.8923,7.7048,7.48,7.2721,7.157,7.0114,6.9056,6.8996,6.9668,7.0679,7.2199,7.3888,7.5824,7.8011,7.993,8.1392,8.2137,8.3246,8.3897,8.3798,8.4068,8.4185,8.411,8.411,8.411,8.411,8.411,8.411,8.411,8.411,8.411,8.411,8.411,8.402,8.3849,8.3849,8.373,8.3517,8.2756,8.1934,8.1051,8.0226,7.9405,7.8533,7.7668,7.7279,7.7117,7.6104,7.5716,7.5716,7.5641,7.5158,7.4539,0.0,0.0,0.0,0.0,0.0,0.0,4.1079,4.2486,4.3566,4.36,4.4299,4.4832,4.4892,4.5142,4.5181,4.489,0.0,0.0,0.0,0.0,0.0,0.0,0.0,0.0,0.0,0.0,4.6789,4.8107,4.8501,0.0,0.0,0.0,0.0,0.0,0.0,4.9886,4.9886,4.9886,0.0,0.0,0.0,0.0,0.0,0.0,0.0,0.0,0.0,0.0,5.7689,6.053,6.2347,6.3746,6.5511,6.8271,7.1415,7.4275,7.5755,7.7019,7.975,8.0535,8.0652,8.0917,8.0004,7.8604,7.678,7.446,7.2406,7.1377,6.9887,6.8733,6.8662,6.932,7.0201,7.1293,7.2855,7.4627,7.6544,7.8271,7.9861,8.1125,8.2202,8.3079,8.361,8.3822,8.3993,8.411,8.411,8.411,8.411,8.411,8.411,8.411,8.3993,8.3916,8.3916,8.3859,8.374,8.3685,8.3685,8.3657,8.3588,8.3168,8.2566,8.1746,8.0791,7.993,7.9111,7.8275,7.7889,7.7801,7.6942,7.6581,7.6507,7.5986,7.5615,7.5318,0.0,0.0,0.0,0.0,0.0,4.0963,4.0988,4.2427,4.3506,4.3506,4.4415,4.5057,4.5119,4.6093,4.6514,4.588,4.5659,0.0,0.0,0.0,0.0,0.0,0.0,0.0,0.0,0.0,4.7353,4.8555,4.8864,4.9322,0.0,0.0,4.9886,4.9886,0.0,0.0,0.0,0.0,0.0,0.0,0.0,0.0,0.0,0.0,0.0,0.0,0.0,0.0,0.0,0.0,0.0,6.273,6.4048,6.6071,6.8669,7.2267,7.4303,7.5803,7.7991,7.895,7.9279,7.9454,7.8603,7.7342,7.5769,7.3715,7.1887,7.0896,6.9606,6.8602,6.8506,6.8976,6.9682,7.0722,7.2109,7.3683,7.554,7.725,7.8885,8.0505,8.1577,8.2561,8.3443,8.3712,8.3889,8.4059,8.4033,8.402,8.402,8.3967,8.3967,8.402,8.3835,8.3754,8.3754,8.3643,8.3574,8.3532,8.3532,8.3504,8.3498,8.3398,8.2908,8.2075,8.112,8.0245,7.9442,7.8625,7.829,7.8253,7.7696,7.7435,7.7398,7.6767,7.6395,7.6172,0.0,0.0,0.0,0.0,0.0,0.0,4.0979,4.2427,4.3506,4.3506,4.4901,4.5883,4.5883,4.7315,4.8014,4.7335,4.6674,0.0,0.0,0.0,0.0,0.0,0.0,0.0,0.0,0.0,4.8365,4.8402,4.9348,4.9807,4.9807,4.989,4.9886,4.9886,0.0,0.0,0.0,0.0,0.0,0.0,0.0,0.0,5.4689,0.0,0.0,0.0,0.0,0.0,0.0,0.0,0.0,0.0,0.0,6.4096,6.4946,6.9354,7.2334,7.4549,7.6118,7.6444,7.6517,7.7314,7.6255,7.4798,7.3839,7.2323,7.0859,6.9893,6.9051,6.8493,6.8493,6.8493,6.9051,7.0648,7.1626,7.3051,7.5466,7.725,7.8885,8.0505,8.1577,8.2519,8.3301,8.3657,8.3889,8.4059,8.3916,8.3798,8.3798,8.3685,8.3671,8.3784,8.3671,8.3588,8.3588,8.3588,8.3518,8.3413,8.3413,8.3341,8.3195,8.3195,8.2749,8.1969,8.1077,8.0245,7.9442,7.8625,7.829,7.829,7.829,7.829,7.829,7.829,7.777,7.7101,0.0,0.0,0.0,0.0,0.0,0.0,0.0,4.2333,4.3437,4.3497,4.4892,4.5883,4.5883,4.7352,4.8205,4.8014,4.7362,0.0,0.0,0.0,0.0,0.0,0.0,0.0,0.0,0.0,4.8581,4.9204,5.01,5.0544,5.0552,5.0574,5.0588,5.055,4.9991,4.9757,0.0,0.0,0.0,0.0,0.0,5.3798,5.4501,0.0,0.0,0.0,0.0,0.0,0.0,0.0,0.0,0.0,0.0,0.0,0.0,6.6336,6.9042,7.1879,7.405,7.5022,7.5595,7.6314,7.5654,7.4609,7.3662,7.2173,7.0735,6.988,6.9051,6.8493,6.8493,6.8493,6.9051,7.0648,7.1131,7.2369,7.5378,7.6246,7.7621,8.0357,8.2061,8.3115,8.3376,8.356,8.3685,8.3764,8.3699,8.3671,8.3671,8.3532,8.3518,8.3657,8.3518,8.3447,8.3447,8.3384,8.3312,8.3253,8.3253,8.3239,8.3195,8.3195,8.3046,8.2786,8.1969,8.1114,8.0259,7.9442,7.881,7.829,7.829,7.829,7.829,7.829,7.8141,7.7919,0.0,0.0,0.0,0.0,0.0,0.0,0.0,4.2229,4.3349,4.3437,4.4848,4.5883,4.5883,4.7352,4.8296,4.8296,4.7913,0.0,0.0,0.0,0.0,0.0,0.0,0.0,0.0,4.8406,4.9061,4.9979,5.0568,5.1028,5.133,5.136,5.1383,5.1375,5.0862,5.0621,0.0,0.0,0.0,0.0,5.3533,5.3933,5.4268,0.0,0.0,0.0,0.0,0.0,0.0,0.0,0.0,0.0,0.0,0.0,0.0,0.0,6.647,6.9066,7.1277,7.2671,7.3528,7.3961,7.3712,7.3104,7.2209,7.1205,7.0239,6.9422,6.8865,6.8493,6.8493,6.8493,6.9051,7.0648,7.0908,7.2059,7.5341,7.5801,7.7027,8.0334,8.2264,8.3355,8.3413,8.3498,8.3532,8.3588,8.3546,8.3504,8.3504,8.3413,8.337,8.3456,8.3384,8.3326,8.3326,8.3239,8.3195,8.3195,8.3195,8.3195,8.3195,8.3195,8.3195,8.3158,8.234,8.1523,0.0,7.9851,7.9033,7.829,7.829,7.829,7.829,7.829,7.829,7.829,0.0,0.0,0.0,0.0,0.0,0.0,0.0,4.2168,4.3242,4.3376,4.4785,4.58,4.5856,4.7333,4.8287,4.8287,0.0,0.0,0.0,0.0,0.0,0.0,0.0,0.0,0.0,4.8848,4.976,5.0592,5.082,5.1342,5.2049,5.2181,5.2265,5.2265,5.219,5.2135,0.0,0.0,0.0,0.0,5.3962,5.4209,0.0,0.0,0.0,0.0,0.0,0.0,0.0,0.0,0.0,0.0,0.0,0.0,0.0,0.0,0.0,0.0,0.0,6.9619,7.0821,7.0895,7.0908,7.0685,6.9868,6.9719,0.0,6.8679,6.8493,6.8493,6.8493,6.8568,6.9088,7.0635,7.1019,7.2171,7.5341,7.6024,7.7324,8.0431,8.2229,8.3239,8.3384,8.3398,8.3456,8.3546,8.347,8.3398,8.3398,8.3268,8.3195,8.3195,8.3195,8.3195,8.3195,8.3195,8.3195,8.3195,8.3195,8.3195,8.3195,8.3195,8.3195,8.3158,8.2415,8.156,8.0617,7.9888,7.907,7.829,7.829,7.829,7.829,7.829,7.829,7.829,0.0,0.0,0.0,0.0,0.0,0.0,0.0,0.0,0.0,0.0,4.4637,4.5632,4.5651,4.719,4.8226,0.0,0.0,0.0,0.0,0.0,0.0,0.0,0.0,0.0,0.0,4.9586,5.0201,5.0464,5.1769,5.2496,5.2684,5.2777,5.2828,5.279,5.2182,5.2207,0.0,0.0,0.0,0.0,5.4061,5.4118,0.0,0.0,0.0,0.0,5.5845,5.6421,0.0,0.0,0.0,0.0,0.0,0.0,0.0,0.0,6.3813,6.5336,6.6423,0.0,7.0128,7.0759,7.0908,7.0685,0.0,6.9719,6.9459,6.8679,6.8493,6.8493,6.8493,6.9013,6.9756,7.0747,7.1998,7.3534,7.554,7.7942,8.0074,8.1523,8.26,8.321,8.3239,8.3239,8.3253,8.3297,8.3268,8.3239,8.3239,8.321,8.3195,8.3195,8.3195,8.3195,8.3195,8.3195,8.3195,8.3195,8.3195,8.3195,8.3195,8.3195,8.3195,8.3195,8.3009,8.208,8.0691,8.052,7.9591,7.829,7.829,7.829,7.829,7.829,7.829,7.829,0.0,0.0,0.0,0.0,0.0,0.0,0.0,0.0,0.0,0.0,0.0,4.5573,4.5585,4.7102,0.0,0.0,0.0,0.0,0.0,0.0,0.0,0.0,0.0,4.8909,4.9386,4.9911,5.0603,5.1453,5.2421,5.3073,5.3456,5.3472,5.3498,5.3498,5.3049,5.3089,0.0,0.0,0.0,5.4036,5.4036,0.0,0.0,0.0,0.0,0.0,5.5767,5.6333,0.0,5.8167,5.8656,5.8688,0.0,0.0,0.0,0.0,6.306,6.4801,6.5691,6.7221,6.8791,6.9608,6.9794,6.9682,6.9236,6.9162,6.9051,6.8605,6.8791,6.9051,6.9051,6.9719,7.0648,7.1849,7.2828,7.424,7.6618,7.9108,8.104,8.1894,8.2712,8.3195,8.3195,8.3195,8.3195,8.3195,8.3195,8.3195,8.3195,8.3195,8.3195,8.3195,8.3195,8.3195,8.3195,8.3195,8.3195,8.3195,8.3195,8.3195,8.3195,8.3195,8.3195,8.3195,8.3195,8.2251,8.0691,8.0691,7.9739,7.829,7.829,7.829,7.829,7.829,7.829,7.829,0.0,0.0,0.0,0.0,0.0,0.0,0.0,0.0,0.0,0.0,0.0,0.0,0.0,0.0,0.0,0.0,0.0,0.0,0.0,0.0,0.0,0.0,0.0,4.9085,4.9936,5.0295,5.1249,5.2856,5.3096,5.3635,5.4428,5.4446,5.4372,5.426,5.4157,5.4073,0.0,0.0,5.4009,5.3963,5.3963,0.0,0.0,0.0,0.0,0.0,0.0,0.0,0.0,5.8126,5.8582,5.8497,5.8497,0.0,0.0,0.0,0.0,0.0,6.5411,6.6346,6.7294,6.8234,6.8481,6.8531,6.8642,6.8679,6.8716,6.8828,6.941,6.983,6.983,7.061,7.1737,7.3123,7.3818,7.5206,7.8253,7.9962,8.1226,8.208,8.2898,8.3343,8.3232,8.3306,8.3343,8.3232,8.3195,8.3195,8.3195,8.3195,8.3195,8.3195,8.3195,8.3195,8.3195,8.3195,8.3195,8.3195,8.3195,8.3195,8.3195,8.3195,8.3195,8.3195,8.3195,8.2251,8.0691,8.0677,7.9734,7.8248,7.8221,7.8221,7.8221,7.8221,7.8221,7.8221,0.0,0.0,0.0,0.0,0.0,0.0,0.0,0.0,0.0,0.0,0.0,0.0,0.0,0.0,0.0,0.0,0.0,0.0,0.0,0.0,0.0,4.9252,4.9429,4.9581,4.9757,5.1258,5.2547,5.3567,5.4304,5.5133,5.5961,5.6011,5.5677,5.5016,5.4308,5.3963,5.3841,0.0,5.3832,5.3813,5.3813,0.0,0.0,0.0,0.0,0.0,0.0,0.0,0.0,5.7893,5.8437,5.8426,5.8426,0.0,0.0,0.0,0.0,0.0,6.5263,6.5817,6.631,6.7926,6.8408,6.8679,6.9348,6.9534,6.9719,7.0388,7.056,7.0544,7.0544,7.1817,7.2929,7.3188,7.5645,7.8216,8.0074,8.1188,8.2117,8.2935,8.3752,8.3975,8.3269,8.3812,8.3938,8.3269,8.3195,8.3195,8.3195,8.3195,8.3195,8.3195,8.3195,8.3195,8.3195,8.3195,8.3195,8.3195,8.3195,8.3195,8.3195,8.3195,8.3195,8.3195,8.3195,8.2251,8.0691,8.0598,7.9539,7.8043,7.79,7.7893,7.7893,7.7893,7.7893,7.7893,0.0,0.0,0.0,0.0,0.0,0.0,0.0,0.0,0.0,0.0,0.0,0.0,0.0,0.0,0.0,0.0,0.0,0.0,0.0,0.0,0.0,4.9303,5.0297,5.0879,5.1008,5.223,5.3333,5.4243,5.5071,5.5724,5.6193,5.6303,5.5906,5.5088,5.4716,5.4241,5.3784,5.3784,5.3793,5.3745,0.0,0.0,0.0,0.0,0.0,0.0,0.0,0.0,0.0,0.0,5.8349,5.8305,5.8305,0.0,0.0,0.0,0.0,0.0,6.5039,6.5544,6.6099,6.8216,6.8875,6.9162,6.9595,7.0054,7.0437,7.0732,7.1459,7.2011,7.1894,7.3249,7.4668,7.5555,7.7473,7.9389,8.1021,8.2059,8.2972,8.3752,8.4555,8.4889,8.4518,8.4458,8.4257,8.3886,8.3455,8.3195,8.3195,8.3195,8.3195,8.3195,8.3195,8.3151,8.3024,8.3024,8.3106,8.3195,8.3195,8.3195,8.318,8.3106,8.3024,8.3024,8.2971,8.2,8.0444,8.0371,7.9379,7.7885,7.7813,7.782,7.782,7.782,7.782,7.7806,0.0,0.0,0.0,0.0,0.0,0.0,0.0,0.0,0.0,0.0,0.0,0.0,0.0,0.0,0.0,0.0,0.0,0.0,0.0,0.0,4.9445,4.9445,5.1119,5.2119,5.2289,5.315,5.4123,5.5238,5.585,5.6356,5.6636,5.6533,5.6129,5.5488,5.5302,5.4867,5.4301,5.4301,5.4262,5.4219,0.0,0.0,0.0,0.0,0.0,0.0,0.0,0.0,0.0,0.0,0.0,0.0,0.0,0.0,0.0,6.0591,6.1642,6.3122,6.4835,6.5366,6.6044,6.8512,6.9263,6.9593,7.0052,7.0806,7.1398,7.1492,7.2661,7.3605,7.3444,7.4795,7.6433,7.8101,7.918,8.0304,8.1748,8.2779,8.367,8.4486,8.5265,8.5711,8.5488,8.4932,8.4501,8.4346,8.3574,8.3091,8.3136,8.3091,8.3076,8.3076,8.3076,8.3016,8.2859,8.2859,8.2919,8.3076,8.3076,8.3076,8.3076,8.2904,8.2859,8.2843,8.2742,8.1846,8.048,8.0265,7.9327,7.802,7.7754,7.7666,7.7666,7.7666,7.7666,7.7688,0.0,0.0,0.0,0.0,0.0,0.0,0.0,0.0,0.0,0.0,0.0,0.0,0.0,0.0,0.0,0.0,0.0,0.0,0.0,0.0,5.0202,5.0202,5.1839,5.2799,5.2929,5.3913,5.5196,5.6816,5.6962,5.7433,5.8219,5.7407,5.7,5.6926,5.6188,5.5818,5.5744,5.5744,5.5734,5.5723,5.5723,0.0,0.0,0.0,0.0,0.0,0.0,0.0,0.0,0.0,0.0,0.0,0.0,0.0,6.0347,6.1103,6.1945,6.3008,6.4822,6.5301,6.5928,6.8486,6.9221,6.9708,7.1199,7.2183,7.2982,7.3795,7.4509,7.4961,7.4947,7.631,7.8012,7.9733,8.0775,8.1625,8.2527,8.3339,8.4131,8.4944,8.5757,8.5941,8.5202,8.5091,8.4785,8.4148,8.3248,8.2804,8.2919,8.2819,8.2727,8.2727,8.2727,8.2727,8.2711,8.2711,8.2711,8.2727,8.2727,8.2727,8.2727,8.2711,8.2711,8.2711,8.2696,8.2216,8.1351,8.0401,7.9529,7.8651,7.7711,7.7356,7.7356,7.7356,7.7356,7.732,0.0,0.0,0.0,0.0,0.0,0.0,0.0,0.0,0.0,0.0,0.0,0.0,0.0,0.0,0.0,0.0,0.0,0.0,0.0,4.9264,5.0166,5.0166,5.1765,5.3153,5.4207,5.4784,5.586,5.751,5.8697,5.9204,5.9031,5.8766,5.8098,5.709,5.6794,5.6388,5.5897,5.5897,5.5866,5.5839,5.5839,5.5796,0.0,0.0,0.0,0.0,0.0,0.0,0.0,0.0,5.7763,5.7872,5.8653,5.9444,6.0211,6.1051,6.1841,6.2866,6.4692,6.5171,6.5906,6.8953,7.0161,7.0891,7.2152,7.3102,7.3901,7.4628,7.5772,7.6928,7.7852,7.8535,7.9359,8.0525,8.1061,8.1749,8.3092,8.4073,8.4949,8.5761,8.6537,8.6906,8.6611,8.5687,8.4981,8.4732,8.3466,8.2711,8.2788,8.2727,8.2696,8.2696,8.2696,8.2633,8.2502,8.2502,8.2476,8.238,8.2586,8.2696,8.268,8.2586,8.2502,8.2523,8.2428,8.1939,8.1113,8.022,7.9396,7.8572,7.765,7.7289,7.7289,7.7289,7.7289,7.7289,0.0,0.0,0.0,0.0,0.0,0.0,0.0,0.0,0.0,0.0,0.0,0.0,0.0,0.0,0.0,0.0,0.0,0.0,4.7689,4.9231,5.0101,5.0101,5.1701,5.3332,5.4918,5.5166,5.6218,5.8116,5.9686,6.0038,5.9278,5.9405,5.8725,5.7387,5.7387,5.7092,5.6565,5.6532,5.6467,5.6437,5.6393,5.63,0.0,0.0,0.0,0.0,0.0,0.0,0.0,0.0,5.7765,5.8118,5.887,5.9672,6.0473,6.1275,6.2099,6.305,6.4583,6.543,6.6522,6.9329,7.0838,7.2061,7.3584,7.4548,7.5293,7.5721,7.7141,7.8692,7.9942,8.0167,8.0424,8.1269,8.1475,8.1996,8.3357,8.4338,8.523,8.6041,8.6852,8.7221,8.7,8.5746,8.4841,8.4647,8.3345,8.2555,8.2602,8.2571,8.2539,8.2539,8.2539,8.2476,8.2327,8.2327,8.23,8.2203,8.2428,8.2539,8.2539,8.2412,8.2327,8.2311,8.2235,8.1893,8.1305,8.0498,7.9543,7.8516,7.7656,7.7289,7.7289,7.7289,7.7289,7.731,0.0,0.0,0.0,0.0,0.0,0.0,0.0,0.0,0.0,0.0,0.0,0.0,0.0,0.0,0.0,0.0,0.0,0.0,4.7689,4.9231,5.0101,5.0101,5.1658,5.3241,5.4858,5.499,5.6273,5.881,5.9761,5.9786,5.9005,5.9162,5.8792,5.7997,5.7997,5.7997,5.7985,5.7869,5.781,5.7798,5.7631,5.7583,0.0,0.0,0.0,0.0,0.0,0.0,0.0,0.0,5.8118,5.8895,5.9594,6.0342,6.1141,6.1954,6.2767,6.3594,6.453,6.6117,6.7872,6.9496,7.1207,7.3156,7.5579,7.6738,7.7326,7.7326,7.8662,8.0073,8.0865,8.1012,8.1269,8.2076,8.2186,8.248,8.3271,8.4078,8.4903,8.5673,8.6481,8.6647,8.5857,8.5049,8.4308,8.3643,8.2725,8.2267,8.2391,8.2284,8.2186,8.2186,8.2186,8.2186,8.2186,8.2186,8.2186,8.2186,8.2186,8.2186,8.2186,8.2186,8.2186,8.2186,8.2186,8.2186,8.2113,8.1342,8.0057,7.8516,7.7656,7.731,7.731,7.731,7.731,7.7405,0.0,0.0,0.0,0.0,0.0,0.0,0.0,0.0,0.0,0.0,0.0,0.0,0.0,0.0,0.0,0.0,0.0,0.0,4.7689,4.9231,5.0101,5.0101,5.1658,5.3241,5.4858,5.6537,5.7859,5.881,5.9662,5.9943,5.9687,5.9724,5.9335,5.8567,5.8567,5.8239,5.7739,5.7691,5.7643,5.7679,5.7607,5.7583,5.7583,0.0,0.0,0.0,0.0,0.0,0.0,0.0,0.0,0.0,5.9283,6.0065,6.091,6.1815,6.264,6.3443,6.4393,6.5896,6.7729,7.0148,7.1977,7.3823,7.624,7.705,7.7803,7.9528,8.0181,8.0687,8.1492,8.154,8.1492,8.1748,8.1785,8.2077,8.2864,8.3193,8.3649,8.4506,8.4799,8.4872,8.4616,8.3952,8.3451,8.3244,8.2478,8.2002,8.2051,8.1885,8.1785,8.1785,8.1785,8.1785,8.1785,8.1785,8.1785,8.1785,8.1785,8.1919,8.2186,8.2186,8.2186,8.2186,8.2055,8.1969,8.1915,8.0978,7.9649,7.8151,7.7879,7.7441,7.6945,7.6945,7.7311,7.7843,0.0,0.0,0.0,0.0,0.0,0.0,0.0,0.0,0.0,0.0,0.0,0.0,0.0,0.0,0.0,0.0,0.0,0.0,0.0,4.9343,5.0245,5.0572,5.1803,5.3241,5.4858,5.6899,5.7989,5.8152,5.9343,5.9914,5.9914,5.9977,5.9734,5.9284,5.9284,5.881,5.8081,5.8032,5.7802,5.7498,5.74,5.7351,5.7351,0.0,0.0,0.0,0.0,0.0,0.0,0.0,0.0,0.0,5.9538,6.0367,6.1115,6.1723,6.2705,6.3796,6.4748,6.6431,6.8495,7.0799,7.2881,7.5045,7.7769,7.8471,7.9064,8.0874,8.1157,8.12,8.1675,8.17,8.1579,8.1579,8.1579,8.1761,8.2272,8.26,8.3001,8.3529,8.3894,8.3967,8.3638,8.3214,8.2828,8.2552,8.2041,8.1785,8.1785,8.1683,8.1579,8.1579,8.1579,8.1579,8.1579,8.1579,8.1579,8.1579,8.1579,8.1734,8.1952,8.1952,8.1952,8.1935,8.1835,8.1785,8.1712,8.0774,7.9629,7.8426,7.8134,7.7697,7.7259,7.7259,7.7806,7.8519,0.0,0.0,0.0,0.0,0.0,0.0,0.0,0.0,0.0,0.0,0.0,0.0,0.0,0.0,0.0,0.0,0.0,0.0,0.0,0.0,5.0452,5.126,5.219,5.3385,5.4858,5.6391,5.7188,5.7188,5.8778,5.9628,5.9797,5.9901,5.9988,6.0072,6.0072,5.9635,5.8821,5.8636,5.8137,5.7422,5.711,5.6972,5.6959,5.6865,0.0,0.0,0.0,0.0,0.0,0.0,0.0,0.0,6.0142,6.0897,6.1623,6.1822,6.2983,6.4397,6.5424,6.7527,6.986,7.151,7.3926,7.668,7.9722,8.047,8.0798,8.1542,8.1688,8.1707,8.1707,8.169,8.1637,8.1564,8.1527,8.1527,8.1527,8.2183,8.2657,8.2657,8.3331,8.3513,8.273,8.2675,8.2364,8.1635,8.1562,8.1562,8.1562,8.1544,8.1527,8.1527,8.1527,8.1527,8.1527,8.1527,8.1527,8.1527,8.1527,8.1527,8.1581,8.1579,8.1579,8.1562,8.1562,8.1544,8.1491,8.0762,7.9997,7.9195,7.8449,7.8122,7.8049,7.8049,7.8595,7.9363,0.0,0.0,0.0,0.0,0.0,0.0,0.0,0.0,0.0,0.0,0.0,0.0,0.0,0.0,0.0,0.0,0.0,0.0,0.0,0.0,5.0337,5.126,5.3277,5.4544,5.4894,5.6391,5.7188,5.7188,5.7588,5.8399,5.9654,5.9693,6.002,6.0636,6.0636,6.0099,5.9246,5.8569,5.8129,5.7808,5.7143,5.6829,5.6816,5.6789,5.6812,0.0,0.0,0.0,0.0,0.0,0.0,0.0,6.0095,6.0741,6.1508,6.2263,6.3185,6.4308,6.5898,6.8104,7.0418,7.2279,7.552,7.8627,7.9936,8.1105,8.2031,8.2475,8.2442,8.2391,8.2391,8.2267,8.1942,8.1325,8.1199,8.1199,8.1199,8.1344,8.1471,8.1471,8.1652,8.1688,8.1489,8.1612,8.1627,8.1462,8.1445,8.1445,8.1445,8.1305,8.1199,8.1199,8.1199,8.1199,8.1199,8.1199,8.1199,8.1199,8.1199,8.1199,8.1217,8.1495,8.1547,8.1445,8.1445,8.1358,8.1199,8.1018,8.0474,7.9712,7.9567,7.9096,7.8569,7.8569,7.9059,7.9785,0.0,0.0,0.0,0.0,0.0,0.0,0.0,0.0,0.0,0.0,0.0,0.0,0.0,0.0,0.0,0.0,0.0,0.0,0.0,0.0,5.0496,5.1828,5.382,5.4894,5.4894,5.6391,5.7163,5.71,5.71,5.7957,5.9602,5.9536,6.0124,6.1267,6.1212,6.071,5.9849,5.902,5.8439,5.7927,5.707,5.672,5.6707,5.664,5.6573,5.6505,0.0,0.0,0.0,0.0,0.0,0.0,0.0,0.0,6.123,6.2215,6.3107,6.4289,6.6417,6.8507,7.0922,7.4329,7.7042,7.9184,8.0364,8.149,8.2468,8.3029,8.3102,8.303,8.303,8.2958,8.2632,8.1817,8.1672,8.1527,8.1147,8.1111,8.1111,8.1111,8.1111,8.1111,8.1111,8.1181,8.1252,8.1252,8.1252,8.1252,8.1252,8.1182,8.1111,8.1111,8.1111,8.1111,8.1111,8.1111,8.1111,8.1111,8.1111,8.1111,8.1128,8.1287,8.134,8.1252,8.1252,8.1181,8.1111,8.1111,8.0621,7.9897,7.9897,7.9643,7.9281,7.9281,7.9788,8.0459,0.0,0.0,0.0,0.0,0.0,0.0,0.0,0.0,0.0,0.0,0.0,0.0,0.0,0.0,0.0,0.0,0.0,0.0,0.0,0.0,0.0,5.2386,5.3833,5.4689,5.4834,5.6221,5.6917,5.6982,5.6982,5.7841,5.9536,5.9416,6.0241,6.1742,6.1666,6.1199,6.0488,5.9697,5.8879,5.7999,5.7074,5.6613,5.6478,5.6355,5.6231,5.6169,0.0,0.0,5.7438,5.8237,0.0,0.0,0.0,0.0,6.0945,6.1951,6.2887,6.4184,6.6704,6.8994,7.1745,7.6299,7.8034,7.9084,8.0748,8.1817,8.2704,8.3356,8.361,8.3718,8.3718,8.3718,8.3392,8.245,8.2305,8.2016,8.1219,8.1111,8.1111,8.1111,8.1111,8.1111,8.1111,8.1111,8.1111,8.1111,8.1111,8.1111,8.1111,8.1111,8.1111,8.1111,8.1111,8.1111,8.1111,8.1111,8.1111,8.1111,8.1111,8.1111,8.1111,8.1111,8.1111,8.1111,8.1111,8.1111,8.1111,8.1111,8.0712,8.0114,8.0114,8.0114,8.0114,8.0114,8.0549,8.1111,0.0,0.0,0.0,0.0,0.0,0.0,0.0,0.0,0.0,0.0,4.7009,0.0,0.0,0.0,0.0,0.0,0.0,0.0,0.0,0.0,0.0,5.2162,5.3026,5.3854,5.4538,5.5366,5.6145,5.6852,5.6852,5.7643,5.9254,5.924,6.009,6.1637,6.1623,6.1451,6.1128,6.0332,5.9388,5.836,5.7548,5.6716,5.5986,5.5957,5.5979,5.6035,5.6708,0.0,5.8237,5.9016,5.9795,0.0,0.0,0.0,6.0782,6.1628,6.2533,6.3808,6.6351,6.9956,7.3636,7.6526,7.7843,7.8925,8.0677,8.2251,8.3392,8.3501,8.4044,8.4533,8.4533,8.4533,8.4044,8.2559,8.2305,8.2016,8.1219,8.1111,8.1111,8.1111,8.1111,8.1111,8.1111,8.1111,8.1111,8.1111,8.1111,8.1111,8.1111,8.1111,8.1111,8.1111,8.1111,8.1111,8.1111,8.1111,8.1111,8.1111,8.1111,8.1111,8.1111,8.1111,8.1111,8.1111,8.1111,8.1111,8.1111,8.1111,8.1038,8.0929,8.0929,8.0929,8.0929,8.0929,8.1002,8.1111,0.0,0.0,0.0,0.0,0.0,0.0,0.0,0.0,0.0,0.0,0.0,4.7009,0.0,0.0,0.0,0.0,0.0,0.0,0.0,0.0,0.0,5.2102,5.2869,5.3696,5.4488,5.523,5.5946,5.6693,5.7124,5.7908,5.8922,5.9401,6.0232,6.143,6.1343,6.1211,6.0992,6.0207,5.9556,5.8923,5.7667,5.6964,5.6538,5.6063,5.6127,5.6514,5.6882,5.7726,5.8728,5.906,5.9695,6.0329,6.0329,0.0,0.0,0.0,6.2293,6.3811,6.7325,7.0377,7.3178,7.5759,7.7325,7.8567,7.9811,8.1418,8.2648,8.2648,8.3753,8.4823,8.5293,8.5366,8.4859,8.3247,8.2958,8.2505,8.1273,8.1111,8.1111,8.1111,8.1111,8.1111,8.1111,8.1111,8.1111,8.1111,8.1111,8.1111,8.1111,8.1111,8.1111,8.1111,8.1111,8.1111,8.1111,8.1111,8.1111,8.1111,8.1111,8.1111,8.1111,8.1111,8.1111,8.1111,8.1111,8.1111,8.1111,8.1111,8.1111,8.1111,8.1111,8.1111,8.1111,8.1111,8.1111,8.1111,0.0,0.0,0.0,0.0,0.0,0.0,0.0,0.0,0.0,0.0,0.0,0.0,0.0,0.0,0.0,0.0,0.0,0.0,0.0,0.0,0.0,5.2005,5.2579,5.3274,5.4063,5.4804,5.5515,5.6206,5.7006,5.7803,5.8594,5.9214,6.0178,6.1423,6.1135,6.1051,6.1006,6.026,5.9709,5.9239,5.8107,5.7491,5.72,5.662,5.6702,0.0,0.0,5.8108,5.9053,5.9229,5.965,6.0107,6.0107,6.0202,0.0,0.0,0.0,6.3989,6.7817,7.0139,7.2114,7.4706,7.6392,7.7775,7.8998,8.0512,8.1705,8.194,8.3244,8.4513,8.5185,8.5475,8.5149,8.3755,8.332,8.2686,8.1309,8.1111,8.1111,8.1111,8.1111,8.1111,8.1111,8.1111,8.1111,8.1111,8.1111,8.1111,8.1111,8.1111,8.1111,8.1111,8.1111,8.1111,8.1111,8.1111,8.1111,8.1111,8.1111,8.1111,8.1111,8.1111,8.1111,8.1111,8.1111,8.1111,8.1111,8.1111,8.1111,8.1111,8.1111,8.1111,8.1074,8.1021,8.1003,8.1003,0.0,0.0,0.0,0.0,0.0,0.0,0.0,0.0,0.0,0.0,0.0,0.0,0.0,0.0,4.915,4.8994,4.9126,4.9555,5.0388,5.1257,5.1733,5.1733,5.1769,0.0,5.296,5.3719,5.4425,5.5073,5.5905,5.6993,5.8323,5.8358,5.9613,6.1754,6.1092,6.1168,6.1687,6.0892,6.0022,5.9192,5.9122,5.8556,5.775,5.77,5.7735,5.784,5.8613,5.8948,5.9108,5.9826,6.0072,6.0107,6.0107,6.0123,6.0123,0.0,0.0,0.0,6.6982,6.8961,7.0894,7.3476,7.487,7.6267,7.8728,7.997,8.0853,8.1795,8.2681,8.3351,8.3573,8.4262,8.4497,8.3646,8.2849,8.2088,8.1237,8.1111,8.1111,8.1111,8.1111,8.1111,8.1111,8.1111,8.1111,8.1111,8.1111,8.1111,8.1111,8.1111,8.1111,8.1111,8.1111,8.1111,8.1111,8.1111,8.1111,8.1111,8.1111,8.1111,8.1111,8.1111,8.1111,8.1111,8.1111,8.1111,8.1111,8.1111,8.1111,8.1111,8.1111,8.1111,8.1093,8.0876,8.0803,8.0785,0.0,0.0,0.0,0.0,0.0,0.0,0.0,0.0,0.0,0.0,0.0,0.0,0.0,4.9013,4.9013,4.8976,4.9487,4.9937,5.0221,5.0992,5.1454,5.1454,5.1454,5.2057,5.3336,5.3606,5.436,5.5582,5.6376,5.7304,5.8308,5.8768,5.9946,6.1604,6.151,6.1479,6.1604,6.1305,6.0627,5.9745,5.9253,5.8855,5.8511,5.8,5.8141,5.8632,5.8897,5.9299,5.9756,6.0001,6.0107,6.0107,6.0107,6.0107,6.0212,6.0704,6.1923,6.3531,6.5416,6.7602,6.9636,7.1002,7.326,7.5348,7.6261,7.8038,7.964,8.0002,8.1229,8.2241,8.2316,8.3226,8.3682,8.2849,8.2487,8.2016,8.1219,8.1111,8.1038,8.0912,8.0894,8.084,8.073,8.0712,8.0712,8.0712,8.0712,8.0712,8.0712,8.0712,8.0712,8.0712,8.0821,8.0948,8.1111,8.1111,8.1111,8.1111,8.1111,8.1111,8.1111,8.1111,8.1111,8.1111,8.1111,8.1111,8.1111,8.1111,8.1003,8.0894,8.0894,8.0821,8.0693,8.0619,8.0601,8.0601,0.0,0.0,0.0,0.0,0.0,0.0,0.0,0.0,0.0,0.0,0.0,0.0,0.0,0.0,4.9715,4.9715,5.0188,5.0507,5.0507,5.1015,5.1311,5.1311,5.1546,5.2148,5.3161,5.3741,5.4478,5.5412,5.6239,5.7144,5.8144,5.8638,5.9776,6.1427,6.1556,6.1575,6.1427,6.1146,6.0659,6.0072,5.958,5.9545,5.9721,5.9194,5.9475,6.0142,6.0142,6.0458,6.0879,6.0879,6.0879,6.0879,6.0879,6.0704,6.0668,6.1441,6.212,6.2993,6.4824,6.6599,6.8222,6.9513,7.1532,7.3505,7.4645,7.6292,7.7873,7.881,7.9945,8.0883,8.1227,8.1956,8.2394,8.2141,8.1852,8.1527,8.0966,8.0894,8.084,8.0712,8.0693,8.0638,8.0508,8.0489,8.0489,8.0489,8.0489,8.0489,8.0489,8.0489,8.0489,8.0489,8.0619,8.0748,8.0894,8.0894,8.0894,8.0894,8.0894,8.0894,8.0894,8.0894,8.0894,8.0894,8.0894,8.093,8.0985,8.0985,8.0876,8.0693,8.0693,8.0619,8.0489,8.0415,8.0396,8.0432,0.0,0.0,0.0,0.0,0.0,0.0,0.0,0.0,0.0,0.0,0.0,0.0,0.0,0.0,0.0,5.1369,5.1369,5.1369,5.1369,5.1369,5.1369,5.1369,5.2051,5.2427,5.2462,5.3997,5.4691,5.4535,5.5325,5.6379,5.7754,5.779,5.9018,6.123,6.1265,6.1265,6.123,6.0458,6.0142,6.0142,6.0142,6.0633,6.1336,6.1336,6.1792,6.2405,6.2405,6.2405,6.2405,6.2405,6.2405,6.2405,6.2405,6.1897,6.1476,6.2195,6.2441,6.2932,0.0,0.0,0.0,6.9051,6.9742,7.0735,7.4021,7.4823,7.5665,7.8341,7.8917,7.926,8.0272,8.0453,8.0705,8.1515,8.1011,8.0489,8.0489,8.0489,8.0489,8.0489,8.0489,8.0489,8.0471,8.0471,8.0471,8.0471,8.0471,8.0471,8.0471,8.0471,8.0489,8.0489,8.0489,8.0489,8.0489,8.0489,8.0489,8.0489,8.0489,8.0489,8.0489,8.0489,8.0489,8.0489,8.0489,8.0601,8.0767,8.0785,8.0675,8.0489,8.0489,8.0489,8.0452,8.0264,8.0224,8.0312,0.0,0.0,0.0,0.0,0.0,0.0,5.2592,0.0,0.0,0.0,0.0,0.0,0.0,0.0,5.2662,5.2662,5.2662,5.2662,5.2662,5.2662,5.2662,5.2662,5.2859,5.3247,5.376,5.4218,5.4681,5.5235,5.5446,5.6029,5.6947,5.7544,5.8457,5.965,6.0177,6.0423,6.0458,6.0809,6.0984,6.0984,6.0984,6.1406,6.2089,6.2089,6.223,6.2405,6.2405,6.2405,6.2405,6.2405,6.2405,6.2405,6.2405,6.2265,6.216,6.2335,6.2827,6.3424,6.4056,0.0,0.0,0.0,0.0,0.0,7.1616,7.3466,7.5128,7.588,7.7045,7.8193,7.9036,7.9179,7.9465,8.0252,8.0464,8.0489,8.0489,8.0489,8.0452,8.0302,8.0283,8.0226,8.0073,8.0054,8.0054,8.0054,8.0054,8.0054,8.0054,8.0054,8.013,8.0283,8.0283,8.0358,8.0489,8.0489,8.0489,8.0489,8.0489,8.0489,8.0489,8.0489,8.0489,8.0489,8.0489,8.0452,8.0377,8.0527,8.0471,8.0283,8.0283,8.0188,8.0054,7.9996,8.0334,8.087,0.0,0.0,0.0,0.0,0.0,5.2664,5.3134,5.3204,0.0,0.0,0.0,0.0,0.0,0.0,0.0,5.3696,5.3661,5.352,5.3204,5.3204,5.3204,5.3204,5.3485,5.3857,5.4279,5.463,5.5036,5.5493,5.5493,5.5894,5.6596,5.7087,5.7895,5.9003,5.944,5.9826,6.0142,6.0598,6.0984,6.13,6.13,6.1932,6.2932,6.3231,6.3547,6.3915,6.4214,6.432,6.432,6.432,6.4109,6.381,6.3477,6.3161,6.2897,6.2897,6.3231,6.3653,6.3969,6.4706,6.5654,6.6742,0.0,0.0,7.0444,7.2023,7.3412,7.4178,7.5373,7.6553,7.7466,7.7858,7.8269,7.881,7.9377,7.9869,8.0209,8.0245,8.0207,8.0092,8.0073,8.0015,7.9899,7.988,7.988,7.988,7.988,7.988,7.988,7.988,7.9938,8.0073,8.0073,8.013,8.0245,8.0245,8.0245,8.0245,8.0245,8.0245,8.0245,8.0245,8.0245,8.0245,8.0245,8.0188,8.0073,8.0188,8.0169,8.0073,8.0073,7.9996,7.9916,8.0292,8.0684,8.1184,0.0,0.0,5.2383,5.3169,5.331,5.338,5.3556,5.3591,5.3591,0.0,0.0,0.0,0.0,0.0,0.0,0.0,5.47,5.4384,5.3626,5.3591,5.352,5.345,5.4068,5.444,5.444,5.5142,5.5493,5.5493,5.5493,5.5859,5.649,5.6561,5.7403,5.8862,5.8968,5.9405,6.0107,6.0212,6.0668,6.1406,6.1406,6.2389,6.3934,6.4583,6.5338,6.6128,6.6777,6.7023,6.7023,6.7023,6.6567,6.5917,6.518,6.453,6.3969,6.3863,6.388,6.3969,6.4548,6.4759,6.518,6.6619,6.7093,0.0,7.0107,7.0744,7.1258,7.2857,7.3798,7.4652,7.5638,7.6403,7.6975,7.7271,7.7987,7.879,7.963,7.9864,7.988,7.988,7.988,7.988,7.988,7.988,7.988,7.988,7.988,7.988,7.988,7.988,7.988,7.988,7.988,7.988,7.988,7.988,7.988,7.988,7.988,7.988,7.988,7.988,7.988,7.988,7.988,7.988,7.988,7.9861,7.9861,7.988,7.988,7.9971,8.0094,8.0808,8.118,8.1501,0.0,5.2523,5.319,5.3963,5.4103,5.4489,5.5753,5.5929,5.6174,5.6806,5.7017,5.7193,5.7333,0.0,0.0,0.0,5.7122,5.6771,5.5999,5.5929,5.5683,5.5086,5.5177,5.5247,5.5247,5.5422,5.5493,5.5493,5.5493,5.5563,5.5753,5.6315,5.7122,5.807,5.8687,5.9405,6.0142,6.0774,6.1511,6.2195,6.2195,6.3494,6.5461,6.5601,6.611,6.6813,6.6953,6.7023,6.7023,6.7023,6.6918,6.6777,6.6584,6.6461,6.6216,6.5636,6.5461,6.5355,6.4829,6.5162,6.5865,6.6777,6.7497,0.0,6.9396,7.0246,7.0904,7.1258,7.2094,7.3002,7.3854,7.4617,7.5326,7.6038,7.6747,7.7644,7.879,7.9507,7.988,7.988,7.988,7.988,7.988,7.988,7.988,7.988,7.988,7.988,7.988,7.988,7.988,7.988,7.988,7.988,7.988,7.988,7.988,7.988,7.988,7.988,7.988,7.988,7.988,7.988,7.988,7.988,7.988,7.974,7.9743,7.988,7.988,8.0292,8.0879,8.0808,8.1602,8.2699,5.3071,5.3471,5.3998,5.4756,5.5191,5.5718,5.649,5.6947,5.7474,5.8266,5.9089,5.9685,6.0036,6.0072,0.0,0.0,0.0,0.0,0.0,5.7438,5.6842,5.6104,5.6069,5.5894,5.5493,5.5493,5.5493,5.5493,5.5493,5.5493,5.5528,5.6245,5.6972,5.7685,5.8491,5.9214,5.9919,6.0671,6.1457,6.219,6.2778,6.4161,6.5952,6.6286,6.6918,6.7637,6.8041,6.8182,6.8182,6.8182,6.7936,6.7602,6.7602,6.7321,6.6953,6.6567,6.6461,6.6356,6.597,6.6145,6.6637,6.7409,6.7883,0.0,0.0,6.9749,7.0104,7.0104,7.0811,7.1574,7.2057,7.2782,7.3473,7.3956,7.5002,7.5964,7.6565,7.7763,7.8607,7.8703,7.8686,7.8686,7.8686,7.8686,7.8864,7.9257,7.9685,7.988,7.988,7.988,7.988,7.988,7.988,7.988,7.988,7.988,7.988,7.988,7.988,7.988,7.988,7.988,7.988,7.988,7.9783,7.9743,7.9724,7.9507,7.9467,7.9531,7.9531,8.0048,8.0774,8.1064,8.191,8.2953,5.4208,5.4419,5.4791,5.5563,5.621,5.6701,5.7017,5.7719,5.8597,5.9545,6.0879,6.1967,6.2581,6.2773,6.2596,6.1841,0.0,0.0,0.0,5.8683,5.7895,5.7087,5.6912,5.6561,5.5949,5.5949,5.5949,5.5949,5.5949,5.5899,5.5904,5.65,5.709,5.7688,5.8352,5.9074,5.9848,6.0613,6.1396,6.2231,6.3431,6.4795,6.618,6.6935,6.7707,6.8533,6.9183,6.9394,6.9394,6.9394,6.8954,6.8409,6.8409,6.8006,6.7445,6.7269,6.7216,6.7181,6.7058,6.7111,6.7409,6.8023,6.8304,6.8603,0.0,0.0,0.0,6.9394,6.9867,7.0344,7.0494,7.1182,7.1748,7.1951,7.3119,7.4057,7.4095,7.529,7.6491,7.7305,7.7395,7.7414,7.7452,7.749,7.7758,7.842,7.9079,7.9435,7.9435,7.9435,7.9507,7.965,7.9685,7.9757,7.988,7.988,7.988,7.988,7.988,7.988,7.988,7.9841,7.9822,7.9822,7.9606,7.9507,7.9487,7.9231,7.9221,7.9362,7.9403,7.9919,8.0718,8.1491,8.2213,8.297,5.4419,5.4861,5.5598,5.635,5.6526,5.7087,5.8527,5.9369,6.0352,6.1843,6.2792,6.3372,6.3442,6.4227,6.4398,6.3587,6.3498,6.2828,6.1296,6.0343,5.951,5.8757,5.8035,5.7614,5.7544,5.7544,5.7544,5.7544,5.7544,5.7467,5.7277,5.7347,5.7707,5.8314,5.8384,5.9238,6.0648,6.1431,6.2196,6.2997,6.4494,6.5736,6.679,6.7723,6.8568,6.9289,6.9359,6.9394,6.9394,6.9394,6.9324,6.9253,6.9253,6.9218,6.9008,6.8287,6.8058,6.7918,6.7181,6.7497,6.8093,6.8164,6.8744,6.9289,6.9394,0.0,6.9394,6.9394,0.0,6.9534,6.9571,0.0,0.0,7.0696,7.1434,7.2107,7.2261,7.2458,7.3682,7.6618,7.6992,7.705,7.7224,7.7395,7.7544,7.7615,7.7723,7.7758,7.7758,7.7758,7.8079,7.8812,7.8848,7.9186,7.988,7.988,7.988,7.988,7.988,7.988,7.988,7.974,7.9606,7.9641,7.9367,7.9251,7.9231,7.9028,7.9335,8.0026,8.0176,8.0753,8.1532,8.21,8.2827,8.3489,5.5071,5.5247,5.5738,5.6455,5.6982,5.7825,5.9405,6.1055,6.2529,6.3583,6.4425,6.5144,6.5705,6.6091,6.6265,6.6031,6.5522,6.4749,6.3604,6.2629,0.0,6.0388,5.9545,5.8948,5.8527,5.8035,5.779,5.779,5.7681,5.7569,5.7526,5.785,5.8124,5.8309,5.9211,5.9924,6.048,6.1744,6.2679,6.3475,6.5163,6.6331,6.7173,6.7784,6.8844,7.0043,7.0043,7.0323,7.0745,7.0745,7.0745,7.0745,7.0745,7.0745,7.0675,7.0305,6.9884,6.9481,6.913,6.8954,6.8884,6.8884,6.9148,6.9394,6.9394,6.9394,6.9394,6.9394,0.0,0.0,0.0,0.0,0.0,0.0,7.0499,7.1009,7.1103,7.1544,7.2432,7.4043,7.4612,7.5149,7.5799,7.6356,7.6735,7.6866,7.7259,7.7508,7.7508,7.7508,7.7651,7.7972,7.8455,7.8884,7.9186,7.9685,7.988,7.988,7.9763,7.974,7.9704,7.9487,7.9387,7.9367,7.913,7.9049,7.9028,7.8823,7.9177,7.9986,8.0493,8.1169,8.193,8.214,8.273,8.3341,5.5848,5.5853,5.6034,5.6806,5.7579,5.8737,6.0458,6.2529,6.4179,6.4952,6.6163,6.72,6.7888,6.8435,6.8735,6.8644,6.8026,6.718,6.6122,6.5158,6.3896,6.2319,6.1476,6.0704,5.9966,5.9159,5.8741,5.8659,5.8288,5.8072,5.8012,5.844,5.8674,5.8801,5.9926,6.0549,6.0927,6.2238,6.322,6.4067,6.5736,6.7007,6.7969,6.8385,6.933,7.0534,7.0745,7.1201,7.1709,7.1709,7.1709,7.1709,7.1709,7.1709,7.1709,7.1709,7.1307,7.085,7.085,7.0288,6.971,6.971,6.9534,6.9394,6.9394,6.9394,6.9394,6.9394,6.9394,0.0,0.0,0.0,6.9394,6.9394,0.0,7.0113,6.9902,7.0375,7.1085,7.2018,7.2641,7.33,7.4016,7.4675,7.5143,7.533,7.6043,7.6489,7.6545,7.6759,7.6973,7.7187,7.7777,7.8277,7.8705,7.9235,7.9588,7.9838,7.9586,7.9487,7.9467,7.9231,7.913,7.911,7.8926,7.8929,7.914,7.9009,7.9522,8.047,8.1032,8.1699,8.2423,8.2423,8.2752,8.3208,5.6694,5.6716,5.6806,5.7614,5.8421,5.9721,6.1984,6.3653,6.4952,6.5777,6.801,6.958,6.9616,7.1302,7.2139,7.1339,7.1233,7.0523,6.8787,6.7763,6.639,6.4671,6.3898,6.3091,6.23,6.1581,6.1078,6.0914,6.0093,5.9564,5.9249,5.9249,5.9563,6.0134,6.0203,6.1031,6.248,6.3239,6.3979,6.4807,6.6344,6.7999,6.9565,6.9973,7.0275,7.0604,7.1358,7.1674,7.1709,7.1709,7.1709,0.0,0.0,7.1709,7.1709,7.1709,7.1674,7.1639,7.1639,7.1096,7.0464,7.0464,6.9937,6.9394,6.9394,6.9394,6.9394,6.9394,6.9394,6.9394,6.9394,0.0,0.0,0.0,6.9429,0.0,0.0,6.8304,6.9165,7.1447,7.1918,7.2049,7.2103,7.2306,7.2508,7.2708,7.3419,7.3919,7.4082,7.485,7.5617,7.6402,7.6438,7.7206,7.8705,7.8529,7.8859,7.9621,7.9331,7.9211,7.9211,7.9008,7.8891,7.8906,7.8699,7.9052,7.9789,7.9754,8.0667,8.2037,8.2072,8.2506,8.3173,8.3173,8.3173,8.3208,5.7575,5.7932,5.8266,5.8562,5.8827,5.9966,6.274,6.4495,6.6198,6.8169,6.958,7.0925,7.2188,7.3417,7.4079,7.3939,7.3296,7.2405,7.1195,7.0183,6.8821,6.7093,6.6286,6.5478,6.4723,6.3477,6.2726,6.254,6.1618,6.1049,6.0826,6.067,6.0721,6.0944,6.1461,6.2273,6.3273,6.4014,6.5048,6.6378,6.7896,6.9258,7.0308,7.0062,7.0748,7.1867,7.2267,7.2781,7.3238,7.3238,7.3238,7.3238,7.3238,7.3238,7.3238,7.3238,7.2851,7.243,0.0,0.0,7.1288,7.1288,7.1096,7.092,7.092,7.092,7.092,7.092,7.0499,7.0113,0.0,0.0,0.0,0.0,0.0,6.8278,0.0,6.7488,6.7616,6.848,7.0028,7.1265,7.1925,7.207,7.22,7.2384,7.265,7.2865,7.3047,7.3667,7.4182,7.4595,7.5515,7.6469,7.7499,7.7972,7.8587,7.9311,7.911,7.9008,7.8973,7.8803,7.8699,7.8734,7.9178,7.9543,7.9838,8.033,8.1137,8.2107,8.2107,8.2541,8.3208,8.3208,8.3208,8.3208,5.8477,5.8798,5.9046,5.9018,5.9685,6.1055,6.3583,6.5583,6.7623,6.9809,7.1367,7.2966,7.4769,7.5751,7.6307,7.6419,7.5788,7.4855,7.3621,7.2867,7.1533,6.9516,6.8936,6.8076,6.6742,6.5443,6.4444,6.3729,6.2753,6.204,6.1606,6.1377,6.1461,6.1772,6.2549,6.3289,6.4048,6.5083,6.6221,6.7551,6.9069,7.022,7.0949,7.0719,7.1409,7.2538,7.3054,7.3553,7.401,7.401,7.401,7.401,7.401,7.401,7.401,7.401,7.3624,7.3238,7.3238,7.2676,0.0,7.2114,7.1884,0.0,7.1709,7.1709,7.1709,7.1709,7.1307,0.0,0.0,0.0,0.0,0.0,0.0,0.0,0.0,6.6538,6.6405,6.6477,6.8373,6.9958,7.058,7.0915,7.1149,7.1333,7.1599,7.1867,7.2067,7.2915,7.3464,7.3575,7.474,7.5868,7.6875,7.7346,7.8085,7.911,7.8906,7.8803,7.8803,7.8657,7.8771,7.9052,7.9557,8.0084,8.0646,8.1137,8.1804,8.2471,8.2471,8.2787,8.3208,8.3208,8.3208,8.3208,5.9471,5.9445,5.9362,5.928,6.1055,6.3021,6.4583,6.6954,6.914,7.0763,7.3341,7.5624,7.7262,7.8269,7.8884,7.8884,7.8656,7.7802,7.6154,7.5709,7.4436,7.2044,7.1884,7.0815,6.848,6.7602,6.6373,6.4725,6.3659,6.2666,6.1762,6.1516,6.1806,6.2583,6.3342,6.4048,6.4841,6.6359,6.7463,6.8325,6.9863,7.0898,7.1588,7.1849,7.2195,7.2659,7.3631,7.399,7.401,7.401,7.401,7.401,7.401,7.401,7.401,7.4045,7.4045,7.408,7.4115,7.3553,7.2957,7.2957,7.2465,0.0,0.0,0.0,7.1868,0.0,0.0,0.0,0.0,0.0,0.0,0.0,0.0,0.0,6.5468,6.5404,6.5547,6.5547,6.7038,6.8093,6.8129,6.8814,6.9327,6.9474,7.0232,7.0747,7.0947,7.2415,7.3265,7.3319,7.4114,7.5263,7.6855,7.6673,7.7369,7.887,7.8678,7.8595,7.8595,7.863,7.9087,7.9803,7.9873,8.0772,8.2107,8.2142,8.2577,8.3208,8.3208,8.3208,8.3208,8.3208,8.3208,8.3208,6.197,6.1767,6.1911,6.3056,6.3706,6.4619,6.6163,6.8116,7.0411,7.3263,7.5421,7.7336,7.9054,8.0486,8.1291,8.1291,8.0559,7.9842,7.9251,7.7934,7.6549,7.5188,7.4537,7.3413,7.1658,7.0288,6.9038,6.7907,6.5768,6.4508,6.4118,6.3364,6.3117,6.3342,6.4083,6.4841,6.5654,6.66,6.8103,6.9877,7.0863,7.1691,7.2402,7.261,7.279,7.2933,7.3547,7.3891,7.401,7.401,7.401,7.401,7.401,7.401,7.4115,7.4642,7.4817,7.4958,7.5555,7.5555,7.5379,7.5379,7.5274,7.4958,0.0,0.0,0.0,0.0,0.0,0.0,0.0,0.0,0.0,6.9799,0.0,0.0,6.4467,6.444,6.4584,6.469,6.5759,6.6707,6.7251,6.748,6.7638,6.7657,6.843,6.8978,6.9176,7.0476,7.1603,7.2336,7.296,7.4272,7.6418,7.6393,7.7146,7.8678,7.8616,7.8595,7.863,7.9227,7.9592,7.9838,8.1018,8.1756,8.2142,8.2682,8.3033,8.3208,8.3208,8.3208,8.3208,8.3208,8.3208,8.3208,6.2942,6.3164,6.3898,6.5426,6.6356,6.7183,6.8062,6.9686,7.2025,7.5347,7.7314,7.9212,8.12,8.2183,8.2678,8.2613,8.1983,8.1367,8.0786,7.9745,7.8769,7.7893,7.7064,7.5906,7.4361,7.2816,7.1246,6.9586,6.7738,6.6211,6.5001,6.4382,6.391,6.3634,6.4757,6.5481,6.5999,6.7758,6.9414,7.0946,7.1726,7.2485,0.0,7.3301,7.3614,7.4052,7.4302,7.438,7.4362,7.4362,7.4632,7.4993,7.4993,7.4993,7.5098,7.5484,7.5625,7.5695,7.6187,7.6292,7.6292,7.6292,7.6292,7.6187,7.575,7.5625,7.5414,0.0,7.4115,7.3589,0.0,0.0,7.0577,6.9129,6.72,6.5519,6.4403,6.4137,6.4127,6.4287,6.4865,6.5426,6.5952,6.6584,6.7023,6.7023,6.7427,6.7867,6.8326,6.9431,7.059,7.1828,7.2453,7.394,7.6257,7.6292,7.7064,7.8595,7.8595,7.8771,7.9157,7.9592,8.0154,8.0843,8.1721,8.2282,8.2612,8.3033,8.3208,8.3208,8.3208,8.3208,8.3208,8.3208,8.3208,8.3208,6.3493,6.4364,6.5619,6.7076,6.882,7.0128,7.0465,7.1724,7.3822,7.7152,7.9034,8.0899,8.3147,8.3575,8.3636,8.3425,8.3216,8.2701,8.1726,8.128,8.0786,8.0119,7.9262,7.8103,7.6608,7.4973,7.2925,7.0511,6.9323,6.7513,6.5156,6.4831,6.4324,6.3669,6.5205,6.6068,6.6516,6.9242,7.0829,7.1567,7.2485,7.3244,7.383,7.3934,7.449,7.5249,7.5249,7.5109,7.491,7.491,7.5487,7.6211,7.6211,7.6231,7.6251,7.6357,7.6412,7.6468,7.6573,7.6608,7.6608,7.6608,7.6608,7.6573,7.6468,7.6432,7.6222,7.5414,7.5168,7.4697,0.0,0.0,7.0747,6.8116,6.6765,6.5792,6.4979,6.4491,6.4224,6.4336,6.4462,0.0,6.4707,6.5917,6.6689,6.6689,6.6813,6.7164,6.7866,6.8744,6.9937,7.1498,7.229,7.3834,7.6257,7.6292,7.7135,7.8771,7.8771,7.9171,7.9943,8.0049,8.0843,8.2107,8.2212,8.2612,8.3208,8.3208,8.3208,8.3208,8.3208,8.3208,8.3186,8.3164,8.3164,8.3164,6.6474,6.7095,6.7937,6.9032,7.055,7.2338,7.464,7.466,7.5586,7.8788,8.0174,8.1541,8.3238,8.4574,8.5276,8.5024,8.479,8.4504,8.411,8.2708,8.1826,8.1721,8.033,7.9136,7.8244,7.5884,7.3802,7.2104,6.9656,6.7603,6.599,6.5108,6.4324,6.3669,6.5205,6.693,6.8793,6.9932,7.0829,7.1601,7.3037,7.3692,7.3865,7.4477,7.4809,7.499,7.499,7.5166,7.5464,7.5464,7.5589,7.5715,7.5715,7.5861,7.6111,7.6775,7.7075,7.736,7.8012,7.8209,7.8209,7.8209,7.8209,7.8012,7.736,7.7219,7.6974,7.6222,7.5555,7.5013,7.4767,0.0,0.0,6.8563,6.743,6.6551,6.5792,6.5683,6.5558,6.5153,6.5247,6.5198,6.4742,6.4934,6.511,6.511,6.5724,6.6163,6.6304,6.7655,6.913,7.0675,7.1482,7.3308,7.6257,7.6292,7.7415,7.9613,7.9613,7.9978,8.0751,8.1383,8.1861,8.2142,8.2752,8.3068,8.3208,8.3208,8.3208,8.3208,8.3208,8.3208,8.3186,8.2986,8.2954,8.2976,6.8576,6.9547,7.0729,7.2021,7.3619,7.5451,7.7595,7.8031,7.8801,8.0689,8.2088,8.3361,8.4503,8.5576,8.6119,8.5848,8.5609,8.5389,8.5109,8.3978,8.3234,8.3101,8.1594,8.0338,7.9439,7.7062,7.5039,7.3369,7.0818,6.8754,6.7169,6.5899,6.5117,6.486,6.5964,6.7758,6.9897,7.0242,7.1312,7.2761,7.352,7.4257,7.5016,7.5373,7.5753,7.6097,7.6097,7.623,7.6379,7.6127,7.6338,7.6793,7.6793,7.6878,7.6998,7.7417,7.7571,7.7726,7.8132,7.8495,7.881,7.881,7.881,7.8705,7.8299,7.7915,7.7446,7.6733,7.6244,7.5615,7.4371,7.2698,0.0,0.0,0.0,6.7448,6.7083,6.6436,6.5774,6.5197,6.5294,6.5231,6.4603,6.4637,6.4689,6.4689,6.5057,6.5443,6.5882,6.6988,6.8498,7.0429,7.1288,7.3202,7.6257,7.6292,7.7486,7.9803,7.9803,8.04,8.1523,8.18,8.212,8.254,8.2756,8.2851,8.2851,8.2851,8.2851,8.2851,8.2851,8.2851,8.2829,8.2716,8.267,8.2693,7.0576,7.1816,7.3304,7.49,7.6614,7.8365,8.0147,8.1228,8.204,8.2647,8.3825,8.4946,8.5867,8.6518,8.6707,8.6387,8.6245,8.6021,8.5794,8.5001,8.4397,8.4005,8.2631,8.1437,8.0446,7.8163,7.6143,7.4426,0.0,7.0093,6.8083,6.693,6.6275,6.6171,6.6876,6.8414,7.0415,7.076,7.2036,7.383,7.4175,7.5016,7.6097,7.627,7.6787,7.7442,7.7442,7.7442,7.7384,7.6974,7.7241,7.7741,7.7741,7.7785,7.7876,7.8015,7.8093,7.8172,7.8346,7.8811,7.9263,7.9263,7.9263,7.9263,7.9263,7.8672,7.7963,7.7371,7.7023,7.6188,7.4087,7.2851,0.0,0.0,0.0,0.0,6.8359,6.7379,6.6332,6.5587,6.5459,6.5277,6.4725,6.462,6.4654,6.4689,6.4689,6.497,6.5619,6.6497,6.797,7.0108,7.1125,7.307,7.6135,7.6325,7.7586,7.9899,8.0039,8.0845,8.2199,8.1965,8.2225,8.2818,8.2579,8.251,8.251,8.251,8.251,8.251,8.251,8.251,8.2488,8.2442,8.2419,8.2419,7.3205,7.391,7.4936,7.6723,7.8326,8.0218,8.2678,8.3733,8.4324,8.4396,8.4518,8.5098,8.6382,8.7193,8.7458,8.6989,8.6944,8.6889,8.6637,8.567,8.4797,8.404,8.2973,8.2035,8.1212,7.8786,7.6769,7.5188,0.0,7.1022,6.8083,6.7945,6.7532,6.693,6.7669,6.8877,7.0484,7.1898,7.3002,7.3934,7.5326,7.596,7.6166,7.6822,7.758,7.8292,7.8292,7.8292,7.8292,7.8246,7.7786,7.7268,7.7268,7.7424,7.7739,7.8432,7.8761,7.9055,7.9785,8.0029,8.0064,8.0064,8.0064,8.0064,8.0064,7.9472,7.8881,7.8811,7.7719,7.6437,7.5321,7.3892,7.2804,0.0,0.0,0.0,0.0,6.9069,6.8507,6.7231,6.6437,6.5877,6.5511,6.4865,6.448,6.4672,6.4689,6.4724,6.4794,6.6198,6.767,6.9113,7.0581,7.2739,7.5624,7.6391,7.7888,8.0165,8.0827,8.1593,8.2474,8.2452,8.2464,8.2533,8.251,8.251,8.251,8.251,8.251,8.251,8.251,8.251,8.2465,8.2234,8.2141,8.2094,7.5827,7.6946,7.8154,7.9355,8.1243,8.2939,8.3947,8.5181,8.6144,8.6644,8.6715,8.688,8.7285,8.7878,8.8117,8.7755,8.7618,8.7502,8.7445,8.6417,8.5438,8.453,8.3543,8.2326,8.0917,7.9026,7.753,7.6459,0.0,7.2071,7.0829,6.9483,6.8655,6.8414,6.9173,7.0346,7.1829,7.245,7.3658,7.5257,7.6339,7.7028,7.7568,7.8304,7.8787,7.9086,7.9086,7.9086,7.9086,7.9086,7.8235,7.727,7.7753,7.8015,7.8221,7.8946,7.9257,7.9359,7.9671,8.0086,8.0432,8.0432,8.0432,8.0432,8.0432,7.9844,7.929,7.929,7.8079,7.6776,7.5962,7.4904,7.4101,7.4016,0.0,0.0,0.0,7.0173,6.8917,6.7925,6.6777,6.587,6.5307,6.4741,6.4428,6.4498,6.4637,6.4637,6.4533,6.5969,6.7453,6.8784,7.0771,7.3067,7.5561,7.6849,7.8381,8.0203,8.0968,8.1699,8.2488,8.2326,8.2187,8.2082,8.2082,8.2082,8.2082,8.2082,8.2082,8.2082,8.2082,8.2082,8.2059,8.1965,8.1918,8.1963,7.8044,7.9328,8.0649,8.1898,8.3504,8.4803,8.5538,8.6537,8.7515,8.8235,8.8342,8.8234,8.8051,8.8303,8.8373,8.8121,8.7995,8.7878,8.7808,8.6989,8.61,8.5073,8.4047,8.2805,8.1328,7.981,7.8546,7.7546,7.5188,7.3692,7.2968,7.1139,7.0173,7.0001,7.0967,7.2002,7.3037,7.352,7.474,7.6477,7.7235,7.8028,7.8775,7.9327,7.9614,7.9821,7.9821,7.9821,7.9821,7.9821,7.8959,7.7959,7.8546,7.8741,7.8879,7.9614,7.9821,7.9879,8.012,8.0569,8.0959,8.0959,8.0959,8.0959,8.0959,8.0373,7.9752,7.9569,7.8615,7.7649,7.6891,7.6132,7.5511,7.5304,0.0,0.0,0.0,7.0932,6.9345,6.8552,6.7027,6.5843,6.538,6.4683,6.4357,6.4654,6.4813,6.4848,6.4743,6.5929,6.7355,6.8922,7.1007,0.0,7.535,7.7155,7.8682,8.0001,8.0973,8.1736,8.228,8.2106,8.1941,8.181,8.181,8.181,8.181,8.181,8.181,8.181,8.181,8.181,8.181,8.181,8.1948,8.219,7.9721,8.0542,8.1826,8.4146,8.4554,8.5395,8.7679,8.8071,8.8292,8.8836,8.8885,8.881,8.8622,8.8351,8.8121,8.7925,8.7901,8.7808,8.7524,8.7226,8.6637,8.5631,8.4578,8.3638,8.288,8.1338,7.9856,7.8396,7.7546,7.6016,7.3761,7.3002,7.2243,7.1532,7.3071,7.3761,7.3899,7.543,7.6511,7.727,7.8085,7.8844,7.95,7.9477,7.9959,8.058,8.058,8.058,8.058,8.058,8.0097,7.9477,7.9477,7.95,7.9614,8.0373,8.058,8.0752,8.1569,8.1776,8.1776,8.1776,8.1776,8.1776,8.1776,8.1155,8.0373,7.9649,7.95,7.9258,7.8499,7.7718,7.6925,7.6201,0.0,0.0,0.0,7.1346,7.0104,6.938,6.7275,6.5952,6.6053,6.4775,6.4277,6.5241,6.5294,6.5384,6.5582,6.6169,0.0,6.952,7.101,0.0,7.4891,7.7223,7.8775,7.9534,8.1052,8.181,8.181,8.181,8.181,8.181,8.181,8.181,8.181,8.181,8.181,8.181,8.181,8.181,8.181,8.181,8.2259,8.288,8.2152,8.2933,8.3896,8.5181,8.6287,8.7251,8.7964,8.8571,8.8912,8.8907,8.8766,8.86,8.8351,8.8259,8.8121,8.7925,8.7737,8.7596,8.7524,8.7058,8.6443,8.5641,8.5096,8.4225,8.2949,8.1948,8.0914,7.989,7.8637,7.712,7.5361,7.4568,7.4063,7.3822,7.4339,7.5132,7.6154,7.6649,7.758,7.8821,7.958,8.0028,8.0304,8.0879,8.1224,8.1431,8.1431,8.1431,8.1431,8.1431,8.1259,8.1086,8.1086,8.0707,8.0407,8.119,8.1431,8.1466,8.1741,8.181,8.181,8.181,8.181,8.181,8.181,8.1603,8.119,8.0407,8.0235,8.0028,7.9293,7.8534,7.7925,7.7706,7.5891,0.0,7.4236,0.0,7.0311,7.007,6.8034,6.6673,6.6731,6.5912,6.5521,6.5819,6.5854,6.5856,6.5931,6.7106,0.0,0.0,7.2119,0.0,7.6442,7.8235,7.9511,8.027,8.1293,8.181,8.181,8.181,8.181,8.181,8.181,8.181,8.181,8.181,8.181,8.181,8.181,8.2121,8.2569,8.2569,8.3018,8.3718,8.3844,8.4564,8.5395,8.6465,8.7465,8.8178,8.85,8.8877,8.9066,8.8846,8.86,8.8351,8.8098,8.8075,8.7983,8.7784,8.7596,8.7394,8.7202,8.6887,8.6459,8.591,8.5427,8.4742,8.3776,8.2742,8.1845,8.1028,7.9569,7.8189,7.6959,7.6718,7.6477,7.6235,7.6511,7.7166,7.8063,7.8063,7.8787,7.9959,8.0407,8.0787,8.1121,8.1603,8.181,8.181,8.181,8.181,8.181,8.181,8.181,8.181,8.181,8.1466,8.1155,8.1672,8.181,8.181,8.181,8.2017,8.2224,8.2224,8.2431,8.2569,8.2293,8.2017,8.1672,8.1132,8.1028,8.0845,8.0028,7.9304,7.8741,7.8465,7.6442,7.4925,7.4925,0.0,7.0808,7.0808,6.9069,6.7862,6.7862,6.7249,6.6981,6.7292,6.7292,6.7534,6.8122,6.8226,6.9203,7.1208,7.2899,7.4878,7.7166,7.8718,7.9856,8.0614,8.1431,8.181,8.181,8.181,8.181,8.181,8.181,8.181,8.181,8.181,8.181,8.1845,8.2121,8.25,8.2949,8.3225,8.3811,8.4535,8.4808,8.5468,8.6358,8.7821,8.8143,8.8428,8.9192,8.9088,8.881,8.8622,8.8351,8.8121,8.7925,8.7901,8.7784,8.7501,8.7477,8.7226,8.674,8.6691,8.6568,8.6294,8.5639,8.5259,8.519,8.3811,8.2673,8.1879,8.0396,7.9293,7.8568,7.9201,7.9155,7.8499,7.9189,7.9511,7.9603,7.9603,7.9994,8.0683,8.0683,8.1132,8.181,8.181,8.181,8.181,8.181,8.181,8.181,8.181,8.181,8.181,8.181,8.1845,8.1879,8.181,8.1845,8.1879,8.1879,8.2431,8.2983,8.2983,8.35,8.3821,8.3156,8.2431,8.1879,8.1879,8.1845,8.1569,8.0821,8.0028,7.9293,7.8603,7.6477,7.4925,7.4891,7.2946,7.1498,7.1498,7.0242,0.0,6.938,6.8724,6.8566,6.938,6.9449,7.0104,7.1567,0.0,6.9808,7.2761,7.3623,7.5119,7.7339,7.8821,7.9925,8.0683,8.1431,8.181,8.181,8.181,8.181,8.181,8.181,8.1845,8.1879,8.1879,8.1914,8.2017,8.2707,8.3018,8.3156,8.3845,8.4604,8.5294,8.5504,8.615,8.6965,8.7929,8.8607,8.9106,8.9263,8.9088,8.881,8.8622,8.8351,8.8121,8.7925,8.7714,8.7501,8.7237,8.7213,8.7033,8.6716,8.6518,8.6369,8.6294,8.6122,8.5777,8.5225,8.4846,8.3983,8.2638,8.1707,8.0845,8.0063,7.9683,7.9431,7.9258,7.9408,7.9787,8.0339,8.0339,8.0787,8.1535,8.1535,8.1638,8.181,8.181,8.181,8.181,8.181,8.181,8.181,8.181,8.181,8.181,8.181,8.219,8.2535,8.1983,8.219,8.2638,8.2638,8.319,8.3718,8.3718,8.3855,8.3959,8.3787,8.319,8.2638,8.2638,8.219,8.1741,8.1569,8.0431,7.9442,7.9293,7.6787,7.4891,7.4912,7.2946,7.1498,7.1498,7.0691,7.0139,7.0139,6.9966,7.0173,0.0,7.0981,7.1657,7.3175,7.2761,7.305,7.4339,7.5684,7.7201,7.8925,7.9856,8.0718,8.1535,8.1707,8.181,8.181,8.181,8.181,8.181,8.181,8.2121,8.2638,8.2638,8.2983,8.3476,8.3649,8.4121,8.4673,8.4846,8.5397,8.6053,8.6388,8.6993,8.7714,8.85,8.9035,8.9277,8.9132,8.8934,8.869,8.8442,8.819,8.8006,8.7925,8.7667,8.7405,8.7141,8.6995,8.6789,8.6543,8.6369,8.6294,8.6294,8.6294,8.6122,8.5708,8.5363,8.4604,8.3397,8.2673,8.2086,8.1614,8.0914,8.0569,8.0569,8.0569,8.0776,8.1155,8.1155,8.1397,8.181,8.181,8.181,8.181,8.181,8.181,8.181,8.181,8.181,8.181,8.181,8.2017,8.2293,8.2293,8.2811,8.3328,8.2914,8.3087,8.3397,8.3397,8.3983,8.4639,8.4984,8.4811,8.457,8.457,8.3949,8.3328,8.2983,8.2604,8.219,8.1845,8.0534,7.9477,7.9477,7.7201,7.5304,7.4925,7.3533,7.2554,7.2554,7.2209,7.2084,7.2429,7.2464,7.2636,7.3015,7.3029,0.0,7.5257,7.5361,7.5533,7.596,7.6753,7.8097,7.9959,8.0752,8.1362,8.181,8.181,8.181,8.181,8.2155,8.2293,8.2328,8.2673,8.3052,8.3397,8.3397,8.3638,8.4028,8.4397,8.4811,8.5225,8.557,8.5949,8.6294,8.7136,8.7699,8.8357,8.9156,8.9277,8.9154,8.8921,8.8712,8.8442,8.8236,8.8006,8.7901,8.7901,8.7667,8.7405,8.7141,8.6838,8.6593,8.6319,8.6294,8.6294,8.6294,8.6294,8.6294,8.6294,8.5708,8.4984,8.4166,8.3569,8.319,8.3052,8.2328,8.1983,8.1948,8.1845,8.181,8.181,8.181,8.181,8.181,8.181,8.181,8.181,8.181,8.181,8.181,8.181,8.181,8.181,8.1948,8.2397,8.2914,8.3052,8.358,8.4166,8.4166,8.4259,8.4304,8.42,8.4777,8.5535,8.6156,8.5846,8.5363,8.5363,8.4742,8.4018,8.3397,8.3052,8.2707,8.2086,8.0707,7.9614,7.9511,7.7684,7.5994,7.5201,0.0,7.3947,7.3947,7.3947,7.4257,7.5029,7.5098,7.5201,7.5408,7.5442,7.6063,7.7477,7.7546,7.7615,7.7718,7.7718,7.8683,8.0752,8.1569,8.1983,8.1983,8.2086,8.2121,8.2155,8.2776,8.3087,8.3121,8.3718,8.4087,8.4166,8.4166,8.4235,8.4407,8.5121,8.5363,8.5432,8.6087,8.6294,8.6294,8.6877,8.7557,8.8357,8.9156,8.911,8.8943,8.8899,8.8555,8.8236,8.8213,8.8006,8.7901,8.7901,8.7667,8.7405,8.7141,8.6838,8.6593,8.6319,8.6294,8.6294,8.6294,8.6294,8.6294,8.6294,8.6191,8.5777,8.5018,8.4915,8.4501,8.3787,8.3062,8.2742,8.2707,8.2086,8.181,8.181,8.181,8.181,8.181,8.181,8.181,8.181,8.181,8.181,8.181,8.181,8.181,8.1914,8.2535,8.2811,8.3018,8.3614,8.4363,8.5018,8.5018,8.5466,8.5811,8.519,8.557,8.6156,8.626,8.6225,8.6122,8.6122,8.557,8.4984,8.488,8.3811,8.288,8.2742,8.1476,8.0235,7.958,7.8097,7.6753,7.6029,0.0,7.4718,7.4718,7.4718,7.5029,7.5822,7.5891,7.6442,7.7775,7.7879,7.8223,7.9097,7.9132,7.9408,8.0063,8.0063,8.0545,8.1603,8.2362,8.2742,8.2742,8.3362,8.3673,8.3649,8.3787,8.3821,8.3821,8.3924,8.4397,8.5018,8.5018,8.5397,8.5949,8.6087,8.6122,8.6156,8.626,8.6294,8.6294,8.6906,8.7893,8.8813,8.9039,8.8965,8.881,8.8542,8.8351,8.8167,8.8052,8.7971,8.7901,8.7901,8.7667,8.7405,8.7141,8.6838,8.6593,8.6319,8.6294,8.6294,8.6294,8.6294,8.6294,8.6294,8.6294,8.6122,8.5777,8.5397,8.5018,8.4639,8.3845,8.3269,8.288,8.2535,8.219,8.181,8.181,8.181,8.181,8.181,8.181,8.181,8.181,8.181,8.181,8.181,8.2052,8.2431,8.2811,8.3466,8.419,8.4535,8.519,8.5777,8.5777,8.6018,8.6225,8.588,8.6053,8.6294,8.6294,8.6294,8.6294,8.6294,8.6053,8.5673,8.5294,8.4639,8.388,8.3052,8.2017,8.1017,8.0201,7.8821,0.0,7.6787,7.6029,7.5684,7.6097,7.6132,7.6615,7.7787,7.7925,7.8223,7.8948,7.8982,7.9304,8.0028,8.0097,8.0614,8.1787,8.1821,8.1994,8.2397,8.3121,8.35,8.3476,8.3821,8.3993,8.3993,8.4466,8.4639,8.4673,8.5087,8.5466,8.5777,8.5777,8.5984,8.6294,8.6294,8.6294,8.6294,8.6294,8.6294,8.6294,8.6957,8.8171,8.9132,8.8943,8.881,8.8609,8.8259,8.8167,8.8075,8.7925,8.7901,8.7901,8.7901,8.7714,8.7477,8.7141,8.6912,8.6642,8.6319,8.6294,8.6294,8.6294,8.6294,8.6294,8.6294,8.6294,8.6294,8.6294,8.5742,8.5466,8.5432,8.4673,8.3983,8.3431,8.3052,8.2604,8.2052,8.1879,8.181,8.181,8.181,8.181,8.181,8.181,8.181,8.181,8.1983,8.2431,8.2949,8.3328,8.4225,8.5225,8.5397,8.5846,8.6294,8.6294,8.6294,8.6294,8.6294,8.6294,8.6294,8.6294,8.6294,8.6294,8.6294,8.6294,8.6156,8.557,8.5328,8.4846,8.3638,8.2673,8.181,8.1017,0.0,7.8637,7.7856,7.7235,7.7097,7.7649,7.7718,7.827,7.9614,7.9752,7.9821,8.0017,8.0166,8.0534,8.1097,8.1304,8.1925,8.3121,8.3156,8.3156,8.3156,8.389,8.4294,8.4294,8.4466,8.4511,8.457,8.519,8.5466,8.5501,8.6053,8.6294,8.6294,8.6294,8.6294,8.6294,8.6294,8.6294,8.6294,8.6294,8.6294,8.6294,8.6972,8.8006,8.8921,8.8899,8.8519,8.8236,8.8213,8.8029,8.7925,8.7901,8.7901,8.7901,8.7901,8.7878,8.7667,8.7165,8.7092,8.6838,8.6319,8.6294,8.6294,8.6294,8.6294,8.6294,8.6294,8.6294,8.6294,8.6294,8.626,8.6225,8.6191,8.5466,8.5087,8.4984,8.3535,8.288,8.2776,8.2086,8.181,8.181,8.181,8.181,8.181,8.181,8.181,8.1879,8.2569,8.2845,8.3121,8.4535,8.5121,8.5328,8.6018,8.626,8.6294,8.6294,8.6294,8.6294,8.6294,8.6294,8.6294,8.6294,8.6294,8.6294,8.6294,8.6294,8.6294,8.6225,8.5673,8.5156,8.5052,8.3811,8.2569,8.1845,0.0,0.0,7.9408,7.927,7.927,7.9304,7.9304,7.9614,8.0442,8.0511,8.0821,8.1569,8.2259,8.2673,8.2742,8.3397,8.3787,8.3949,8.3924,8.3924,8.3924,8.4708,8.5121,8.5121,8.5811,8.6122,8.6122,8.6191,8.6225,8.6225,8.6294,8.6294,8.6294,8.6294,8.6294,8.6294,8.6294,8.6294,8.6294,8.6294,8.6294,8.6294,8.6972,8.7985,8.8854,8.8734,8.8442,8.8144,8.8029,8.7948,8.7901,8.7901,8.7901,8.7901,8.7901,8.7901,8.769,8.7165,8.7117,8.6898,8.6319,8.6294,8.6294,8.6294,8.6294,8.6294,8.6294,8.6294,8.6294,8.6294,8.6294,8.6294,8.6294,8.6018,8.5639,8.5156,8.4604,8.3811,8.288,8.2604,8.2224,8.181,8.181,8.181,8.1845,8.2328,8.25,8.2569,8.3328,8.3914,8.4432,8.5018,8.5501,8.5949,8.6225,8.6294,8.6294,8.6294,8.6294,8.6294,8.6294,8.6294,8.6294,8.6294,8.6294,8.6294,8.6294,8.6294,8.6294,8.6294,8.6087,8.5742,8.5294,8.4708,8.3914,8.2673,0.0,8.1086,8.027,7.9787,7.9649,8.0132,8.0638,8.1224,8.1925,8.2442,8.2821,8.3156,8.3407,8.358,8.358,8.4328,8.4742,8.4742,8.519,8.5225,8.4742,8.5501,8.588,8.588,8.6191,8.6294,8.6294,8.6294,8.6294,8.6294,8.6294,8.6294,8.6294,8.6294,8.6294,8.6294,8.6294,8.6294,8.6319,8.6494,8.6543,8.6568,8.6866,8.7876,8.8757,8.851,8.8259,8.8052,8.7925,8.7901,8.7901,8.7901,8.7901,8.7901,8.7901,8.7901,8.769,8.7165,8.7117,8.6898,8.6319,8.6294,8.6294,8.6294,8.6294,8.6294,8.6294,8.6294,8.6294,8.6294,8.6294,8.6294,8.6294,8.6294,8.6018,8.5535,8.5294,8.4604,8.3604,8.3121,8.2604,8.2121,8.1879,8.1948,8.219,8.2707,8.3052,8.3362,8.4121,8.4742,8.5225,8.5466,8.588,8.6294,8.6294,8.6294,8.6294,8.6294,8.6294,8.6294,8.6294,8.6294,8.6294,8.6294,8.6294,8.6294,8.6294,8.6294,8.6294,8.6294,8.6294,8.6156,8.5639,8.5363,8.4846,8.3811,8.2983,8.2293,8.1752,8.1235,8.1097,8.1614,8.2131,8.2707,8.3225,8.3683,8.3993,8.3993,8.4235,8.4491,8.483,8.5383,8.5708,8.5782,8.6301,8.6301,8.5782,8.6127,8.6294,8.6294,8.6294,8.6344,8.6419,8.6419,8.6469,8.6543,8.6543,8.6543,8.6543,8.6543,8.6494,8.6419,8.6518,8.6494,8.6444,8.6716,8.6814,8.6838,8.6645,8.767,8.851,8.8236,8.8029,8.7901,8.7901,8.7901,8.7901,8.7901,8.7901,8.7901,8.7901,8.7901,8.769,8.7165,8.7117,8.6898,8.6319,8.6294,8.6294,8.6294,8.6294,8.6294,8.6294,8.6294,8.6294,8.6294,8.6294,8.6294,8.6294,8.6294,8.6294,8.626,8.5535,8.519,8.5087,8.3569,8.2914,8.2845,8.2121,8.2259,8.2914,8.2914,8.3373,8.4097,8.4915,8.519,8.5328,8.6053,8.6294,8.6294,8.6294,8.6294,8.6294,8.6294,8.6294,8.6294,8.6294,8.6294,8.6294,8.6294,8.6294,8.6294,8.6294,8.6294,8.6294,8.6294,8.6294,8.6294,8.6294,8.5708,8.519,8.519,8.4535,8.3993,8.4018,8.4018,8.4018,8.4018,8.3993,8.3993,8.3993,8.3993,8.3993,8.3993,8.4777,8.5659,8.6657,8.6716,8.6814,8.7092,8.7117,8.7117,8.7117,8.6568,8.6294,8.6294,8.6294,8.6444,8.6716,8.6716,8.6838,8.7117,8.7117,8.7117,8.7117,8.7117,8.6936,8.674,8.702,8.6936,8.674,8.6985,8.7117,8.7117,8.6624,8.7537,8.8282,8.8213,8.8029,8.7901,8.7901,8.7901,8.7901,8.7901,8.7901,8.7901,8.7901,8.7901,8.769,8.7165,8.7117,8.6898,8.6319,8.6294,8.6294,8.6294,8.6294,8.6294,8.6294,8.6294,8.6294,8.6294,8.6294,8.6294,8.6294,8.6294,8.6294,8.6294,8.6087,8.5673,8.5156,8.4708,8.419,8.3649,8.3407,8.35,8.3718,8.4294,8.4639,8.4949,8.5708,8.5984,8.6018,8.6225,8.6294,8.6294,8.6294,8.6294,8.6294,8.6294,8.6294,8.6294,8.6294,8.6294,8.6294,8.6294,8.6294,8.6294,8.6294,8.6294,8.6294,8.6294,8.6294,8.6294,8.6294,8.6122,8.5811,8.5294,8.5018,8.4712,8.4329,8.4284,8.4284,8.4284,8.4793,8.5066,8.487,8.5328,8.5604,8.5604,8.6019,8.6375,8.6657,8.6863,8.7044,8.7117,8.7117,8.7117,8.7117,8.6946,8.6873,8.6873,8.6873,8.6887,8.696,8.696,8.7009,8.7117,8.7117,8.7117,8.7117,8.7117,8.7068,8.6985,8.7092,8.7068,8.6985,8.7285,8.7381,8.7429,8.6459,8.7404,8.8167,8.8098,8.7995,8.7901,8.7901,8.7901,8.7901,8.7901,8.7901,8.7901,8.7901,8.7901,8.769,8.7165,8.6922,8.6642,8.6319,8.6294,8.6294,8.6294,8.6294,8.6294,8.6294,8.6294,8.6294,8.6294,8.6294,8.6294,8.6294,8.6294,8.6294,8.6294,8.6294,8.6053,8.5639,8.5328,8.4915,8.4466,8.4156,8.4166,8.4535,8.5018,8.5397,8.5708,8.6156,8.6294,8.6294,8.6294,8.6294,8.6294,8.6294,8.6294,8.6294,8.6294,8.6294,8.6294,8.6294,8.6294,8.6294,8.6294,8.6294,8.6294,8.6294,8.6294,8.6294,8.6294,8.6294,8.6319,8.6444,8.6444,8.6355,8.6004,8.596,8.5835,8.552,8.5474,8.5474,8.5474,8.5794,8.5949,8.5812,8.6103,8.6344,8.6444,8.6617,8.6789,8.7009,8.7154,8.7309,8.7429,8.7429,8.7429,8.7429,8.7429,8.7309,8.7117,8.7117,8.7165,8.7261,8.7261,8.7333,8.7429,8.7429,8.7429,8.7429,8.7429,8.7357,8.7285,8.7381,8.7357,8.7309,8.7572,8.7667,8.769,8.6219,8.7269,8.8098,8.7948,8.7901,8.7901,8.7901,8.7901,8.7901,8.7901,8.7901,8.7901,8.7901,8.7901,8.7714,8.7189,8.6642,8.6319,8.6294,8.6294,8.6294,8.6294,8.6294,8.6294,8.6294,8.6294,8.6294,8.6294,8.6294,8.6294,8.6294,8.6294,8.6294,8.6294,8.6294,8.6294,8.626,8.557,8.5294,8.5225,8.4501,8.4639,8.5294,8.5294,8.5708,8.6294,8.6294,8.6294,8.6294,8.6294,8.6294,8.6294,8.6294,8.6294,8.6319,8.6319,8.6344,8.6404,8.6473,8.6473,8.6507,8.6576,8.6576,8.6551,8.6432,8.6423,8.6457,8.6526,8.6482,8.6547,8.6795,8.6775,8.6814,8.7068,8.7117,8.7117,8.7141,8.7141,8.7141,8.7141,8.6912,8.6765,8.674,8.6518,8.6444,8.6691,8.674,8.6985,8.7477,8.7524,8.7667,8.7901,8.7901,8.7901,8.7901,8.7901,8.7667,8.7189,8.7189,8.7309,8.7548,8.7548,8.769,8.7901,8.7901,8.7901,8.7901,8.7901,8.7761,8.7572,8.7808,8.7761,8.7572,8.7808,8.7901,8.7901,8.5998,8.7042,8.7971,8.7925,8.7901,8.7901,8.7901,8.7901,8.7901,8.7901,8.7901,8.7901,8.7901,8.7901,8.7784,8.7453,8.6912,8.6518,8.6294,8.6294,8.6294,8.6294,8.6294,8.6294,8.6294,8.6294,8.6294,8.6294,8.6294,8.6294,8.6294,8.6294,8.6294,8.6294,8.6294,8.6294,8.6294,8.6122,8.6053,8.6053,8.588,8.5915,8.6053,8.6053,8.6156,8.6294,8.6294,8.6294,8.6294,8.6294,8.6294,8.6294,8.6294,8.6444,8.6617,8.6617,8.6765,8.7051,8.7606,8.7805,8.7944,8.8569,8.8743,8.8445,8.7395,8.7308,8.7656,8.8279,8.8073,8.7805,8.7878,8.7392,8.7044,8.7092,8.7117,8.7189,8.7405,8.7429,8.7429,8.7429,8.7346,8.7226,8.7009,8.6971,8.6838,8.6716,8.7082,8.7405,8.7501,8.7714,8.7855,8.7901,8.7901,8.7901,8.7901,8.7901,8.7855,8.7737,8.7737,8.7761,8.7831,8.7831,8.7855,8.7901,8.7901,8.7901,8.7901,8.7901,8.7878,8.7831,8.7878,8.7878,8.7831,8.7878,8.7901,8.7901,8.5944,8.6973,8.7901,8.7901,8.7901,8.7901,8.7901,8.7901,8.7901,8.7901,8.7901,8.7901,8.7901,8.7901,8.7808,8.7524,8.7009,8.6642,8.6494,8.6369,8.6294,8.6294,8.6294,8.6294,8.6294,8.6294,8.6294,8.6294,8.6294,8.6294,8.6294,8.6294,8.6294,8.6294,8.6294,8.6294,8.6294,8.6294,8.6294,8.6294,8.6444,8.6494,8.6494,8.6617,8.6667,8.6667,8.6667,8.6667,8.6667,8.6667,8.6667,8.6667,8.6667,8.6765,8.6957,8.7304,8.7506,8.7778,8.8568,8.8777,8.8881,8.9299,8.9404,8.9225,8.8509,8.8455,8.8658,8.9075,8.8991,8.8802,8.8949,8.8321,8.7857,8.8001,8.771,8.7548,8.769,8.769,8.769,8.769,8.7596,8.7405,8.7141,8.7117,8.7117,8.7082,8.7322,8.7572,8.769,8.7831,8.7901,8.7901,8.7901,8.7901,8.7901,8.7901,8.7901,8.7901,8.7901,8.7901,8.7901,8.7901,8.7901,8.7901,8.7901,8.7901,8.7901,8.7901,8.7901,8.7901,8.7901,8.7901,8.7901,8.7901,8.7901,8.7901,8.5819,8.6822,8.7726,8.7866,8.7901,8.7901,8.7901,8.7901,8.7901,8.7901,8.7901,8.7901,8.7901,8.7901,8.7808,8.7524,8.7033,8.674,8.6716,8.6444,8.6294,8.6294,8.6294,8.6294,8.6294,8.6294,8.6294,8.6294,8.6294,8.6294,8.6294,8.6294,8.6294,8.6294,8.6294,8.6319,8.6369,8.6369,8.6394,8.6444,8.6667,8.6765,8.6789,8.702,8.7117,8.7117,8.7117,8.7117,8.7117,8.7117,8.7117,8.7117,8.7117,8.721,8.7503,8.8095,8.8422,8.8691,8.9493,8.9702,8.9737,8.9876,8.9911,8.9911,8.9911,8.9782,8.9697,8.9826,8.9782,8.9776,9.0032,8.9391,8.8879,8.9013,8.8498,8.8042,8.7901,8.7901,8.7901,8.7901,8.7714,8.7477,8.7213,8.7213,8.7309,8.7501,8.7548,8.7667,8.7901,8.7901,8.7901,8.7901,8.7901,8.7901,8.7901,8.7901,8.7901,8.7901,8.7901,8.7901,8.7901,8.7901,8.7901,8.7901,8.7901,8.7901,8.7901,8.7901,8.7901,8.7901,8.7901,8.7901,8.7901,8.7901,8.7901,8.7901,8.5476,8.6251,8.707,8.7761,8.7901,8.7901,8.7901,8.7901,8.7901,8.7901,8.7901,8.7901,8.7901,8.7901,8.7808,8.7524,8.7237,8.6936,8.6716,8.6444,8.6294,8.6294,8.6294,8.6294,8.6294,8.6294,8.6294,8.6294,8.6294,8.6294,8.6294,8.6294,8.6294,8.6294,8.6294,8.6419,8.6642,8.6642,8.6765,8.6995,8.7044,8.7068,8.7068,8.7092,8.7117,8.7117,8.7117,8.7117,8.7117,8.7117,8.7117,8.7117,8.7117,8.7715,8.8407,8.8536,8.9205,9.0099,9.0835,9.1046,9.1221,9.1923,9.2063,9.2063,9.2063,9.1365,9.0877,9.1576,9.139,9.107,9.1095,9.0498,8.9761,8.9107,8.8896,8.8615,8.7972,8.7901,8.7901,8.7901,8.7878,8.7737,8.7477,8.7667,8.7714,8.7524,8.7714,8.7878,8.7901,8.7901,8.7901,8.7901,8.7901,8.7901,8.7901,8.7901,8.7901,8.7901,8.7901,8.7901,8.7901,8.7901,8.7901,8.7901,8.7901,8.7901,8.7901,8.7901,8.7901,8.7901,8.7901,8.7901,8.7901,8.7901,8.7901,8.7901,8.5373,8.6158,8.6965,8.7761,8.7901,8.7901,8.7901,8.7901,8.7901,8.7901,8.7901,8.7901,8.7901,8.7901,8.7855,8.7737,8.7357,8.7068,8.6912,8.6518,8.6294,8.6294,8.6294,8.6294,8.6294,8.6294,8.6294,8.6294,8.6294,8.6294,8.6294,8.6444,8.6518,8.6518,8.6667,8.6789,8.6912,8.6912,8.6985,8.7117,8.7285,8.7333,8.7357,8.7501,8.7548,8.7548,8.7548,8.7548,8.7548,8.7548,8.7548,8.7548,8.7548,8.8109,8.8905,8.9361,9.0099,9.0968,9.174,9.1951,9.2056,9.2407,9.2477,9.2477,9.2477,9.2158,9.1884,9.2234,9.2123,9.1951,9.1951,9.1319,9.0687,9.0336,8.9563,8.8896,8.8569,8.8147,8.7901,8.7901,8.7901,8.7855,8.7737,8.7831,8.7855,8.7737,8.7831,8.7901,8.7901,8.7901,8.7901,8.7901,8.7901,8.7901,8.7901,8.7901,8.7901,8.7901,8.7901,8.7901,8.7901,8.7901,8.7901,8.7901,8.7901,8.7901,8.7901,8.7901,8.7901,8.7901,8.7901,8.7901,8.7901,8.7901,8.7901,8.7901]}]]